[[{"header":{"parameterUnit":"m.s-1","parameterCategory":1,"la1":30.6,"la2":29.2853,"lo1":-89.7004,"lo2":-87.6739,"dy":0.0162,"dx":0.0183,"nx":112,"ny":82,"refTime":"2023-05-19T00:00:00:Z","depth":0,"parameterNumber":2,"parameterNumberName":"U-component_of_WINDS"},"data":[0.0,0.0,0.0,0.0,0.0,0.0,0.0,0.0,0.0,0.0,0.0,0.0,0.0,0.0,0.0,0.0,0.0,0.0,0.0,0.0,0.0,0.0,0.0,0.0,0.0,0.0,0.0,0.0,0.0,0.0,0.0,0.0,0.0,0.0,0.0,0.0,0.0,0.0,0.0,0.0,0.0,0.0,0.0,0.0,0.0,0.0,0.0,0.0,0.0,0.0,0.0,0.0,0.0,0.0,0.0,0.0,0.0,0.0,0.0,0.0,0.0,0.0,0.0,0.0,0.0,0.0,0.0,0.0,0.0,0.0,0.0,0.0,0.0,0.0,0.0,0.0,0.0,0.0,0.0,0.0,0.0,0.0,0.0,0.0,0.0,0.0,0.0,0.0,0.0,0.0,-0.441,-0.5678,-0.6256,-0.6201,-0.5346,-0.4846,-0.4392,-0.3888,0.0,0.0,0.0,0.0,0.0,0.0,0.0,0.0,0.0,0.0,0.0,0.0,0.0,0.0,0.0,0.0,0.0,0.0,0.0,0.0,0.0,0.0,0.0,0.0,0.0,0.0,0.0,0.0,0.0,0.0,0.0,0.0,0.0,0.0,0.0,0.0,0.0,0.0,0.0,0.0,0.0,0.0,0.0,0.0,0.0,0.0,0.0,0.0,0.0,0.0,0.0,0.0,0.0,0.0,0.0,0.0,0.0,0.0,0.0,0.0,0.0,0.0,0.0,0.0,0.0,0.0,0.0,0.0,0.0,0.0,0.0,0.0,0.0,0.0,0.0,0.0,0.0,0.0,0.0,0.0,0.0,0.0,0.0,0.0,0.0,0.0,0.0,0.0,0.0,0.0,0.0,0.0,0.0,0.0,0.0,0.0,0.0,0.0,0.0,0.0,0.0,0.0,0.0,0.0,-0.4834,-0.577,-0.5585,-0.5037,-0.428,-0.3602,-0.322,-0.322,0.0,0.0,0.0,0.0,0.0,0.0,0.0,0.0,0.0,0.0,0.0,0.0,0.0,0.0,0.0,0.0,0.0,0.0,0.0,0.0,0.0,0.0,0.0,0.0,0.0,0.0,0.0,0.0,0.0,0.0,0.0,0.0,0.0,0.0,0.0,0.0,0.0,0.0,0.0,0.0,0.0,0.0,0.0,0.0,0.0,0.0,0.0,0.0,0.0,0.0,0.0,0.0,0.0,0.0,0.0,0.0,0.0,0.0,0.0,0.0,0.0,0.0,0.0,0.0,0.0,0.0,0.0,0.0,0.0,0.0,0.0,0.0,0.0,0.0,0.0,0.0,0.0,0.0,0.0,0.0,0.0,0.0,0.0,0.0,0.0,0.0,0.0,0.0,0.0,0.0,0.0,0.0,0.0,0.0,0.0,0.0,0.0,0.0,0.0,0.0,0.0,0.0,0.0,-0.3743,-0.4361,-0.5358,-0.4808,-0.4314,-0.409,-0.3267,-0.2692,-0.2517,-0.2985,0.0,0.0,0.0,0.0,0.0,0.0,0.0,0.0,0.0,0.0,0.0,0.0,0.0,0.0,0.0,0.0,0.0,0.0,0.0,0.0,0.0,0.0,0.0,0.0,0.0,0.0,0.0,0.0,0.0,0.0,0.0,0.0,0.0,0.0,0.0,0.0,0.0,0.0,0.0,0.0,0.0,0.0,0.0,0.0,0.0,0.0,0.0,0.0,0.0,0.0,0.0,0.0,0.0,0.0,0.0,0.0,0.0,0.0,0.0,0.0,0.0,0.0,0.0,0.0,0.0,0.0,0.0,0.0,0.0,0.0,0.0,0.0,0.0,0.0,0.0,0.0,0.0,0.0,0.0,0.0,0.0,0.0,0.0,0.0,0.0,0.0,0.0,0.0,0.0,0.0,0.0,0.0,0.0,0.0,0.0,0.0,0.0,0.0,0.0,0.0,0.0,0.0,-0.3646,-0.3923,-0.4587,-0.4137,-0.3823,-0.3845,-0.3124,-0.2456,-0.1878,-0.2139,0.0,0.0,0.0,0.0,0.0,0.0,0.0,0.0,0.0,0.0,0.0,0.0,0.0,0.0,0.0,0.0,0.0,0.0,0.0,0.0,0.0,0.0,0.0,0.0,0.0,0.0,0.0,0.0,0.0,0.0,0.0,0.0,0.0,0.0,0.0,0.0,0.0,0.0,0.0,0.0,0.0,0.0,0.0,0.0,0.0,0.0,0.0,0.0,0.0,0.0,0.0,0.0,0.0,0.0,0.0,0.0,0.0,0.0,0.0,0.0,0.0,0.0,0.0,0.0,0.0,0.0,0.0,0.0,0.0,0.0,0.0,0.0,0.0,0.0,0.0,0.0,0.0,0.0,0.0,0.0,0.0,0.0,0.0,0.0,0.0,0.0,0.0,0.0,0.0,0.0,0.0,0.0,0.0,0.0,0.0,0.0,0.0,0.0,0.0,0.0,0.0,0.0,-0.373,-0.3975,-0.3486,-0.3638,-0.361,-0.3126,-0.285,-0.232,-0.1406,-0.1954,0.0,0.0,0.0,0.0,0.0,0.0,0.0,0.0,0.0,0.0,0.0,0.0,0.0,0.0,0.0,0.0,0.0,0.0,0.0,0.0,0.0,0.0,0.0,0.0,0.0,0.0,0.0,0.0,0.0,0.0,0.0,0.0,0.0,0.0,0.0,0.0,0.0,0.0,0.0,0.0,0.0,0.0,0.0,0.0,0.0,0.0,0.0,0.0,0.0,0.0,0.0,0.0,0.0,0.0,0.0,0.0,0.0,0.0,0.0,0.0,0.0,0.0,0.0,0.0,0.0,0.0,0.0,0.0,0.0,0.0,0.0,0.0,0.0,0.0,0.0,0.0,0.0,0.0,0.0,0.0,0.0,0.0,0.0,0.0,0.0,0.0,0.0,0.0,0.0,0.0,0.0,0.0,0.0,0.0,0.0,0.0,0.0,0.0,0.0,0.0,0.0,0.0,-0.3194,-0.3221,-0.3388,-0.3239,-0.3045,-0.2812,-0.2734,-0.2125,-0.0771,0.0,0.0,0.0,0.0,0.0,0.0,0.0,0.0,0.0,0.0,0.0,0.0,0.0,0.0,0.0,0.0,0.0,0.0,0.0,0.0,0.0,0.0,0.0,0.0,0.0,0.0,0.0,0.0,0.0,0.0,0.0,0.0,0.0,0.0,0.0,0.0,0.0,0.0,0.0,0.0,0.0,0.0,0.0,0.0,0.0,0.0,0.0,0.0,0.0,0.0,0.0,0.0,0.0,0.0,0.0,0.0,0.0,0.0,0.0,0.0,0.0,0.0,0.0,0.0,0.0,0.0,0.0,0.0,0.0,0.0,0.0,0.0,0.0,0.0,0.0,0.0,0.0,0.0,0.0,0.0,0.0,0.0,0.0,0.0,0.0,0.0,0.0,0.0,0.0,0.0,0.0,0.0,0.0,0.0,0.0,0.0,0.0,0.0,0.0,0.0,0.0,0.0,-0.2919,-0.2544,-0.2489,-0.3091,-0.2863,-0.2593,-0.2286,-0.2536,-0.1993,-0.0303,0.0,0.0,0.0,0.0,0.0,0.0,0.0,0.0,0.0,0.0,0.0,0.0,0.0,0.0,0.0,0.0,0.0,0.0,0.0,0.0,0.0,0.0,0.0,0.0,0.0,0.0,0.0,0.0,0.0,0.0,0.0,0.0,0.0,0.0,0.0,0.0,0.0,0.0,0.0,0.0,0.0,0.0,0.0,0.0,0.0,0.0,0.0,0.0,0.0,0.0,0.0,0.0,0.0,0.0,0.0,0.0,0.0,0.0,0.0,0.0,0.0,0.0,0.0,0.0,0.0,0.0,0.0,0.0,0.0,0.0,0.0,0.0,0.0,0.0,0.0,0.0,0.0,0.0,0.0,0.0,0.0,0.0,0.0,0.0,0.0,0.0,0.0,0.0,0.0,0.0,0.0,0.0,0.0,0.0,0.0,0.0,0.0,0.0,0.0,0.0,0.0,0.0,-0.2032,-0.1869,-0.1927,-0.2344,-0.2576,-0.232,-0.1373,-0.2158,-0.189,0.0,0.0,0.0,0.0,0.0,0.0,0.0,0.0,0.0,0.0,0.0,0.0,0.0,0.0,0.0,0.0,0.0,0.0,0.0,0.0,0.0,0.0,0.0,0.0,0.0,0.0,0.0,0.0,0.0,0.0,0.0,0.0,0.0,0.0,0.0,0.0,0.0,0.0,0.0,0.0,0.0,0.0,0.0,0.0,0.0,0.0,0.0,0.0,0.0,0.0,0.0,0.0,0.0,0.0,0.0,0.0,0.0,0.0,0.0,0.0,0.0,0.0,0.0,0.0,0.0,0.0,0.0,0.0,0.0,0.0,0.0,0.0,0.0,0.0,0.0,0.0,0.0,0.0,0.0,0.0,0.0,0.0,0.0,0.0,0.0,0.0,0.0,0.0,0.0,0.0,0.0,0.0,0.0,0.0,0.0,0.0,0.0,0.0,0.0,0.0,0.0,0.0,0.0,-0.1146,-0.1038,-0.1119,-0.1562,-0.2269,-0.2329,-0.1373,-0.1007,-0.0571,-0.0034,0.0,0.0,0.0,0.0,0.0,0.0,0.0,0.0,0.0,0.0,0.0,0.0,0.0,0.0,0.0,0.0,0.0,0.0,0.0,0.0,0.0,0.0,0.0,0.0,0.0,0.0,0.0,0.0,0.0,0.0,0.0,0.0,0.0,0.0,0.0,0.0,0.0,0.0,0.0,0.0,0.0,0.0,0.0,0.0,0.0,0.0,0.0,0.0,0.0,0.0,0.0,0.0,0.0,0.0,0.0,0.0,0.0,0.0,0.0,0.0,0.0,0.0,0.0,0.0,0.0,0.0,0.0,0.0,0.0,0.0,0.0,0.0,0.0,0.0,0.0,0.0,0.0,0.0,0.0,0.0,0.0,0.0,0.0,0.0,0.0,0.0,0.0,0.0,0.0,0.0,0.0,0.0,0.0,0.0,0.0,0.0,0.0,0.0,0.0,0.0,0.0,0.0,0.0067,-0.0163,-0.0548,-0.11,-0.2091,-0.2365,-0.1575,-0.057,-0.0,-0.0,0.0,0.0,0.0,0.0,0.0,0.0,0.0,0.0,0.0,0.0,0.0,0.0,0.0,0.0,0.0,0.0,0.0,0.0,0.0,0.0,0.0,0.0,0.0,0.0,0.0,0.0,0.0,0.0,0.0,0.0,0.0,0.0,0.0,0.0,0.0,0.0,0.0,0.0,0.0,0.0,0.0,0.0,0.0,0.0,0.0,0.0,0.0,0.0,0.0,0.0,0.0,0.0,0.0,0.0,0.0,0.0,0.0,0.0,0.0,0.0,0.0,0.0,0.0,0.0,0.0,0.0,0.0,0.0,0.0,0.0,0.0,0.0,0.0,0.0,0.0,0.0,0.0,0.0,0.0,0.0,0.0,0.0,0.0,0.0,0.0,0.0,0.0,0.0,0.0,0.0,0.0,0.0,0.0,0.0,0.0,0.0,0.0,0.0,0.0,0.0,0.0,0.0,0.1323,0.0639,-0.0201,-0.0901,-0.2089,-0.2569,-0.1945,-0.0871,-0.0168,-0.0,0.0,0.0,0.0,0.0,0.0,0.0,0.0,0.0,0.0,0.0,0.0,0.0,0.0,0.0,0.0,0.0,0.0,0.0,0.0,0.0,0.0,0.0,0.0,0.0,0.0,0.0,0.0,0.0,0.0,0.0,0.0,0.0,0.0,0.0,0.0,0.0,0.0,0.0,0.0,0.0,0.0,0.0,0.0,0.0,0.0,0.0,0.0,0.0,0.0,0.0,0.0,0.0,0.0,0.0,0.0,0.0,0.0,0.0,0.0,0.0,-0.4925,-0.367,0.0,0.0,0.0,0.0,0.0,0.0,0.0,0.0,0.0,0.0,0.0,0.0,0.0,0.0,0.0,0.0,0.0,0.0,0.0,0.0,0.0,0.0,0.0,0.0,0.0,0.0,0.0,0.0,0.0,0.0,0.0,0.0,0.0,0.0,0.0,0.0,0.0,0.0,0.0,0.0,0.1465,0.1074,0.01,-0.1427,-0.2878,-0.3394,-0.2567,-0.2272,-0.1507,-0.0101,-0.0071,0.0,0.0,0.0,0.0,0.0,0.0,0.0,0.0,0.0,0.0,0.0,0.0,0.0,0.0,0.0,0.0,0.0,0.0,0.0,0.0,0.0,0.0,0.0,0.0,0.0,0.0,0.0,0.0,0.0,0.0,0.0,0.0,0.0,0.0,0.0,0.0,0.0,0.0,0.0,0.0,0.0,0.0,0.0,0.0,0.0,0.0,0.0,0.0,0.0,0.0,0.0,0.0,0.0,0.0,0.0,0.0,0.0,0.0,0.0,-0.5289,-0.4443,0.0,0.0,0.0,0.0,0.0,0.0,0.0,0.0,0.0,0.0,0.0,0.0,0.0,0.0,0.0,0.0,0.0,0.0,0.0,0.0,0.0,0.0,0.0,0.0,0.0,0.0,0.0,0.0,0.0,0.0,0.0,0.0,0.0,0.0,0.0,0.0,0.0,0.0,0.0,0.0,-0.0035,-0.0768,-0.1659,-0.2655,-0.4327,-0.4858,-0.3676,-0.3033,-0.209,-0.0703,-0.0918,0.0,0.0,0.0,0.0,0.0,0.0,0.0,0.0,0.0,0.0,0.0,0.0,0.0,0.0,0.0,0.0,0.0,0.0,0.0,0.0,0.0,0.0,0.0,0.0,0.0,0.0,0.0,0.0,0.0,0.0,0.0,0.0,0.0,0.0,0.0,0.0,0.0,0.0,0.0,0.0,0.0,0.0,0.0,0.0,0.0,0.0,0.0,0.0,0.0,0.0,0.0,0.0,0.0,-0.5791,-0.5963,-0.6184,-0.7244,-0.7192,-0.6271,-0.5307,-0.5069,-0.5311,-0.3906,0.0,0.0,0.0,0.0,0.0,0.0,0.0,0.0,0.0,0.0,0.0,0.0,0.0,0.0,0.0,0.0,0.0,0.0,0.0,0.0,0.0,0.0,-0.3686,-0.4236,-0.4709,-0.4952,-0.4595,0.0,0.0,0.0,0.0,0.0,0.0,0.0,0.0,0.0,0.0,0.0,-0.2162,-0.3241,-0.3997,-0.4322,-0.5883,-0.6334,-0.4934,-0.3597,-0.2463,-0.1603,-0.1978,-0.2683,0.0,0.0,0.0,0.0,0.0,0.0,0.0,0.0,0.0,0.0,0.0,0.0,0.0,0.0,0.0,0.0,0.0,0.0,0.0,0.0,0.0,0.0,0.0,0.0,0.0,0.0,0.0,0.0,0.0,0.0,0.0,0.0,-0.1601,-0.1224,0.0,0.0,0.0,0.0,0.0,0.0,0.0,0.0,0.0,0.0,0.0,0.0,0.0,-0.4299,-0.5318,-0.5253,-0.5469,-0.6035,-0.6635,-0.6886,-0.6797,-0.7198,-0.7286,-0.7069,-0.6341,0.0,-0.4707,-0.4079,0.0,0.0,0.0,0.0,0.0,0.0,0.0,0.0,0.0,0.0,0.0,0.0,0.0,0.0,0.0,0.0,0.0,0.0,0.0,0.0,0.0,0.0,-0.5217,-0.604,-0.6112,-0.6042,-0.6096,-0.5139,-0.4249,-0.4157,-0.3846,-0.3556,0.0,0.0,0.0,0.0,0.0,0.0,-0.4146,-0.4795,-0.5427,-0.6394,-0.6932,-0.6913,-0.6121,-0.4419,-0.3139,-0.2563,-0.2113,-0.2834,-0.4983,-0.4709,0.0,0.0,0.0,0.0,0.0,0.0,0.0,0.0,0.0,0.0,0.0,0.0,0.0,0.0,0.0,0.0,0.0,0.0,0.0,0.0,0.0,0.0,0.0,0.0,0.0,0.0,0.0,0.0,0.0,-0.037,-0.0996,-0.095,-0.0903,-0.0571,0.0,0.0,0.0,0.0,0.0,0.0,0.0,0.0,0.0,-0.4534,-0.4636,-0.5213,-0.6342,-0.6453,-0.6727,-0.7183,-0.7443,-0.7658,-0.7775,-0.7873,-0.7588,-0.7086,-0.6651,-0.5864,-0.482,-0.4435,-0.3751,-0.3011,0.0,0.0,0.0,0.0,-0.4131,-0.4498,-0.6387,-0.6034,-0.4953,-0.5707,0.0,0.0,0.0,0.0,0.0,0.0,0.0,-0.3567,-0.4487,-0.5353,-0.6113,-0.6597,-0.6637,-0.6447,-0.6128,-0.5564,-0.5009,-0.4595,-0.4158,-0.3762,-0.3463,-0.3304,0.0,0.0,0.0,-0.1722,-0.4636,-0.5904,-0.7199,-0.8895,-0.9153,-0.8648,-0.7269,-0.5665,-0.4145,-0.279,-0.2536,-0.3272,-0.5225,-0.5148,-0.5131,0.0,0.0,0.0,0.0,0.0,0.0,0.0,0.0,0.0,0.0,0.0,0.0,0.0,0.0,0.0,0.0,0.0,0.0,0.0,0.0,0.0,0.0,0.0,0.0,0.0,0.0,0.0,0.0,-0.0658,-0.107,-0.1545,-0.162,-0.1286,0.0,0.0,0.0,0.0,0.0,0.0,-0.3192,-0.3674,-0.4241,-0.4939,-0.5225,-0.5998,-0.735,-0.7166,-0.727,-0.7761,-0.755,-0.759,-0.778,-0.778,-0.7349,-0.6658,-0.6555,-0.5958,-0.5155,-0.4714,-0.4371,-0.4098,-0.3681,-0.4133,-0.5067,-0.5654,-0.5576,-0.5489,-0.7101,-0.6777,-0.575,-0.6518,-0.6645,-0.6318,-0.4934,0.0,0.0,0.0,0.0,-0.4849,-0.548,-0.6093,-0.6653,-0.6867,-0.6735,-0.6363,-0.574,-0.556,-0.5383,-0.5052,-0.4629,-0.4119,-0.3536,-0.3492,0.0,-0.1163,0.0037,-0.0912,-0.5357,-0.6671,-0.8352,-1.1408,-1.1254,-1.0187,-0.8301,-0.6637,-0.494,-0.3159,-0.2961,-0.3602,-0.5148,-0.5533,-0.6319,-0.7617,0.0,0.0,0.0,0.0,0.0,0.0,0.0,0.0,0.0,0.0,0.0,0.0,0.0,0.0,0.0,0.0,0.0,0.0,0.0,0.0,0.0,0.0,0.0,0.0,0.0,0.0,0.0,0.0,0.0,-0.3943,-0.357,0.0,0.0,0.0,0.0,-0.2053,-0.2972,-0.3597,-0.3766,-0.4569,-0.541,-0.6286,-0.5805,-0.6367,-0.7913,-0.6608,-0.6279,-0.7137,-0.6286,-0.6013,-0.6091,-0.6091,-0.6088,-0.6074,-0.5916,-0.5686,-0.538,-0.4867,-0.4758,-0.4917,-0.5566,-0.5779,-0.5823,-0.6361,-0.636,-0.6171,-0.6278,-0.6222,-0.6206,-0.6488,-0.6284,-0.5783,-0.4774,-0.447,0.0,0.0,-0.5385,-0.663,-0.6395,-0.6569,-0.6844,-0.7209,-0.6525,-0.5726,-0.5217,-0.4809,-0.4788,-0.561,-0.5269,-0.4824,-0.4743,0.0,-0.2973,0.0291,0.1864,0.0097,-0.7027,-0.7031,-0.8379,-1.3649,-1.2613,-1.0902,-0.9264,-0.7008,-0.5208,-0.4009,-0.3352,-0.3565,-0.4861,-0.6759,-0.7723,-0.7699,-0.9447,0.0,0.0,0.0,0.0,0.0,0.0,0.0,0.0,0.0,0.0,0.0,0.0,0.0,0.0,0.0,0.0,0.0,0.0,0.0,0.0,0.0,0.0,0.0,0.0,0.0,0.0,0.0,0.0,-0.3792,-0.3819,0.0,-0.3677,-0.349,-0.3394,-0.3525,-0.4377,-0.497,-0.5193,-0.5537,-0.5892,-0.6435,-0.619,-0.641,-0.7142,-0.6467,-0.6294,-0.6692,-0.6384,-0.6213,-0.6179,-0.6271,-0.621,-0.602,-0.5867,-0.5691,-0.5488,-0.523,-0.504,-0.4914,-0.521,-0.5541,-0.5931,-0.6028,-0.63,-0.6648,-0.6513,-0.6139,-0.5721,-0.5366,-0.514,-0.4934,-0.4606,-0.452,-0.4481,-0.4421,-0.5479,-0.655,-0.5965,-0.6608,-0.7149,-0.6332,-0.5866,-0.5466,-0.485,-0.4602,-0.4616,-0.4877,-0.4499,-0.4115,-0.4059,-0.3869,-0.2637,0.0708,0.5632,0.6019,-0.2152,-0.3404,-0.5579,-1.0932,-1.1553,-1.0897,-0.9223,-0.7444,-0.5326,-0.2754,-0.2143,-0.2585,-0.4116,-0.6442,-0.844,-1.0047,-1.2165,-1.2173,0.0,0.0,0.0,0.0,0.0,0.0,0.0,0.0,0.0,0.0,0.0,0.0,0.0,0.0,0.0,0.0,0.0,0.0,0.0,0.0,0.0,0.0,0.0,0.0,0.0,-0.3017,-0.3917,-0.4358,-0.4584,-0.4622,-0.4558,-0.4663,-0.481,-0.4944,-0.5542,-0.5945,-0.624,-0.6207,-0.6291,-0.6539,-0.6458,-0.6478,-0.662,-0.6481,-0.643,-0.6471,-0.6471,-0.6424,-0.6332,-0.638,-0.6295,-0.6095,-0.5891,-0.5749,-0.5647,-0.5443,-0.5247,-0.5067,-0.5373,-0.5585,-0.5705,-0.5943,-0.6052,-0.6142,-0.5949,-0.555,-0.5109,-0.4625,-0.4519,-0.4519,-0.4519,-0.4519,-0.4519,-0.4519,-0.55,-0.6421,-0.5706,-0.6411,-0.7015,-0.5814,-0.5324,-0.5058,-0.457,-0.4519,-0.4519,-0.4519,-0.4194,-0.3917,-0.3834,-0.3405,-0.2294,0.0087,0.7431,0.9629,0.113,0.0425,-0.1185,-0.6133,-0.7645,-0.7612,-0.5898,-0.5057,-0.3693,-0.1526,-0.1306,-0.2109,-0.3983,-0.6069,-0.8263,-1.0652,-1.324,-1.3765,-1.2169,0.0,0.0,0.0,0.0,0.0,0.0,0.0,0.0,0.0,0.0,0.0,0.0,0.0,0.0,0.0,0.0,0.0,0.0,0.0,0.0,0.0,0.0,0.0,-0.3597,-0.3848,-0.464,-0.5877,-0.5878,-0.583,-0.583,-0.5962,-0.6115,-0.6278,-0.6288,-0.6417,-0.6712,-0.6583,-0.6569,-0.6715,-0.6712,-0.6637,-0.6495,-0.663,-0.6627,-0.6478,-0.6478,-0.6474,-0.6461,-0.6329,-0.6264,-0.6237,-0.5935,-0.58,-0.5772,-0.5481,-0.5428,-0.5491,-0.633,-0.6036,-0.5198,-0.6073,-0.567,-0.467,-0.457,-0.4519,-0.4519,-0.4519,-0.4519,-0.4519,-0.4519,-0.4519,-0.4519,-0.4519,-0.55,-0.6421,-0.5651,-0.6036,-0.6367,-0.5651,-0.4948,-0.4519,-0.4519,-0.4519,-0.4519,-0.4519,-0.4519,-0.4423,-0.4234,-0.31,-0.1985,-0.1372,0.6884,0.0,0.233,0.4137,0.4514,0.028,-0.1104,-0.1091,0.0505,0.0117,-0.0242,-0.0416,-0.0964,-0.2277,-0.4527,-0.5848,-0.7494,-0.9544,-1.2579,-1.4673,-1.5749,0.0,0.0,0.0,0.0,0.0,0.0,0.0,0.0,0.0,0.0,0.0,0.0,0.0,0.0,0.0,0.0,0.0,0.0,0.0,0.0,0.0,-0.4022,-0.5806,-0.535,-0.5537,-0.5854,-0.6311,-0.6417,-0.6454,-0.6454,-0.6491,-0.6624,-0.6878,-0.6898,-0.7031,-0.7336,-0.7207,-0.7143,-0.7187,-0.698,-0.6895,-0.6956,-0.6787,-0.6678,-0.6637,-0.6637,-0.6525,-0.6322,-0.6383,-0.6298,-0.6084,-0.5884,-0.5742,-0.5633,-0.544,-0.5428,-0.5428,-0.5686,-0.5595,-0.5349,-0.5424,-0.5125,-0.467,-0.457,-0.4519,-0.4519,-0.4519,-0.4519,-0.4519,-0.4519,-0.4519,-0.4519,-0.4519,-0.5113,-0.5655,-0.4948,-0.5273,-0.5655,-0.4948,-0.4625,-0.4519,-0.4519,-0.4519,-0.4519,-0.4519,-0.4519,-0.4477,-0.44,-0.3164,-0.1478,0.0617,0.5965,0.8949,0.6554,0.7975,0.7507,0.3132,0.0995,0.0307,0.1392,0.194,0.2679,0.377,-0.0349,-0.3567,-0.5246,-0.945,-1.3015,-1.5787,-1.5552,-1.5817,0.0,0.0,0.0,0.0,0.0,0.0,0.0,0.0,0.0,0.0,0.0,0.0,0.0,0.0,0.0,0.0,0.0,0.0,0.0,0.0,0.0,0.0,-0.4544,-0.6596,-0.6349,-0.6393,-0.6546,-0.6817,-0.6926,-0.7007,-0.7071,-0.7078,-0.7173,-0.7404,-0.7366,-0.7438,-0.7675,-0.7546,-0.7438,-0.7373,-0.7204,-0.7092,-0.7051,-0.6881,-0.6763,-0.6702,-0.6634,-0.6515,-0.6349,-0.6373,-0.6254,-0.602,-0.5867,-0.5722,-0.5579,-0.5423,-0.5428,-0.5428,0.0,0.0,0.0,0.0,-0.4938,-0.4831,-0.467,-0.4573,-0.4536,-0.4538,-0.457,-0.4519,-0.4519,-0.4519,-0.4519,-0.4519,-0.5056,-0.5481,-0.4695,-0.5056,-0.5421,-0.4695,-0.4519,-0.4519,-0.4519,-0.4519,-0.4519,-0.4519,-0.4519,0.0,-0.448,-0.3215,-0.1459,0.0698,0.4919,0.8357,0.9812,1.1708,1.2226,1.0409,0.8527,0.7597,0.8045,0.6991,0.0,0.0,0.0,-0.4798,-0.811,-1.2095,0.0,0.0,0.0,-1.6964,-1.8687,-1.6821,0.0,0.0,-1.4601,-1.3696,0.0,0.0,0.0,0.0,0.0,0.0,0.0,0.0,0.0,0.0,0.0,0.0,0.0,0.0,0.0,0.0,-0.4631,-0.7158,-0.6933,-0.6827,-0.697,-0.7353,-0.7397,-0.7451,-0.7587,-0.76,-0.7658,-0.7801,-0.7695,-0.7685,-0.7828,-0.7702,0.0,0.0,0.0,-0.7238,-0.6956,-0.6953,-0.6868,-0.6698,-0.6563,-0.6481,-0.6444,-0.6318,-0.6176,-0.602,-0.5867,-0.5722,-0.5579,-0.5423,-0.5428,-0.5428,-0.5428,-0.5428,-0.5394,-0.5047,-0.5003,-0.5043,-0.4831,0.0,0.0,-0.467,-0.4626,-0.4567,-0.4549,-0.4543,-0.4539,-0.4522,-0.5061,-0.5478,-0.4716,-0.5061,-0.5474,-0.4657,-0.4519,-0.4519,-0.4519,-0.4519,-0.4519,-0.4519,-0.4519,-0.4522,-0.4477,-0.3212,-0.1703,-0.0266,0.3634,0.7763,1.1597,1.4588,1.6974,1.8581,1.7705,0.0,1.6646,1.259,0.8522,0.4873,-0.1377,-0.7255,-1.2438,-1.4454,-1.6142,-1.7618,-1.7213,-1.8318,-2.0991,-2.012,-1.969,-1.9579,-1.5694,-1.4488,0.0,0.0,0.0,0.0,0.0,0.0,0.0,0.0,0.0,0.0,0.0,0.0,0.0,0.0,0.0,0.047,-0.2779,-0.5679,-0.7269,-0.755,-0.7587,-0.756,-0.7556,-0.7567,-0.7597,-0.76,-0.7658,-0.7801,-0.7787,-0.7834,-0.7987,-0.7851,-0.7702,-0.756,-0.7438,-0.7285,-0.7102,-0.7099,-0.6963,-0.6702,-0.6671,0.0,-0.6302,-0.6352,-0.6176,-0.602,-0.5867,-0.5722,-0.5579,-0.5423,-0.5428,-0.5428,-0.5428,-0.5428,-0.5342,-0.5159,-0.5088,-0.5057,-0.4837,-0.4852,-0.4988,-0.484,-0.48,-0.4809,-0.4684,-0.4646,0.0,-0.4553,-0.4646,-0.472,-0.4525,-0.465,-0.472,-0.4525,-0.4519,-0.4519,-0.4519,-0.4519,-0.4519,-0.4519,-0.4519,-0.4522,-0.4477,-0.3222,-0.1751,-0.0533,0.1618,0.4702,0.9101,1.3421,1.6233,1.6647,1.6805,1.6572,1.5689,1.0146,0.5506,0.2671,-0.8898,-1.612,-1.7267,-1.8691,-1.9783,-2.0417,-2.024,-2.043,-2.0991,-2.012,-1.966,-1.9585,-1.8381,-1.8138,0.0,0.0,0.0,0.0,0.0,0.0,0.0,0.0,0.0,0.0,0.0,0.221,0.2481,0.0,0.0724,-0.305,-0.4012,-0.5122,-0.7517,-0.7841,-0.7899,-0.7828,-0.7821,-0.7821,-0.7821,-0.7821,-0.7848,-0.7919,-0.7926,-0.796,-0.8035,-0.7967,-0.7824,-0.7607,-0.7526,-0.7373,-0.7143,-0.7068,-0.6922,-0.6698,-0.6624,-0.6471,-0.6338,-0.6338,-0.6176,-0.6027,-0.5949,-0.5833,-0.5691,-0.5623,-0.5589,-0.5583,-0.5593,-0.5501,-0.5418,-0.5281,-0.5236,-0.5106,-0.3899,-0.3656,-0.4045,-0.485,-0.4992,-0.4961,-0.5351,-0.5385,-0.5374,-0.5887,-0.5661,-0.5239,-0.5265,-0.4969,-0.4653,-0.4556,-0.4519,-0.4519,-0.4519,-0.4519,-0.4519,-0.4519,-0.4519,-0.4519,-0.4525,-0.3855,-0.2885,-0.1526,0.0878,0.3847,0.7455,1.0683,1.3614,1.6133,1.4719,1.3257,1.2423,0.3929,-0.2808,-0.6258,-1.4493,-1.945,-2.0086,-2.0976,-2.1552,-2.1752,-2.1447,-2.1306,-2.1306,-2.0665,-2.0314,-2.0283,-2.0043,-1.9924,0.0,0.0,0.0,0.0,0.0,0.0,0.0,0.2377,0.1662,0.0984,0.1016,0.1288,0.1721,0.1784,-0.0,-0.5524,-0.546,-0.5541,-0.7656,-0.7955,-0.8038,-0.8038,-0.8038,-0.8038,-0.8038,-0.8038,-0.8038,-0.8038,-0.8038,-0.8038,-0.8038,-0.8011,-0.7875,-0.7607,-0.76,-0.7451,-0.7143,-0.7058,-0.6926,-0.6742,-0.659,-0.6441,-0.6302,-0.6302,-0.6217,-0.6071,-0.604,-0.5942,-0.5803,-0.5751,-0.5748,-0.5806,-0.5785,-0.5701,-0.5443,-0.543,-0.5196,-0.4666,-0.3283,-0.2742,-0.2981,-0.4823,-0.533,-0.5363,-0.605,-0.6228,-0.6307,-0.7022,-0.6768,-0.6194,-0.586,-0.5443,-0.4998,-0.4659,-0.4563,-0.4525,-0.4556,-0.4539,-0.4519,-0.4519,-0.4519,-0.4519,-0.4519,-0.4525,-0.4079,-0.2845,0.0054,0.2943,0.5444,0.7178,0.9676,1.3659,1.0966,0.7972,0.5799,-0.3678,-1.1368,-1.5773,-1.8639,-2.0643,-2.177,-2.2118,-2.231,-2.231,-2.1823,-2.1582,-2.1582,-2.1181,-2.1023,-2.1134,-2.1134,-2.0894,0.3842,0.3503,0.297,0.1748,0.1269,0.1018,0.0,0.1957,0.2727,0.0588,0.0173,0.0176,0.0266,0.0275,-0.0,-0.078,-0.4668,-0.7662,-0.7985,-0.7959,-0.8038,-0.8038,-0.8038,-0.8038,-0.8038,-0.8038,-0.8038,-0.8038,-0.8038,-0.8038,-0.8038,-0.7913,-0.7763,-0.7604,-0.76,-0.7451,-0.7143,-0.7261,-0.718,-0.6902,-0.6749,-0.6597,-0.6451,-0.6451,-0.6369,-0.6227,-0.6091,-0.5942,-0.5803,-0.5892,-0.5888,-0.5817,-0.6117,-0.6061,-0.5739,-0.5696,-0.4518,-0.3199,-0.4535,-0.3991,-0.3013,-0.4817,-0.5902,-0.65,-0.6404,-0.6892,-0.7323,-0.656,-0.6823,-0.7002,-0.5434,-0.5451,-0.5727,-0.5023,-0.466,-0.4556,-0.4636,-0.4558,-0.4519,-0.4519,-0.4519,-0.4519,-0.4519,-0.4519,-0.4467,-0.4252,-0.238,-0.0268,0.1751,0.3201,0.4268,0.4729,0.4155,0.0572,-0.725,-1.1064,-1.5202,-2.0261,-2.1108,-2.1738,-2.2556,-2.2398,-2.231,-2.231,-2.1823,-2.1582,-2.1582,-2.1181,-2.1181,-2.1521,-2.1521,-2.1491,0.5029,0.4384,0.3303,0.1119,0.0539,0.0396,0.0086,0.078,0.1223,0.0182,-0.0,-0.0,-0.0,-0.0,-0.0,-0.0,-0.1901,-0.4429,-0.7578,-0.8007,-0.8017,-0.8025,-0.7901,-0.7858,-0.8024,-0.8038,-0.8038,-0.8038,-0.8038,-0.8038,-0.8038,-0.7977,-0.7875,-0.7729,-0.7723,-0.7577,-0.7278,-0.7339,-0.7224,-0.6929,-0.6865,-0.6753,-0.6603,-0.6512,-0.6393,-0.6257,-0.6193,-0.6129,-0.6071,-0.616,-0.6156,-0.6078,-0.6232,-0.6211,-0.6054,-0.6065,-0.4844,-0.3283,-0.3708,-0.4105,-0.4579,-0.5215,-0.6075,-0.6936,-0.7386,-0.7953,-0.8337,-0.8276,-0.8251,-0.7973,-0.6814,-0.6393,-0.6151,-0.5755,-0.5169,-0.4721,-0.4697,-0.464,-0.4568,-0.4536,-0.4519,-0.4519,-0.4519,-0.4519,-0.4519,-0.4525,-0.3793,-0.2804,-0.1484,-0.1596,-0.284,-0.5559,-0.9261,-1.2924,-1.639,-1.8146,-2.0014,-2.2265,-2.2482,-2.2509,-2.2473,-2.2377,-2.231,-2.231,-2.2106,-2.2003,-2.2003,-2.184,-2.184,-2.2003,-2.2003,-2.2003,0.5738,0.517,0.4047,0.2012,0.0764,-0.0,-0.0,-0.0,-0.0,-0.0,-0.0,-0.0,-0.0,-0.0,-0.0,-0.0,-0.0,-0.1307,-0.5238,-0.6457,-0.6943,-0.713,-0.707,-0.7206,-0.7801,-0.7953,-0.7994,-0.8035,-0.8038,-0.8038,-0.8038,-0.7997,-0.7909,-0.7756,-0.7753,-0.7611,-0.7312,-0.735,-0.7241,-0.6987,-0.6949,-0.6871,-0.6756,-0.6563,-0.6437,-0.6376,-0.6295,-0.6338,-0.6338,-0.6271,-0.6268,-0.6338,-0.6271,-0.6268,-0.6325,-0.6301,-0.5491,-0.4262,-0.3804,-0.4588,-0.5773,-0.587,-0.6609,-0.7564,-0.8586,-0.9151,-0.9518,-0.9443,-0.9277,-0.8775,-0.7437,-0.6812,-0.6426,-0.6042,-0.5398,-0.4901,-0.4826,-0.4782,-0.4721,-0.4609,-0.4555,-0.458,-0.458,-0.4546,-0.4519,-0.4519,-0.4632,-0.4611,-0.428,-0.6489,-0.9638,-1.3816,-1.9014,-2.2185,-2.225,-2.288,-2.3282,-2.328,-2.3147,-2.2832,-2.2338,-2.231,-2.231,-2.231,-2.231,-2.231,-2.231,-2.231,-2.231,-2.231,-2.231,-2.231,0.5456,0.5541,0.5637,0.5216,0.2519,-0.0,-0.0,-0.0,-0.0,-0.0,-0.0,-0.0,-0.0,-0.0,-0.0,-0.0,-0.0,-0.0101,-0.0201,-0.2472,-0.4397,-0.507,-0.5174,-0.5782,-0.7422,-0.7736,-0.7879,-0.8028,-0.8038,-0.8038,-0.8038,-0.7899,-0.7753,-0.7611,-0.7607,-0.7458,-0.7149,-0.7295,-0.7292,-0.7132,-0.6993,-0.6926,-0.6912,-0.661,-0.6552,-0.6671,-0.6386,-0.6338,-0.6338,-0.6338,-0.6338,-0.6338,-0.6338,-0.6338,-0.6338,-0.6331,-0.6239,-0.6165,-0.6009,-0.5957,-0.6097,-0.6986,-0.7831,-0.8754,-0.9736,-1.0635,-1.0972,-0.9168,-0.9232,-0.9231,-0.6364,-0.6194,-0.6449,-0.5609,-0.5128,-0.4955,-0.5087,-0.5009,-0.4911,-0.4908,-0.4785,-0.4684,-0.4684,-0.4562,-0.4519,-0.4519,-0.5058,-0.5697,-0.6431,-1.1181,-1.5681,-1.8657,-2.1319,-2.3297,-2.4316,-2.4137,-2.3836,-2.3515,-2.2999,-2.2573,-2.231,-2.231,-2.231,-2.231,-2.231,-2.231,-2.231,-2.231,-2.231,-2.231,-2.231,-2.231,0.6081,0.502,0.4379,0.5623,0.2992,-0.0,-0.0,-0.0,-0.0,-0.0,0.1568,0.2673,0.2195,0.0943,-0.0,-0.0,-0.0,-0.0,-0.0,-0.0787,-0.2608,-0.6051,-0.6423,-0.6688,-0.7423,-0.7712,-0.7831,-0.7885,-0.798,-0.8038,-0.8038,-0.7991,-0.7892,-0.7743,-0.774,-0.7597,-0.7295,-0.7346,-0.7292,-0.7139,-0.7021,-0.695,-0.685,-0.6851,-0.6725,-0.641,-0.6304,-0.6284,-0.6271,-0.6264,-0.6338,-0.6338,-0.6338,-0.6338,-0.6338,-0.6338,-0.6307,-0.6246,-0.6088,-0.6471,-0.7029,-0.7254,-0.8431,-0.9845,-1.0284,-1.088,-1.1043,-0.9378,-0.9373,-0.9372,-0.7144,-0.6802,-0.6863,-0.6471,-0.5896,-0.5321,-0.5165,-0.5094,-0.5033,-0.4938,-0.4796,-0.4721,-0.4823,-0.4629,-0.4948,-0.6333,-0.7142,-0.8268,-1.0188,-1.4045,-1.752,-1.9955,-2.1731,-2.3005,-2.3599,-2.3289,-2.2928,-2.2599,-2.239,-2.2141,-2.1853,-2.2135,-2.231,-2.231,-2.231,-2.231,-2.231,-2.231,-2.231,-2.2282,-2.1974,-2.184,0.636,0.5303,0.4254,0.4053,0.1965,-0.0,-0.0,-0.0,-0.0,-0.0,0.2306,0.4073,0.3305,0.2057,0.088,0.0089,-0.0,-0.0,-0.0,-0.1624,-0.3595,-0.5773,-0.6811,-0.7356,-0.7434,-0.7715,-0.779,-0.774,-0.7923,-0.8014,-0.796,-0.8011,-0.7946,-0.7743,-0.7736,-0.759,-0.7292,-0.7295,-0.7255,-0.7071,-0.7084,-0.6587,-0.5692,-0.5795,-0.567,-0.5344,-0.5491,-0.5801,-0.6278,-0.6268,-0.6338,-0.6338,-0.6338,-0.6338,-0.6338,-0.6338,-0.6338,-0.6247,-0.6146,-0.6783,-0.765,-0.7892,-0.9171,-1.0615,-1.1064,-1.1234,-1.0907,-0.9552,-0.9192,-0.8769,-0.7122,-0.6701,-0.6608,-0.6437,-0.5953,-0.546,-0.526,-0.5223,-0.5199,-0.5101,-0.5023,-0.4948,-0.4979,-0.4745,-0.529,-0.7298,-0.8559,-1.0311,-1.3099,-1.6008,-1.8672,-2.0766,-2.2012,-2.278,-2.2986,-2.2634,-2.2319,-2.2107,-2.1984,-2.1919,-2.1853,-2.2135,-2.231,-2.231,-2.231,-2.231,-2.231,-2.231,-2.2209,-2.2032,-2.1718,-2.1521,0.6376,0.6429,0.5324,0.1101,-0.0,-0.0,-0.0,-0.0,-0.0,-0.0,0.2276,0.403,0.3406,0.328,0.2516,0.0504,0.0084,-0.0,-0.0,-0.4578,-0.7047,-0.4467,-0.6255,-0.7715,-0.76,-0.7729,-0.7753,-0.7611,-0.7872,-0.7977,-0.7831,-0.796,-0.7902,-0.7607,-0.76,-0.7455,-0.7146,-0.6982,-0.691,-0.692,-0.7012,-0.5916,-0.3746,-0.3509,-0.3524,-0.3764,-0.3991,-0.4929,-0.6278,-0.6268,-0.6338,-0.6338,-0.6338,-0.6338,-0.6338,-0.6338,-0.6338,-0.6338,-0.6338,-0.7022,-0.8008,-0.9069,-1.0045,-1.1087,-1.1996,-1.162,-1.0559,-0.9583,-0.8523,-0.7499,-0.6289,-0.5922,-0.5779,-0.5644,-0.5504,-0.5399,-0.5393,-0.5322,-0.5256,-0.5246,-0.5329,-0.535,-0.5125,-0.4955,-0.5445,-0.7396,-0.9307,-1.1711,-1.4894,-1.7169,-1.9276,-2.1252,-2.2163,-2.2609,-2.2591,-2.2228,-2.204,-2.2068,-2.1774,-2.1764,-2.2237,-2.2282,-2.231,-2.231,-2.231,-2.231,-2.231,-2.2282,-2.2032,-2.1582,-2.1552,-2.1337,0.5922,0.6924,0.6307,0.1309,-0.0,-0.0,-0.0,-0.0,-0.0,-0.0,0.1434,0.2925,0.3852,0.3796,0.3399,0.251,0.1065,-0.0,-0.0,-0.459,-0.7751,-0.704,0.0,-0.764,-0.7611,-0.7729,-0.7753,-0.7611,-0.7872,-0.8021,-0.7984,-0.8018,-0.7902,-0.7607,-0.7611,-0.7468,-0.7081,-0.5361,-0.4467,-0.4469,-0.6296,-0.6761,-0.6114,-0.253,-0.2646,-0.5555,-0.4068,-0.4451,-0.6278,-0.6268,-0.6338,-0.6338,-0.6338,-0.6338,-0.6338,-0.6338,-0.6338,-0.6412,-0.7176,-0.8089,-0.9069,-1.0115,-1.1093,-1.1996,-1.2224,-1.162,-1.0593,-0.9458,-0.8379,-0.7335,-0.6261,-0.6,-0.5962,-0.5925,-0.5885,-0.5821,-0.5645,-0.4428,-0.3418,-0.3416,-0.4475,-0.5329,-0.5154,-0.5759,-0.6801,-0.8325,-1.0329,-1.253,-1.4996,-1.7316,-1.9343,-2.0975,-2.1305,-2.1685,-2.2309,-2.1364,-2.1022,-2.1685,-2.1368,-2.1337,-2.1764,-2.2106,-2.231,-2.231,-2.231,-2.231,-2.231,-2.1957,-2.1718,-2.1582,-2.0927,-2.04,0.3244,0.4028,0.3777,0.0708,-0.0,0.03,0.1356,0.1726,0.1697,0.1068,0.2073,0.3283,0.3982,0.3547,0.3107,0.3153,0.143,-0.0,-0.0,-0.2593,-0.5361,0.0,-0.7916,-0.7818,-0.7824,-0.7889,-0.7899,-0.7821,-0.7953,-0.8011,-0.7943,-0.8004,-0.7933,-0.7699,-0.7709,-0.7486,-0.7118,-0.5808,-0.4082,-0.2057,-0.3346,-0.3955,-0.3986,-0.3177,-0.4038,-0.6245,-0.5012,-0.5154,-0.6278,-0.6268,-0.6338,-0.6338,-0.6338,-0.6338,-0.6338,-0.6338,-0.6338,-0.6412,-0.748,-0.8161,-0.8841,-0.9814,-1.0795,-1.1545,-1.1099,-1.0571,-0.9938,-0.8846,-0.7707,-0.6708,-0.6263,-0.603,-0.5945,-0.602,-0.5935,-0.5813,-0.5593,-0.3447,-0.1523,-0.1503,-0.2973,-0.424,-0.4427,-0.5845,-0.7384,-0.8713,-1.068,-1.292,-1.5417,-1.7687,-1.9551,-2.0846,-2.115,-2.1385,-2.1691,-2.0846,-2.0501,-2.0991,-2.0813,-2.0878,-2.1306,-2.1584,-2.1811,-2.2003,-2.1811,-2.1811,-2.2003,-2.1538,-2.1228,-2.0991,-2.0317,-1.9728,-0.0,-0.0,-0.0,-0.0,-0.0,0.0691,0.3122,0.4004,0.3833,0.2648,0.3368,0.4168,0.3937,0.2924,0.2277,0.2729,0.0,-0.0,-0.0,-0.0,-0.1708,-0.6339,-0.7281,-0.7475,-0.7475,-0.7475,-0.7475,-0.7475,-0.745,-0.7582,-0.7851,-0.7974,-0.7967,-0.7801,-0.7697,-0.719,-0.6207,-0.6166,-0.4062,-0.0,-0.0604,-0.0854,-0.0956,-0.4329,-0.6053,-0.6293,-0.6277,-0.6278,-0.6274,-0.6264,-0.6338,-0.6338,-0.6338,-0.6338,-0.6338,-0.6338,-0.6338,-0.6412,-0.748,-0.7706,-0.7783,-0.8917,-0.9895,-1.0415,-0.9593,-0.9221,-0.8912,-0.7977,-0.6878,-0.6061,-0.6196,-0.6034,-0.5874,-0.6037,-0.5751,-0.5438,-0.5523,-0.2625,-0.0,-0.0,-0.1639,-0.3123,-0.343,-0.5605,-0.768,-0.8764,-1.0804,-1.3155,-1.5862,-1.8012,-1.9747,-2.0878,-2.1306,-2.1399,-2.1086,-2.0583,-2.0314,-2.0382,-2.0382,-2.0583,-2.0991,-2.1055,-2.1213,-2.1521,-2.1181,-2.1181,-2.1521,-2.1118,-2.0665,-2.0212,-1.9728,-1.9185,-0.0,-0.0,-0.0,-0.0,-0.0,0.078,0.3544,0.3912,0.0,0.3901,0.4027,0.4184,0.4182,0.3079,0.1773,0.0712,0.0249,-0.0,-0.0,-0.0,-0.0391,0.0,-0.3316,-0.4722,-0.4722,-0.4722,-0.4722,-0.4722,-0.472,-0.562,-0.7829,-0.7952,-0.796,-0.8009,-0.7493,-0.5284,-0.1265,-0.1256,-0.0806,-0.0,-0.3505,-0.5211,-0.5135,-0.4146,-0.4625,-0.6341,-0.6267,-0.6274,-0.6264,-0.6338,-0.6338,-0.6338,-0.6338,-0.6338,-0.6338,-0.6338,-0.6338,-0.6412,-0.748,-0.7253,-0.6872,-0.8694,-0.9448,-0.9518,-0.9372,-0.8689,-0.7977,-0.7663,-0.6786,-0.6034,-0.6064,-0.603,-0.603,-0.6196,-0.4893,-0.4059,-0.5751,-0.2916,-0.0,-0.0,-0.2674,-0.4506,-0.3127,-0.6025,-0.8611,-0.8984,-1.1467,-1.3821,-1.5443,-1.7531,-1.9439,-2.0846,-2.1055,-2.1213,-2.146,-2.0765,-2.0483,-2.0862,-2.0862,-2.0926,-2.0991,-2.1306,-2.1368,-2.1118,-2.1039,-2.1023,-2.1086,-2.0649,-2.0196,-1.9728,-1.9236,-1.826,-0.0,-0.0,-0.0,-0.0,-0.0,0.0575,0.2705,0.0,0.0,0.4194,0.4193,0.4276,0.4549,0.3641,0.0,0.2016,0.0863,-0.0,-0.0,-0.0,-0.0,-0.0,-0.1101,-0.1913,-0.1913,-0.3224,-0.4034,-0.4034,-0.5247,-0.6665,-0.7882,-0.6694,-0.6586,-0.7988,-0.7729,-0.5175,-0.0091,-0.0,-0.1244,-0.3683,-0.543,-0.6411,-0.6445,-0.5325,-0.5374,-0.6414,-0.6339,-0.6271,-0.6271,-0.6264,-0.6264,-0.6271,-0.6264,-0.6338,-0.6338,-0.6338,-0.6338,-0.6338,-0.6872,-0.6718,-0.649,-0.7403,-0.8084,-0.8389,-0.7936,-0.7783,-0.7689,-0.7071,-0.6464,-0.6047,-0.6129,-0.6095,-0.6081,-0.6247,-0.3805,-0.1772,-0.278,-0.1411,-0.0,-0.0,-0.1385,-0.2894,-0.3964,-0.6482,-0.8535,-0.9047,-1.1628,-1.4063,-1.5696,-1.7584,-1.9258,-2.0454,-2.083,-2.115,-2.1552,-2.0797,-2.0382,-2.0616,-2.0431,-2.0311,-2.0311,-2.0499,-2.0616,-2.0616,-2.0431,-2.0296,-2.0249,-1.9814,-1.9295,-1.8797,-1.7972,-1.7164,-0.0,-0.0,-0.0,-0.0,-0.0,0.0375,0.2042,0.3528,0.4591,0.4485,0.4479,0.4581,0.487,0.444,0.4193,0.0,0.2682,0.1085,0.0171,-0.0,-0.0,-0.0,-0.0,-0.0,-0.0,-0.1921,-0.3136,-0.3136,-0.5142,-0.6745,-0.7949,-0.601,-0.5319,-0.6289,-0.6284,-0.4256,-0.0,-0.0,-0.2386,-0.7131,-0.6628,-0.6459,-0.6652,-0.6394,-0.6417,-0.6531,-0.6352,-0.6298,-0.6278,-0.598,-0.6058,-0.6278,-0.6268,-0.6338,-0.6338,-0.6338,-0.6338,-0.6338,-0.6338,-0.6338,-0.6338,-0.6338,-0.6872,-0.7326,-0.6567,-0.6872,-0.7326,-0.649,-0.6176,-0.6112,-0.6234,-0.6183,-0.6132,-0.6271,-0.3059,-0.0,-0.0,-0.0,-0.0,-0.0,-0.0,-0.1008,-0.4236,-0.6392,-0.8007,-0.8976,-1.1554,-1.4043,-1.5879,-1.7704,-1.917,-2.0088,-2.0766,-2.1244,-2.1582,-2.0894,-2.0416,-2.0314,-2.0104,-1.9874,-1.9726,-1.9889,-2.0035,-2.0158,-1.9752,-1.95,-1.9441,-1.8977,-1.8366,-1.772,-1.668,-1.5997,-0.0,-0.0,-0.0,-0.0,-0.0,0.0545,0.2559,0.0,0.5238,0.5185,0.5103,0.4997,0.4941,0.5377,0.594,0.6539,0.6182,0.4419,0.0511,-0.0,-0.0,-0.0,0.0,-0.0,-0.0,-0.0202,-0.0404,-0.0404,-0.0596,-0.2854,-0.7717,-0.7784,-0.5514,-0.0836,-0.0741,-0.0459,-0.0,-0.0,-0.242,-0.7131,-0.6806,-0.6656,-0.6576,-0.6413,-0.6349,-0.6291,-0.6341,-0.6324,-0.6207,-0.488,-0.5184,-0.6278,-0.6268,-0.6338,-0.6338,-0.6338,-0.6338,-0.6338,-0.6338,-0.6338,-0.6338,-0.6338,-0.6338,-0.6416,-0.6338,-0.6338,-0.6416,-0.6338,-0.6257,-0.6257,-0.6271,-0.6274,-0.6281,-0.6318,-0.3066,-0.0,-0.0,-0.0,-0.0,-0.0,-0.0,-0.0603,-0.2611,-0.5009,-0.722,-0.8875,-1.1379,-1.3707,-1.5363,-1.7464,-1.917,-2.0088,-2.1022,-2.1552,-2.1582,-2.1181,-2.0764,-2.0314,-2.0665,-2.0548,-1.9711,-2.0481,-2.0532,-1.9782,-1.9244,-1.8968,-1.8954,-1.8405,-1.7639,-1.6549,-1.5825,-1.4654,0.09,-0.0,-0.0,-0.0,-0.0,0.0533,0.2591,0.0,0.5743,0.5381,0.5243,0.5258,0.5396,0.5684,0.6113,0.6713,0.6561,0.0,0.4076,0.1594,-0.0,-0.0,-0.0,-0.0,-0.0,-0.0,-0.0,-0.0,-0.2607,-0.3985,-0.3222,-0.3199,-0.2227,-0.0091,-0.0,-0.0,-0.0,-0.0,-0.0987,-0.2865,-0.5419,-0.6706,-0.6587,-0.6364,-0.6393,-0.6486,-0.638,-0.6267,-0.6152,-0.4742,-0.505,-0.6288,-0.6268,-0.6338,-0.6338,-0.6338,-0.6338,-0.6338,-0.6338,-0.62,-0.6135,-0.623,-0.62,-0.6139,-0.6234,-0.6338,-0.6264,-0.6271,-0.6274,-0.6038,-0.4693,-0.5341,-0.5655,-0.3086,-0.1243,-0.0,-0.0,-0.0,-0.0,-0.0,-0.0,-0.0534,-0.2097,-0.5519,-0.8397,-0.9403,-1.2193,-1.4735,-1.6318,-1.8139,-1.9731,-2.0847,-2.135,-2.1718,-2.2003,-2.1598,-2.1275,-2.1086,-2.0781,-2.0416,-2.007,-2.0174,-2.005,-1.9726,-1.9479,-1.9043,-1.8419,-1.7826,-1.6793,-1.5271,-1.429,-1.3,0.334,0.1194,-0.0,-0.0,0.0951,0.2073,0.0,0.0,0.6117,0.5741,0.5595,0.5615,0.5872,0.5944,0.6181,0.6722,0.6563,0.6357,0.6321,0.3415,0.1098,0.0518,-0.0362,-0.0942,-0.1176,-0.0497,-0.0,-0.0,-0.4442,-0.5652,-0.2296,-0.0733,-0.0,-0.0,-0.0,-0.0,-0.0,-0.0,-0.0,-0.0089,-0.3844,-0.6002,-0.6635,-0.6434,-0.641,-0.6524,-0.6383,-0.627,-0.6172,-0.4577,-0.4805,-0.6295,-0.6271,-0.6338,-0.6254,-0.621,-0.622,-0.6254,-0.6207,-0.6122,-0.6054,-0.621,-0.6156,-0.6051,-0.6159,-0.6227,-0.6335,-0.6297,-0.6297,-0.5684,-0.2888,-0.3295,-0.3677,-0.0685,-0.0,-0.0,-0.0,-0.0,-0.0,-0.0,-0.0888,-0.207,-0.3575,-0.6911,-0.9689,-1.0477,-1.3122,-1.5681,-1.7512,-1.9041,-2.0457,-2.1856,-2.1945,-2.2051,-2.2398,-2.1807,-2.143,-2.143,-2.0715,-2.0314,-2.0314,-2.0174,-1.9945,-1.9696,-1.95,-1.8916,-1.7867,-1.7081,-1.5917,-1.4312,-1.307,-1.1379,0.7906,0.4042,-0.0,-0.0,0.3099,0.567,0.4104,0.4989,0.6267,0.6457,0.6314,0.6178,0.6178,0.6342,0.6548,0.6759,0.6546,0.6355,0.6104,0.5064,0.3625,0.1775,-0.1182,-0.3268,-0.3867,-0.153,-0.0,-0.0,-0.4404,-0.7119,-0.6995,-0.2603,-0.0,-0.0,-0.0,-0.0,-0.0,-0.0,-0.0,-0.0,-0.2116,-0.4396,-0.669,-0.6434,-0.6285,-0.6308,-0.6318,-0.6308,-0.61,-0.4019,-0.4398,-0.6295,-0.6271,-0.6338,-0.6244,-0.6088,-0.6129,-0.624,-0.6084,-0.603,-0.6054,-0.621,-0.6156,-0.603,-0.603,-0.6146,-0.6325,-0.6328,-0.631,-0.536,-0.1093,-0.0079,-0.0078,-0.0,-0.0,-0.0,-0.0,-0.0,-0.0,-0.0,-0.2898,-0.5855,-0.7363,-0.9041,-1.0691,-1.2238,-1.4131,-1.628,-1.8658,-1.9975,-2.1323,-2.3001,-2.2897,-2.2695,-2.2695,-2.1652,-2.1007,-2.1007,-2.055,-2.0314,-2.0314,-2.0748,-2.0534,-1.9621,-1.9067,-1.831,-1.7312,-1.6188,-1.4971,-1.3695,-1.2338,-0.987,0.5873,0.4508,0.3117,0.2274,0.3089,0.4342,0.5185,0.5826,0.6191,0.6262,0.622,0.6178,0.6178,0.6229,0.6393,0.6639,0.6323,0.5951,0.5609,0.5261,0.349,-0.0659,-0.3906,-0.6107,-0.6677,-0.5818,-0.4405,-0.2564,-0.5351,-0.7065,-0.7125,-0.4117,-0.1699,-0.009,-0.0,-0.0,-0.0,-0.0,-0.0,-0.0,-0.0673,-0.2883,-0.6344,-0.4788,-0.4943,-0.6322,-0.6297,-0.6294,-0.6169,-0.3949,-0.4332,-0.6281,-0.6268,-0.6338,-0.6254,-0.6207,-0.6152,-0.6112,-0.6169,-0.6051,-0.5898,-0.6054,-0.6,-0.5874,-0.5961,-0.6148,-0.6273,-0.6324,-0.422,-0.1705,-0.0384,-0.0,-0.0,-0.0,0.1908,0.3017,0.0554,-0.0,-0.0,-0.0,-0.6614,-1.1999,-1.1176,-1.2764,-1.4202,-1.4345,-1.6348,-1.8435,-1.9976,-2.1688,-2.3144,-2.4242,-2.4348,-2.3883,-2.2782,-2.2325,-2.2101,-2.2101,-2.2159,-2.1873,-2.1069,-2.1239,-2.0799,-1.9706,-1.9156,-1.8521,-1.7827,-1.5849,-1.3289,-1.0277,-0.8847,-0.7346,0.0,0.5138,0.516,0.4464,0.4292,0.0,0.0,0.6271,0.6248,0.63,0.6229,0.6178,0.6178,0.6178,0.6202,0.6258,0.5461,0.4977,0.5286,0.3695,0.101,-0.2854,-0.5165,-0.6751,-0.7798,-0.7743,-0.6963,-0.5232,-0.6333,-0.7101,-0.7125,-0.5746,-0.3405,-0.009,-0.0,-0.0,-0.0,-0.0,-0.0,-0.0,-0.0,-0.1395,-0.3936,-0.4216,-0.4162,-0.3936,-0.3936,-0.481,0.0,-0.4867,-0.509,-0.6278,-0.6268,-0.6338,-0.6247,-0.6129,-0.6061,-0.6034,-0.6074,-0.5928,-0.5755,-0.5962,-0.5891,-0.5657,-0.5083,-0.5591,-0.5988,-0.4402,-0.2039,-0.0,-0.0,-0.0,0.0374,0.1705,0.3905,0.5056,0.2699,0.1045,-0.0211,-0.0892,-0.7242,-1.2606,-1.2903,-1.4059,-1.521,-1.6067,-1.7739,-1.9522,-2.1175,-2.2844,-2.4297,-2.5471,-2.539,-2.4865,-2.3842,-2.3367,-2.3095,-2.3095,-2.3139,-2.2821,-2.2072,-2.1837,-2.1098,-1.9732,-1.8908,-1.8084,-1.7136,-1.4688,-1.1798,-0.8678,-0.7272,-0.6199,0.0,0.5894,0.6232,0.6232,0.6175,0.629,0.0,0.0,0.0,0.0,0.6304,0.6182,0.6192,0.6196,0.6099,0.5827,0.436,0.3619,0.4912,0.0659,-0.3146,-0.4782,-0.5208,-0.5945,-0.7463,-0.759,-0.7701,-0.7617,-0.7158,-0.6831,-0.6873,-0.7039,-0.5029,-0.0628,-0.0179,-0.0,-0.0,-0.0,-0.0,-0.0,-0.0,-0.0,-0.0158,-0.4099,-0.3698,-0.0,-0.0314,-0.2592,-0.6084,-0.6224,-0.6288,-0.6274,-0.6254,-0.6244,-0.6207,-0.5911,-0.5891,-0.5993,-0.5854,-0.5718,-0.565,-0.5915,-0.5817,-0.5382,-0.3763,-0.4627,-0.5383,-0.1155,-0.0,-0.0,-0.0,-0.0,0.0895,0.4626,0.5861,0.6215,0.5835,0.2993,-0.0144,-0.2097,-0.5259,-0.8867,-1.2821,-1.336,-1.4265,-1.7318,-1.8344,-1.9677,-2.2125,-2.3425,-2.4816,-2.6563,-2.6074,-2.5614,-2.5614,-2.4601,-2.3951,-2.3951,-2.358,-2.3266,-2.3052,-2.244,-2.1379,-1.9749,-1.8451,-1.6966,-1.5297,-1.2791,-1.0537,-0.8521,-0.7165,-0.6145,0.6072,0.0,0.6215,0.6215,0.6227,0.6239,0.0,0.0,0.0,0.0,0.0,0.0,0.0,0.0,0.6013,0.5902,0.4987,0.3735,0.2078,-0.1628,-0.4725,-0.6135,-0.6835,-0.7208,-0.7212,-0.7383,-0.7506,-0.759,-0.5596,-0.4459,-0.4465,-0.6153,-0.6608,-0.5452,-0.1928,-0.0,-0.0,-0.0,-0.0,-0.0,-0.0,-0.0,-0.0,-0.1038,-0.0942,-0.0157,-0.3383,-0.4482,-0.3992,-0.5646,-0.6274,-0.6254,-0.6132,-0.6084,-0.6061,-0.5871,-0.5823,-0.585,-0.5899,-0.594,-0.5908,-0.5877,-0.5672,-0.5389,-0.4978,-0.5195,-0.4792,-0.106,-0.0,-0.0,-0.0,-0.0,0.1021,0.5112,0.5983,0.5863,0.5787,0.5072,0.3354,-0.0,-0.3893,-0.8011,-1.236,-1.3397,-1.4221,-1.6042,-1.7535,-1.9278,-2.1452,-2.3433,-2.5292,-2.6983,-2.6974,-2.6869,-2.6869,-2.5461,-2.4576,-2.4576,-2.4693,-2.4108,-2.271,-2.2488,-2.158,-1.9798,-1.7675,-1.528,-1.2609,-1.0922,-0.9071,-0.7063,-0.6195,-0.5386,0.6069,0.6123,0.6178,0.6178,0.6178,0.6178,0.0,0.0,0.0,0.0,0.0,0.0,0.0,0.0,0.0,0.5778,0.5549,0.3573,-0.153,-0.3304,-0.488,-0.6828,-0.7272,-0.7509,-0.7489,-0.6495,-0.6421,-0.7681,-0.6142,-0.4282,-0.2054,-0.5257,-0.7058,-0.7093,-0.2471,-0.0,-0.0,-0.0,-0.0,-0.0,-0.0,-0.0,-0.0,-0.0,-0.0,-0.0236,-0.4491,-0.5674,-0.4616,-0.5733,-0.6166,-0.6139,-0.5983,-0.5928,-0.5991,-0.584,-0.5762,-0.5827,-0.5906,-0.5355,-0.4621,-0.4471,-0.4819,-0.5433,-0.5433,-0.423,-0.2479,-0.0551,-0.0,-0.0,-0.0,0.1205,0.2897,0.445,0.5338,0.5776,0.5768,0.5727,0.4804,0.191,-0.163,-0.5391,-0.9393,-1.0546,-1.1919,-1.475,-1.6184,-1.7934,-2.0809,-2.2879,-2.4802,-2.6734,-2.6933,-2.7014,-2.7286,-2.6118,-2.5438,-2.5646,-2.5322,-2.4571,-2.3313,-2.2498,-2.0799,-1.8037,-1.5608,-1.3155,-1.053,-0.9304,-0.7787,-0.6091,-0.5828,-0.4889,0.5896,0.6037,0.622,0.6182,0.6201,0.6225,0.0,0.0,0.0,0.0,0.0,0.0,0.0,0.6303,0.0,0.0,0.5495,0.327,-0.3452,-0.4068,-0.4625,-0.6933,-0.7241,-0.7329,-0.7621,-0.5691,-0.5099,-0.6688,-0.6334,-0.4291,-0.0252,-0.3832,-0.6054,-0.6005,-0.207,-0.0,-0.0,-0.0,-0.0,-0.0,-0.0,-0.0,-0.0,-0.0,-0.0314,-0.1178,-0.4408,-0.5977,-0.6244,-0.6105,-0.6023,-0.5979,-0.583,-0.5851,-0.5919,-0.5437,-0.5277,-0.5409,-0.5732,-0.4454,-0.2598,-0.2359,-0.3309,-0.4694,-0.5213,-0.2842,0.0135,0.0813,0.049,0.0143,0.0683,0.3079,0.5063,0.3797,0.4616,0.571,0.5745,0.5821,0.5441,0.3868,0.1258,-0.1663,-0.4788,-0.6279,-0.8451,-1.2741,-1.4223,-1.6143,-1.9777,-2.1847,-2.3745,-2.5796,-2.6184,-2.6505,-2.6935,-2.6282,-2.6033,-2.6436,-2.5501,-2.4524,-2.3679,-2.2055,-1.9371,-1.5527,-1.3355,-1.1227,-0.9,-0.7889,-0.675,-0.5546,-0.5626,-0.4333,0.6126,0.6146,0.6181,0.605,0.6137,0.6269,0.0,0.0,0.0,0.0,0.0,0.0,0.0,0.6309,0.5299,0.0,0.354,0.2919,0.1939,-0.2336,-0.567,-0.6427,-0.7258,-0.7313,-0.5933,-0.6343,-0.5119,-0.1494,-0.1178,-0.0757,-0.0,-0.0659,-0.1072,-0.1064,-0.0408,-0.0,-0.0,-0.0,-0.0,-0.0,-0.0,-0.0,-0.0,-0.0,-0.1963,-0.5286,-0.4077,-0.4488,-0.6006,-0.6047,-0.5956,-0.5823,-0.5761,-0.571,-0.5567,-0.3776,-0.3195,-0.3501,-0.5479,-0.3727,-0.0438,-0.0433,-0.0569,-0.1403,-0.4499,-0.2892,0.0745,0.4309,0.2739,0.0701,0.3808,0.4983,0.5377,0.5335,0.5537,0.5682,0.562,0.6218,0.6631,0.6493,0.4836,0.2818,0.0837,-0.1976,-0.5042,-0.8256,-1.1259,-1.4253,-1.7346,-2.0182,-2.244,-2.3727,-2.4772,-2.5416,-2.5545,-2.5395,-2.5373,-2.5449,-2.4839,-2.3486,-2.1247,-1.9851,-1.7466,-1.383,-1.2837,-1.0969,-0.8084,-0.6992,-0.6239,-0.5795,-0.5041,-0.3125,0.5928,0.6055,0.6104,0.5836,0.5934,0.6058,0.0,0.0,0.0,0.0,0.0,0.0,0.0,0.0,0.3658,0.1979,0.228,0.2437,0.1578,-0.0417,-0.243,-0.4178,-0.5664,-0.6621,-0.6779,-0.4632,-0.2385,-0.0169,-0.0,-0.0,-0.0,-0.0,-0.0,-0.0,-0.0,-0.0,-0.0,-0.0,-0.0,-0.0,-0.0,-0.0,-0.008,-0.237,-0.4491,-0.6244,-0.5106,-0.5185,-0.5959,-0.5861,-0.5749,-0.5674,-0.5607,-0.4974,-0.3855,-0.1948,-0.1238,-0.1387,-0.2477,-0.1592,-0.0,-0.0,-0.0,0.0073,0.0353,0.1825,0.3593,0.4354,0.379,0.3079,0.3795,0.4654,0.5477,0.5679,0.561,0.5698,0.618,0.6591,0.6963,0.7484,0.6925,0.6006,0.4866,0.1595,-0.2269,-0.6548,-0.9828,-1.301,-1.6384,-1.8623,-2.0549,-2.2308,-2.3,-2.3539,-2.4132,-2.424,-2.4133,-2.3739,-2.3125,-2.1815,-1.966,-1.7388,-1.5595,-1.4452,-1.1665,-0.9483,-0.792,-0.6126,-0.4352,-0.2566,-0.2247,-0.0856,0.5806,0.5986,0.6063,0.5779,0.5809,0.0,0.0,0.0,0.0,0.0,0.0,0.0,0.0,0.4495,0.1961,0.0707,0.1357,0.1612,0.0166,0.0737,0.0413,-0.1822,-0.328,-0.4704,-0.5986,-0.2424,-0.0,-0.0,-0.0,-0.0,-0.0,-0.0,-0.0,-0.0,-0.0,-0.0,-0.0,-0.0,-0.0,-0.0,-0.0,-0.0,-0.0157,-0.4229,-0.6116,-0.618,-0.5999,-0.5899,-0.5922,-0.5688,-0.5569,-0.5532,-0.5423,-0.4041,-0.1912,-0.0517,-0.0,-0.0,-0.0,-0.0,-0.0,-0.0,-0.0,0.0676,0.4316,0.5752,0.5789,0.4154,0.4535,0.5089,0.3767,0.4383,0.5411,0.5621,0.5521,0.5656,0.6642,0.6955,0.7228,0.8014,0.8249,0.8091,0.7497,0.3986,-0.0379,-0.5455,-0.8757,-1.1957,-1.5591,-1.7137,-1.8662,-2.0636,-2.1108,-2.1728,-2.2834,-2.3286,-2.3054,-2.1885,-2.1159,-1.9949,-1.8158,-1.5904,-1.4359,-1.376,-0.9445,-0.6836,-0.6109,-0.4335,-0.216,0.0305,0.089,0.1811,0.6047,0.6039,0.5936,0.6132,0.6196,0.0,0.3466,0.3242,0.0,0.3911,0.0,0.0,0.0,0.3211,0.0638,0.1877,0.0963,0.017,-0.0,0.0089,-0.0,-0.0179,-0.0269,-0.0441,-0.0596,-0.0259,-0.0,-0.0,-0.0,-0.0,-0.0,-0.0,-0.0,-0.0,-0.0,-0.0,-0.0,-0.0,-0.0,-0.0,-0.0,-0.0,-0.0157,-0.3766,-0.5569,-0.5858,-0.5772,-0.5691,-0.562,-0.5599,-0.5511,-0.5396,-0.5393,-0.3263,-0.0145,-0.0073,-0.0,-0.0,-0.0,-0.0,-0.0,-0.0,-0.0,0.0678,0.4337,0.5399,0.5437,0.5474,0.5436,0.543,0.55,0.5433,0.5393,0.5449,0.5435,0.5624,0.6544,0.7316,0.8089,0.8618,0.8966,0.8948,0.8258,0.4433,0.0124,-0.3876,-0.7561,-1.1071,-1.4373,-1.5867,-1.7036,-1.8143,-1.937,-2.0595,-2.1722,-2.2863,-2.2446,-2.0041,-1.9245,-1.8112,-1.6383,-1.6535,-1.4309,-0.9274,-0.5599,-0.2702,-0.0573,-0.0381,-0.0125,0.0366,0.3216,0.4598,0.5691,0.5869,0.6089,0.5993,0.6125,0.0,0.0,0.1097,0.1261,0.1339,0.4626,0.0,0.0,0.5408,0.3276,0.1203,0.033,-0.0,-0.0,-0.0,-0.0,-0.0,-0.0,-0.0,-0.0,-0.0,-0.0,-0.0,-0.0,-0.0,-0.0,-0.0,-0.0,-0.0,-0.0,0.1256,0.3857,0.1315,-0.0,-0.0,-0.0,-0.1152,-0.3379,-0.3591,-0.4436,-0.5768,-0.5681,-0.5647,-0.5583,-0.5494,-0.5426,-0.5399,-0.5395,-0.3163,-0.0,-0.0,-0.0,-0.0,-0.0,-0.0,-0.0,-0.0,-0.0,0.0461,0.2948,0.4476,0.5431,0.5587,0.5631,0.56,0.5652,0.5552,0.5432,0.5428,0.5428,0.5624,0.6527,0.6981,0.7414,0.8164,0.865,0.8264,0.6107,0.3032,-0.0537,-0.4851,-0.8365,-1.1353,-1.3836,-1.4878,-1.5753,-1.6783,-1.7847,-1.9193,-2.0988,-2.0739,-2.0304,-1.9749,-1.9725,-1.8242,-1.4954,-1.4207,-1.2049,-0.8151,-0.3621,0.0263,0.3366,0.3361,0.3309,0.3337,0.436,0.4799,0.5558,0.5797,0.5844,0.0,0.0,0.0,0.0815,-0.0,-0.0,-0.0,0.2739,0.5113,0.5022,0.5724,0.5399,0.2455,0.0843,-0.0,-0.0,-0.0,-0.0,-0.0,-0.0,-0.0,-0.0,-0.0,-0.0,-0.0,-0.0,-0.0,-0.0,-0.0,0.0639,0.1964,0.1963,0.2974,0.5143,0.3056,0.1356,-0.0,-0.1186,-0.2972,-0.5333,-0.4152,-0.4311,-0.561,-0.5589,-0.5518,-0.5515,-0.542,-0.5382,-0.5272,-0.4144,-0.217,-0.0,-0.0,-0.0,-0.0,-0.0,-0.0,-0.0,-0.0,-0.0,0.0233,0.1476,0.354,0.5276,0.4836,0.5108,0.5603,0.5525,0.5443,0.5428,0.5428,0.5428,0.5624,0.6527,0.6793,0.6841,0.6994,0.6786,0.5864,0.369,0.0856,-0.2434,-0.6425,-0.8856,-1.0998,-1.2909,-1.3501,-1.4345,-1.5701,-1.673,-1.8047,-1.9965,-1.9377,-1.9016,-1.9246,-1.9728,-1.8116,-1.4028,-1.2352,-0.959,-0.5353,-0.126,0.2342,0.5403,0.5389,0.5301,0.5075,0.4934,0.49,0.5779,0.5782,0.5219,0.0,0.0,0.0,0.0497,-0.0,-0.0,-0.0,-0.0,-0.0,-0.0,0.3379,0.6215,0.6369,0.2799,-0.0,-0.0,-0.0,-0.0,-0.0,-0.0,-0.0,-0.0,-0.0,-0.0,-0.0,-0.0,0.0079,0.0079,0.0079,0.1963,0.6165,0.625,0.514,0.2715,0.5086,0.4192,-0.0,-0.369,-0.5358,-0.5343,-0.5406,-0.5401,-0.5382,-0.543,-0.5369,-0.5379,-0.5379,-0.5393,-0.5001,-0.1415,-0.0,-0.0,-0.0,-0.0,-0.0,-0.0,-0.0,-0.0,-0.0,-0.0,-0.0,-0.0,0.2475,0.4991,0.3201,0.4023,0.5379,0.5379,0.5369,0.5428,0.5428,0.5428,0.562,0.6527,0.6881,0.662,0.5067,0.3134,0.1666,0.1403,-0.209,-0.5726,-0.8312,-0.8886,-0.9646,-1.1499,-1.1796,-1.2676,-1.4976,-1.5983,-1.709,-1.8555,-1.9125,-1.9124,-1.8425,-1.887,-1.744,-1.3674,-1.1531,-0.7136,-0.02,0.1804,0.3618,0.5379,0.5365,0.5281,0.5125,0.4982,0.5247,0.5796,0.5632,0.0,0.5281,0.0,0.0,0.0,-0.0,0.0,0.0,-0.0,-0.0,-0.0,0.1024,0.3037,0.6627,0.3137,-0.0,-0.0,-0.0,-0.0,-0.0,-0.0,-0.0,-0.0,-0.0,-0.0,-0.0,0.2725,0.4457,0.4459,0.3029,0.264,0.3749,0.522,0.561,0.4787,0.5378,0.4512,0.2118,-0.2962,-0.4711,-0.3536,-0.4822,-0.5379,-0.5376,-0.5393,-0.5379,-0.5389,-0.5399,-0.3907,-0.1484,-0.0413,-0.0,-0.0,-0.0,-0.0,-0.0,-0.0,-0.0,-0.0,-0.0,-0.0,-0.0,-0.0,0.0719,0.1761,0.2504,0.403,0.5399,0.5382,0.5376,0.5372,0.5428,0.5428,0.5495,0.5763,0.4378,0.2492,0.0584,-0.0189,-0.0858,-0.1872,-0.4578,-0.6926,-0.7769,-0.9235,-1.0826,-1.2353,-1.3055,-1.3871,-1.5049,-1.5983,-1.6866,-1.7841,-1.8377,-1.834,-1.7379,-1.4427,-1.2981,-1.377,-1.388,-1.0706,-0.3902,0.1738,0.4846,0.5389,0.526,0.5125,0.4979,0.5355,0.5526,0.5493,0.5317,0.0,0.4699,0.288,0.0998,0.0211,0.0,0.0,0.0,-0.0,-0.0,-0.0,-0.0,0.102,0.401,0.3353,0.25,0.2489,0.1663,0.0781,0.0077,-0.0,-0.0,-0.0,-0.0,0.0606,0.2017,0.4478,0.595,0.6084,0.4844,0.4079,0.3869,0.5072,0.5759,0.5674,0.5601,0.5032,0.3927,-0.1536,-0.3939,-0.359,-0.4849,-0.5379,-0.5379,-0.5389,-0.5396,-0.5266,-0.3842,-0.194,-0.0,-0.0,-0.0,-0.0,-0.0,-0.0,-0.0,-0.0,-0.0,-0.0,-0.0,-0.0,-0.0,-0.0,-0.0,0.0209,0.1354,0.2417,0.3429,0.4159,0.4834,0.5376,0.5432,0.5428,0.5432,0.5376,0.2988,0.0198,-0.1986,-0.3288,-0.4063,-0.4088,-0.5719,-0.6961,-0.6794,-0.8606,-1.0391,-1.1507,-1.3082,-1.441,-1.5133,-1.6245,-1.7257,-1.795,-1.4992,-1.3374,-1.4092,-0.9018,-0.5401,-0.4251,-0.8376,-0.7446,-0.0599,0.3411,0.5386,0.5382,0.5463,0.5487,0.5332,0.5976,0.6286,0.5099,0.0,0.0,0.2901,0.2766,0.0,0.0647,0.023,0.0162,-0.0,-0.0,0.0079,0.0486,0.0239,0.0079,0.0235,0.3664,0.6292,0.6267,0.4384,0.2396,0.0679,0.0221,-0.0,-0.0,-0.0,0.1529,0.5107,0.5416,0.5488,0.5758,0.5771,0.5765,0.5669,0.5666,0.5668,0.5658,0.5583,0.531,0.4909,0.0065,-0.3143,-0.4903,-0.5219,-0.5415,-0.5365,-0.5043,-0.4916,-0.4643,-0.1342,-0.0,-0.0,-0.0,-0.0,-0.0,-0.0,-0.0,-0.0,-0.0,-0.0,-0.0,-0.0,-0.0,-0.0,-0.0,-0.0,-0.0,-0.0,0.0269,0.0803,0.2342,0.4023,0.5376,0.5432,0.5491,0.5557,0.5557,0.2792,-0.0332,-0.2596,-0.5408,-0.685,-0.5088,-0.5656,-0.6222,-0.5909,-0.7606,-0.9179,-0.998,-1.2583,-1.4623,-1.5236,-1.6846,-1.8109,-1.8823,-1.1387,-0.7023,-0.7738,-0.244,0.3853,1.0853,0.2403,0.0542,0.6841,0.5911,0.5505,0.569,0.6014,0.6207,0.622,0.6832,0.7345,0.5412,0.5246,0.0,0.0,0.3723,0.2651,0.2235,0.2134,0.1725,0.0308,-0.0,0.1051,0.4322,0.2236,0.0549,0.2189,0.4597,0.6195,0.593,0.5433,0.4919,0.4274,0.1749,-0.0,-0.0,-0.0,0.1517,0.5121,0.5425,0.5503,0.5737,0.5759,0.5759,0.5647,0.564,0.5572,0.5497,0.404,0.2738,0.1425,-0.1007,-0.3177,-0.4879,-0.5088,-0.5238,-0.524,-0.2411,-0.1172,-0.1107,-0.0326,-0.0,-0.0,-0.0,-0.0,-0.0,-0.0,-0.0,-0.0,-0.0,-0.0,-0.0,-0.0,-0.0,-0.0,-0.0,-0.0,-0.0,-0.0,0.2018,0.3971,0.2948,0.4023,0.5376,0.5432,0.5947,0.6498,0.6711,0.4861,0.2664,0.0979,-0.1285,-0.3076,-0.3714,-0.4402,-0.5814,-0.8416,-0.9643,-1.0906,-1.2696,-1.4584,-1.5811,-1.5974,-1.8297,-1.9911,-2.0021,-1.9708,-1.1621,0.6886,0.6822,0.8815,1.4961,0.8964,0.5578,0.5752,0.5502,0.6226,0.7977,0.6706,0.6676,0.796,0.857,0.8741,0.5216,0.0,0.0,0.5037,0.0,0.4013,0.3977,0.3968,0.3726,0.2814,0.1894,0.1929,0.4176,0.3595,0.2802,0.2869,0.4623,0.5986,0.5751,0.5745,0.5669,0.5525,0.3811,0.2236,0.1397,0.1176,0.2255,0.5068,0.5135,0.5169,0.5284,0.5342,0.5345,0.527,0.5339,0.5377,0.5375,0.2851,0.0377,-0.1952,-0.2875,-0.3779,-0.4748,-0.5076,-0.5323,-0.522,-0.158,-0.0,-0.0,-0.0,-0.0,-0.0,-0.0,-0.0,-0.0,-0.0,-0.0,-0.0,-0.0,-0.0,-0.0,-0.0,-0.0,-0.0,-0.0,0.1203,0.2586,0.2618,0.3299,0.4102,0.4025,0.4697,0.5488,0.5788,0.627,0.7219,0.9012,0.718,0.5155,0.4951,0.2292,-0.0439,-0.1996,-0.3785,-0.5763,-0.8135,-1.0128,-1.2006,-1.3761,-1.6154,-1.7875,-1.8401,-2.0444,-2.1939,-2.2263,-1.5304,-0.6752,0.3007,1.1442,1.6564,1.7632,1.3952,1.0816,0.8462,0.804,0.8372,0.9527,0.8865,0.9014,0.9831,1.0419,1.0724,0.4987,0.0,0.4844,0.4826,0.5048,0.0,0.5335,0.5316,0.5329,0.5329,0.4168,0.3197,0.3195,0.4592,0.5183,0.3485,0.4654,0.5679,0.5649,0.5604,0.5583,0.5638,0.55,0.4731,0.3257,0.2855,0.3319,0.4918,0.4879,0.4806,0.4918,0.4918,0.4921,0.4925,0.5057,0.5197,0.5402,0.2077,-0.1218,-0.4491,-0.4523,-0.4512,-0.4524,-0.5026,-0.4972,-0.4308,-0.1286,-0.0,-0.0,-0.0,-0.0,-0.0,-0.0,-0.0,-0.0,-0.0,-0.0,-0.0,-0.0,-0.0,-0.0,-0.0,-0.0,0.0124,0.0636,0.2887,0.5257,0.5401,0.4276,0.3462,0.503,0.5376,0.5602,0.6281,0.6673,0.7812,1.1142,0.9474,0.7734,0.8708,0.4908,0.076,-0.1648,-0.4128,-0.629,-0.7611,-1.0535,-1.3058,-1.4575,-1.7636,-2.0106,-2.114,-2.2668,-2.3972,-2.49,-0.9712,-0.1853,-0.5848,1.2068,2.1831,1.9703,1.7954,1.5818,1.3237,1.1463,1.0863,1.1387,1.1487,1.1702,1.2101,1.2543,1.3132,0.0,0.0,0.4728,0.0,0.4857,0.4989,0.0,0.0,0.4981,0.4981,0.499,0.5107,0.5246,0.54,0.5469,0.5369,0.5528,0.5711,0.564,0.5603,0.5542,0.5476,0.5267,0.5047,0.4788,0.4612,0.4599,0.4839,0.4822,0.4806,0.4918,0.4918,0.4925,0.506,0.5064,0.52,0.5417,0.2095,-0.1238,-0.4526,-0.4498,-0.4478,-0.4528,-0.4572,-0.3189,-0.0711,-0.0237,-0.0,-0.0,-0.0,-0.0,-0.0,-0.0,-0.0,-0.0,-0.0,-0.0,-0.0,-0.0,-0.0,-0.0,-0.0,-0.0,0.0494,0.3107,0.4241,0.4712,0.5243,0.5132,0.488,0.5276,0.5372,0.562,0.6433,0.7288,0.8515,1.0929,1.1291,1.1119,1.1149,0.5315,-0.1062,-0.579,-0.6983,-0.7957,-1.001,-1.2565,-1.4915,-1.6647,-1.9563,-2.1757,-2.2565,-2.4115,-2.5775,-2.7455,-1.8084,-0.9779,-0.4337,0.668,1.5678,2.1717,2.1226,2.0348,1.9183,1.4022,1.2662,1.5335,1.3283,1.3354,1.5365,1.5442,1.5636,0.5817,0.5229,0.4674,0.0,0.4959,0.4792,0.4792,0.4857,0.4918,0.4918,0.5008,0.5127,0.5256,0.519,0.5213,0.5346,0.5299,0.5259,0.5332,0.5264,0.5189,0.5121,0.5057,0.4957,0.4957,0.4891,0.4802,0.474,0.4659,0.4667,0.4663,0.4663,0.4725,0.4742,0.3914,0.3923,0.4896,0.0057,-0.3095,-0.4498,-0.4488,-0.3604,-0.1967,-0.1967,-0.1244,-0.0,-0.0,-0.0,-0.0,-0.0,-0.0,-0.0,-0.0,-0.0,-0.0,-0.0,-0.0,-0.0,-0.0,-0.0,-0.0,-0.0,0.1129,0.2765,0.4085,0.4587,0.4733,0.5003,0.5033,0.5053,0.5203,0.5237,0.551,0.6437,0.6981,0.7925,1.0159,1.1262,1.1203,0.9152,0.4077,-0.1061,-0.4763,-0.6946,-0.8804,-1.09,-1.337,-1.5804,-1.7804,-2.0582,-2.2732,-2.3652,-2.5515,-2.4832,-2.0246,-1.2171,-0.3385,0.5904,1.4929,2.1233,2.4232,2.373,2.3102,2.2441,1.8462,1.6977,1.802,1.6933,1.6941,1.796,1.796,1.8396,0.0,0.0,0.4899,0.5475,0.5341,0.5088,0.0,0.5242,0.5332,0.5332,0.5332,0.5332,0.5332,0.5104,0.4955,0.506,0.4989,0.4955,0.506,0.4986,0.4918,0.4918,0.4884,0.486,0.486,0.4721,0.4633,0.4633,0.4584,0.4519,0.4519,0.4522,0.4473,0.4484,0.3357,0.2968,0.3373,-0.1119,-0.3716,-0.4514,-0.3716,-0.2188,-0.0,-0.0,-0.0,-0.0,-0.0,-0.0,-0.0,-0.0,-0.0,-0.0,-0.0,-0.0,-0.0,-0.0,-0.0,-0.0,-0.0,0.0475,0.1163,0.1163,0.2404,0.4011,0.4407,0.4606,0.4742,0.477,0.4807,0.4894,0.504,0.5104,0.5346,0.6359,0.6724,0.7232,0.8854,0.9721,0.9156,0.5545,0.1239,-0.2662,-0.5457,-0.8066,-1.0039,-1.1122,-1.3841,-1.6268,-1.7605,-2.0509,-2.2837,-2.3847,-2.3649,-2.1692,-1.7287,-0.5092,0.5266,1.2174,2.191,2.7077,2.6317,2.6017,2.5598,2.5063,2.3163,2.1725,2.0695,2.0234,2.0135,2.0466,2.0187,2.0866,0.0,0.5646,0.0,0.5878,0.6053,0.6176,0.6445,0.6505,0.6514,0.6514,0.6514,0.6514,0.6514,0.5649,0.4921,0.4928,0.4925,0.4921,0.4928,0.4925,0.4918,0.4918,0.4792,0.4704,0.4704,0.4565,0.4529,0.4529,0.4522,0.4519,0.4519,0.4473,0.4484,0.4494,0.4448,0.3033,0.028,-0.0056,-0.1682,-0.4458,-0.1625,-0.0168,-0.0,-0.0,-0.0,-0.0,-0.0,-0.0,-0.0,-0.0,-0.0,-0.0,-0.0,-0.0,-0.0,-0.0,-0.0,-0.0,-0.0,0.1857,0.4238,0.4238,0.337,0.2567,0.4036,0.449,0.4521,0.4663,0.4704,0.4738,0.4891,0.503,0.5322,0.6207,0.6741,0.7038,0.6922,0.6303,0.4766,0.1069,-0.3517,-0.7833,-1.1149,-1.2313,-1.2265,-1.0774,-1.4174,-1.6539,-1.5434,-1.8977,-2.1865,-2.2622,-1.62,-1.5844,-2.5652,-0.1876,1.1867,0.7922,2.114,2.8547,2.7363,2.8323,2.8489,2.7633,2.7476,2.6279,2.3928,2.2155,2.1914,2.3094,2.2066,2.2702,0.0,0.0,0.0,0.63,0.6261,0.6071,0.6295,0.6483,0.6588,0.6588,0.6588,0.6588,0.6588,0.5883,0.5335,0.5448,0.5031,0.466,0.4758,0.4687,0.4626,0.4626,0.4579,0.4545,0.4545,0.4549,0.4519,0.4519,0.4519,0.4522,0.4473,0.4477,0.4487,0.4507,0.4511,0.3035,0.0056,-0.0,-0.0561,-0.1625,-0.0505,-0.0,-0.0,-0.0,-0.0,-0.0,-0.0,-0.0,-0.0,-0.0,-0.0,-0.0,-0.0,-0.0,-0.0,-0.0,-0.0,0.028,0.2244,0.3602,0.4511,0.4504,0.415,0.3799,0.4311,0.4473,0.4536,0.4584,0.4545,0.4579,0.4731,0.4809,0.4686,0.4139,0.2474,0.0525,-0.1015,-0.0887,-0.1225,-0.3798,-0.867,-1.2093,-1.1219,-1.1281,-1.1176,-1.0613,-1.2229,-1.3642,-1.4031,-1.7484,-1.8213,-1.375,-1.1707,-0.8879,-0.452,0.4989,1.3179,1.8887,2.4792,2.8263,2.8722,2.8494,2.8532,2.895,2.8021,2.6836,2.5412,2.4984,2.483,2.4888,2.4911,2.5401,0.7063,0.0,0.0,0.0,0.657,0.6514,0.6708,0.7001,0.7289,0.7343,0.7343,0.7343,0.7343,0.674,0.6132,0.5767,0.5187,0.4772,0.4656,0.4584,0.4519,0.4519,0.4519,0.4519,0.4519,0.4519,0.4519,0.4519,0.4519,0.4522,0.448,0.4027,0.3527,0.2977,0.2977,0.2018,-0.0,-0.0,-0.0,-0.0,-0.0,-0.0,-0.0,-0.0,-0.0,-0.0,-0.0,-0.0,-0.0,-0.0,-0.0,0.0112,0.1121,0.1514,0.1401,0.0392,0.0336,0.1119,0.3599,0.4507,0.4501,0.4494,0.4484,0.4473,0.4473,0.4525,0.4574,0.4787,0.468,0.4595,0.4865,0.4826,0.4241,0.2334,-0.0639,-0.3913,-0.7308,-0.6963,-0.6569,-0.8682,-1.2268,-1.4077,-1.1336,-1.1153,-1.0901,-0.9474,-0.9021,-0.8896,-0.9003,-1.1584,-1.1271,-0.5659,-0.363,0.0168,0.7304,1.2187,1.8174,2.6009,2.7315,2.8242,2.9215,2.8657,2.8555,2.9022,2.8091,2.7337,2.6808,2.7017,2.6986,2.6736,2.6787,2.6886,0.0,0.0,0.0,0.6507,0.7019,0.7526,0.7734,0.821,0.8633,0.8752,0.8804,0.8804,0.8804,0.8209,0.723,0.5814,0.5538,0.5273,0.4625,0.4519,0.4519,0.4515,0.4515,0.4515,0.4515,0.4515,0.4515,0.4519,0.4519,0.4522,0.448,0.3014,0.1452,0.0056,-0.0,-0.0,-0.0,-0.0,-0.0,-0.0,-0.0,-0.0,-0.0,-0.0,-0.0,-0.0,-0.0,-0.0,-0.0,-0.0,-0.0,0.028,0.3317,0.4514,0.4169,0.1229,0.1004,0.24,0.3993,0.4497,0.448,0.448,0.4525,0.4519,0.4515,0.4515,0.468,0.5324,0.5058,0.4736,0.5324,0.5136,0.4042,0.0989,-0.1996,-0.566,-1.1283,-1.1309,-1.0981,-1.3301,-1.3993,-1.3586,-1.1749,-1.2331,-1.1534,-0.7264,-0.4719,-0.2462,-0.0249,-0.1138,-0.1076,0.1279,0.8242,1.1124,0.7127,1.9152,2.7081,2.7587,2.8208,2.8646,2.8784,2.9015,2.8743,2.7904,2.793,2.8026,2.8192,2.7994,2.8141,2.8594,2.7528,2.6948,0.6806,0.0,0.0,0.0,0.0,0.0,0.7609,0.8113,0.8533,0.8752,0.8804,0.8804,0.8804,0.8646,0.8209,0.723,0.6195,0.5433,0.5273,0.4787,0.468,0.5164,0.5218,0.5218,0.5218,0.5218,0.5003,0.4519,0.4519,0.4525,0.449,0.2014,0.0448,-0.0,-0.0,-0.0,-0.0,-0.0,-0.0,-0.0,-0.0,-0.0,-0.0,-0.0,-0.0,-0.0,-0.0,-0.0,-0.0,-0.0,-0.0,0.028,0.3317,0.4514,0.4396,0.3591,0.2796,0.2399,0.3978,0.4484,0.4477,0.4525,0.4522,0.457,0.5058,0.5218,0.5382,0.6091,0.615,0.5932,0.5597,0.5033,0.3711,0.0111,-0.4117,-0.822,-1.1126,-1.1825,-1.2149,-1.3182,-1.341,-1.2842,-1.0885,-0.8795,-0.6447,-0.352,-0.1477,0.1041,0.4495,0.5703,0.8103,1.2961,1.6525,1.7821,1.6012,2.0969,2.4532,2.5405,2.6836,2.7993,2.8765,2.7856,2.7469,2.7754,2.7153,2.7198,2.7909,2.8338,2.8688,2.8955,2.8347,2.7619,0.0,0.0,0.0,0.6468,0.0,0.0,0.7028,0.7516,0.7937,0.7883,0.8103,0.8321,0.8321,0.8593,0.8646,0.8209,0.7176,0.6303,0.5977,0.5605,0.5496,0.5928,0.5982,0.5982,0.5982,0.5706,0.5324,0.4948,0.468,0.4242,0.3583,0.1287,-0.0,-0.0,-0.0,-0.0,-0.0,-0.0,-0.0,-0.0,-0.0,-0.0,-0.0,-0.0,-0.0,-0.0,-0.0,-0.0,0.0112,0.1345,0.185,0.1962,0.3084,0.3931,0.4497,0.449,0.3916,0.3289,0.4193,0.4477,0.4525,0.4519,0.4677,0.5003,0.5378,0.5706,0.6091,0.6853,0.7074,0.6799,0.576,0.4992,0.3536,-0.0219,-0.5428,-0.9725,-1.02,-1.1563,-1.2978,-1.4161,-1.3234,-1.1366,-0.8581,-0.576,-0.2847,0.03,0.3416,0.6844,1.0732,1.2125,1.4538,1.9141,2.0566,2.1183,2.1192,2.3048,2.4366,2.4763,2.6436,2.7469,2.7581,2.6906,2.6546,2.6619,2.611,2.6246,2.7051,2.8319,2.8992,2.9153,2.8905,2.8191,0.0,0.0,0.0,0.6327,0.6679,0.0,0.6374,0.6821,0.7197,0.6822,0.7326,0.7771,0.7741,0.8271,0.8692,0.8711,0.8199,0.7528,0.6799,0.6642,0.6642,0.6696,0.6696,0.6696,0.6696,0.6036,0.5597,0.5487,0.4897,0.3849,0.2286,0.0783,-0.0,-0.0,-0.0,-0.0,-0.0,-0.0,-0.0,-0.0,-0.0,0.0168,0.0505,0.0505,0.0392,0.0224,0.0224,0.0224,0.0448,0.3144,0.434,0.434,0.2965,0.3294,0.448,0.4477,0.4525,0.4519,0.4473,0.4525,0.4625,0.4625,0.5058,0.5651,0.5706,0.6199,0.6858,0.7616,0.783,0.7503,0.6032,0.4988,0.3364,-0.0436,-0.6047,-1.0233,-0.9144,-1.06,-1.2512,-1.3942,-1.1908,-0.8772,-0.5001,-0.2783,-0.0055,0.4213,0.8758,1.3055,1.6526,1.7492,1.8846,2.1417,2.182,2.2415,2.3651,2.4968,2.5476,2.5055,2.6433,2.6847,2.5905,2.6116,2.5877,2.5072,2.5011,2.5349,2.6119,2.8073,2.9016,2.8987,2.8981,2.8405,0.6624,0.6724,0.6743,0.6507,0.6505,0.0,0.6679,0.7089,0.7514,0.7674,0.8007,0.8193,0.7973,0.8082,0.82,0.8116,0.8191,0.8069,0.7534,0.6966,0.6804,0.7402,0.7509,0.7509,0.7509,0.6799,0.6145,0.5542,0.4904,0.3799,0.2287,0.0781,-0.0,-0.0,-0.0,-0.0,-0.0,-0.0,-0.0,-0.0,-0.0,0.1289,0.3602,0.3602,0.2972,0.1786,0.1786,0.1786,0.1842,0.24,0.3365,0.4455,0.4147,0.4252,0.4477,0.4525,0.4519,0.4519,0.4519,0.4842,0.5328,0.5328,0.5819,0.6475,0.7069,0.7396,0.7616,0.8374,0.8593,0.8262,0.6745,0.483,0.2224,-0.1821,-0.6023,-0.9468,-1.0677,-0.8795,-0.6101,-0.3609,-0.3206,-0.256,-0.0274,0.1805,0.4249,0.7583,1.0779,1.3299,1.473,1.8355,2.1172,2.2136,2.3228,2.4122,2.4816,2.4956,2.5095,2.5323,2.5243,2.5336,2.5648,2.5415,2.5137,2.4859,2.4489,2.5149,2.689,2.8055,2.8291,2.7668,2.7668,2.7268,0.671,0.6901,0.6898,0.6737,0.6606,0.0,0.0,0.6619,0.6974,0.6928,0.7384,0.7788,0.7657,0.7997,0.8165,0.798,0.8283,0.8319,0.7765,0.7715,0.783,0.8209,0.8262,0.8262,0.8262,0.7563,0.6691,0.5597,0.4889,0.4177,0.3405,0.1228,-0.0,-0.0,-0.0,-0.0,-0.0,-0.0,-0.0,-0.0,0.1514,0.3033,0.4514,0.4507,0.4101,0.3357,0.3357,0.3357,0.3357,0.3352,0.3808,0.4494,0.4484,0.4477,0.4525,0.4519,0.4519,0.4574,0.4897,0.5218,0.5542,0.5928,0.6529,0.7235,0.7616,0.7937,0.8321,0.8699,0.8804,0.848,0.6966,0.4765,0.2059,-0.1347,-0.5515,-0.8451,-0.7611,-0.493,-0.1744,0.1539,0.3714,0.5181,0.5641,0.5811,0.6789,0.9472,1.1739,1.3771,1.5581,1.8949,2.1441,2.2263,2.2964,2.3553,2.4047,2.4375,2.4476,2.4247,2.4647,2.4929,2.5049,2.5024,2.493,2.4802,2.4862,2.5329,2.6261,2.7131,2.7262,2.6699,2.6675,2.6293,0.6901,0.707,0.7027,0.6914,0.6737,0.64,0.0,0.0,0.0,0.6031,0.6618,0.7256,0.7256,0.7744,0.805,0.7884,0.8081,0.8169,0.77,0.8193,0.8665,0.8724,0.8974,0.9061,0.8804,0.8156,0.7069,0.5592,0.4984,0.4608,0.4532,0.2174,0.0614,-0.0,-0.0,-0.0,-0.0,-0.0,-0.0,0.0056,0.3035,0.4511,0.4511,0.4497,0.449,0.449,0.449,0.449,0.449,0.448,0.4477,0.4477,0.4477,0.4525,0.4519,0.4625,0.468,0.4791,0.5492,0.5814,0.6032,0.6637,0.7289,0.7937,0.7937,0.8321,0.8804,0.8804,0.8804,0.848,0.6966,0.4877,0.2445,-0.0435,-0.428,-0.6549,-0.3667,-0.1122,0.1634,0.5014,0.8756,1.1046,1.0156,0.8923,0.8823,1.1022,1.2754,1.4769,1.7419,1.967,2.1401,2.2471,2.2561,2.2781,2.3259,2.3879,2.3956,2.3304,2.4331,2.4837,2.4509,2.4841,2.5055,2.5069,2.5302,2.5449,2.5557,2.5941,2.6171,2.6201,2.6035,2.5679,0.7131,0.7251,0.7125,0.6956,0.6642,0.6329,0.6021,0.0,0.6424,0.651,0.0,0.7054,0.7194,0.0,0.0,0.7178,0.7243,0.7288,0.7354,0.7795,0.8158,0.8424,0.9685,1.0115,0.891,0.8156,0.7069,0.5592,0.5429,0.5113,0.4536,0.4193,0.279,0.0112,-0.0,-0.0,-0.0,-0.0,-0.0,0.0056,0.3035,0.4507,0.4497,0.4487,0.4477,0.4522,0.4522,0.4522,0.4522,0.4519,0.4519,0.4519,0.4519,0.4519,0.457,0.5164,0.5433,0.5546,0.6258,0.6912,0.745,0.7563,0.8049,0.8699,0.8699,0.8752,0.8804,0.8804,0.8804,0.848,0.6966,0.5441,0.3317,-0.0378,-0.1796,-0.2295,-0.2155,0.0479,0.4369,0.9673,1.0753,1.0588,0.9849,1.0136,1.1073,1.2969,1.481,1.6754,1.9051,2.0989,2.2493,2.3435,2.3537,2.377,2.4271,2.4069,2.3912,2.3798,2.4001,2.4245,2.4502,2.4931,2.5457,2.6034,2.5005,2.4959,2.6019,2.5035,2.5245,2.653,2.5987,2.5787,0.7397,0.751,0.7385,0.713,0.7032,0.6871,0.6508,0.672,0.6981,0.7044,0.0,0.0,0.0,0.0,0.0,0.0,0.7163,0.7203,0.6874,0.7808,0.838,0.797,0.865,0.8982,0.8493,0.8384,0.7817,0.6608,0.6545,0.6235,0.5496,0.4862,0.3926,0.2664,0.0891,-0.0,-0.0,0.1738,0.2639,0.2639,0.3872,0.449,0.4487,0.4473,0.4522,0.4519,0.4519,0.4732,0.5058,0.5058,0.5332,0.5719,0.5719,0.5441,0.5167,0.5873,0.6145,0.6258,0.6966,0.745,0.7777,0.8209,0.8533,0.8804,0.8804,0.8804,0.8804,0.8804,0.8804,0.854,0.7503,0.582,0.3875,0.1847,0.0763,0.0436,0.1453,0.4983,0.8741,1.1166,1.2083,1.2522,1.2599,1.2213,1.2445,1.3936,1.5339,1.6896,1.8764,2.0264,2.1481,2.2392,2.2486,2.269,2.3177,2.3206,2.3293,2.3498,2.415,2.4671,2.4949,2.5223,2.5442,2.5558,2.5508,2.5702,2.6155,2.5636,2.574,2.634,2.5546,2.525,0.7656,0.7734,0.7562,0.7344,0.7295,0.7214,0.6849,0.7031,0.7264,0.7412,0.7432,0.0,0.0,0.0,0.7203,0.7077,0.0,0.7121,0.6624,0.7589,0.8136,0.7631,0.7783,0.8017,0.823,0.838,0.8114,0.7197,0.7274,0.7018,0.6152,0.5533,0.4951,0.449,0.2098,0.0724,0.0615,0.2747,0.4107,0.4507,0.449,0.448,0.448,0.4522,0.4519,0.4519,0.4677,0.5054,0.5542,0.5706,0.6091,0.6642,0.6804,0.6583,0.6195,0.6691,0.6912,0.702,0.7723,0.7996,0.8103,0.8646,0.8804,0.8804,0.8804,0.891,0.9061,0.9061,0.9061,0.8949,0.8389,0.6961,0.5321,0.4263,0.3504,0.3558,0.5498,0.8756,1.1429,1.1889,1.3381,1.4619,1.4858,1.4117,1.3903,1.5286,1.6267,1.7513,1.9336,2.0278,2.1101,2.1943,2.196,2.2079,2.2517,2.273,2.3058,2.3605,2.4439,2.5023,2.5292,2.5421,2.5405,2.5182,2.5755,2.6047,2.6034,2.602,2.6032,2.6022,2.5242,2.4929,0.7956,0.7965,0.7565,0.75,0.7295,0.7083,0.7013,0.6896,0.6947,0.7379,0.7211,0.7111,0.7769,0.7408,0.7098,0.7364,0.7024,0.0,0.0,0.6856,0.708,0.7456,0.7678,0.797,0.8334,0.7923,0.7369,0.6767,0.7271,0.7068,0.5878,0.6513,0.6171,0.4543,0.3474,0.2652,0.2119,0.2232,0.3019,0.4497,0.4484,0.448,0.448,0.4522,0.4519,0.4519,0.5164,0.5487,0.5542,0.6258,0.6588,0.6696,0.7402,0.767,0.7616,0.767,0.767,0.7777,0.8533,0.8752,0.8752,0.8804,0.8804,0.8804,0.8804,0.9263,0.9762,0.9762,0.9762,0.9755,0.9644,0.9173,0.8164,0.6265,0.6538,0.7722,0.9602,1.0395,1.1105,1.2503,1.4688,1.6151,1.5548,1.5448,1.5911,1.7489,1.8176,1.9351,2.1699,2.2023,2.2327,2.3052,2.2873,2.2797,2.3141,2.3165,2.3627,2.4678,2.4846,2.5023,2.5292,2.5421,2.5466,2.5399,2.5418,2.5495,2.561,2.5544,2.5551,2.5614,2.5253,2.5095,0.8173,0.8421,0.8406,0.7948,0.8112,0.8246,0.7784,0.7558,0.7619,0.8045,0.7971,0.7823,0.8114,0.791,0.7687,0.7631,0.7356,0.7125,0.0,0.7032,0.6949,0.6779,0.7007,0.717,0.7197,0.7508,0.7459,0.6997,0.7647,0.7732,0.6954,0.7241,0.7092,0.6452,0.4839,0.3787,0.3417,0.3597,0.3929,0.4291,0.4695,0.5008,0.5167,0.5468,0.5695,0.5882,0.615,0.6524,0.6961,0.7235,0.7616,0.8103,0.8321,0.8427,0.8427,0.8427,0.8427,0.848,0.8699,0.8804,0.8804,0.8804,0.8804,0.8857,0.9309,0.9614,0.9917,1.0364,1.0466,1.0458,1.0434,0.9894,0.9221,0.8553,0.8684,0.9356,1.0839,1.167,1.2695,1.4767,1.5835,1.665,1.7518,1.8114,1.8541,1.8651,1.9401,2.056,2.2214,2.2435,2.2626,2.3124,2.3093,2.3069,2.3189,2.3392,2.3844,2.4559,2.4787,2.4973,2.5152,2.5411,2.5563,2.5524,2.5524,2.5577,2.5678,2.5644,2.5648,2.5657,2.5466,2.5329,0.8427,0.8632,0.8735,0.8366,0.8634,0.8858,0.8407,0.8228,0.8255,0.8585,0.8395,0.8209,0.8416,0.8394,0.829,0.8157,0.7953,0.7709,0.0,0.7321,0.7159,0.6797,0.6848,0.6816,0.6618,0.6945,0.7161,0.718,0.7808,0.804,0.7664,0.7975,0.7923,0.7492,0.5906,0.485,0.447,0.4405,0.4431,0.4433,0.4888,0.5293,0.5606,0.601,0.6271,0.6468,0.6822,0.7235,0.7723,0.799,0.8374,0.8804,0.8804,0.8804,0.8804,0.8804,0.8804,0.8804,0.8804,0.8956,0.9159,0.9159,0.9309,0.9614,1.0012,1.0312,1.0618,1.1015,1.1308,1.1548,1.1796,1.1297,1.0806,1.1064,1.0964,1.1047,1.2175,1.3104,1.4244,1.6053,1.7014,1.7877,1.8904,2.0011,2.0544,1.9981,2.0747,2.1782,2.2842,2.2981,2.3165,2.362,2.3486,2.3346,2.3212,2.3628,2.4001,2.4301,2.4694,2.4961,2.5092,2.5416,2.5754,2.6063,2.5765,2.5784,2.6152,2.5859,2.5703,2.5703,2.56,2.5499]},{"header":{"parameterUnit":"m.s-1","parameterCategory":1,"la1":30.6,"la2":29.2853,"lo1":-89.7004,"lo2":-87.6739,"dy":0.0162,"dx":0.0183,"nx":112,"ny":82,"refTime":"2023-05-19T00:00:00:Z","depth":0,"parameterNumber":3,"parameterNumberName":"V-component_of_WINDS"},"data":[0.0,0.0,0.0,0.0,0.0,0.0,0.0,0.0,0.0,0.0,0.0,0.0,0.0,0.0,0.0,0.0,0.0,0.0,0.0,0.0,0.0,0.0,0.0,0.0,0.0,0.0,0.0,0.0,0.0,0.0,0.0,0.0,0.0,0.0,0.0,0.0,0.0,0.0,0.0,0.0,0.0,0.0,0.0,0.0,0.0,0.0,0.0,0.0,0.0,0.0,0.0,0.0,0.0,0.0,0.0,0.0,0.0,0.0,0.0,0.0,0.0,0.0,0.0,0.0,0.0,0.0,0.0,0.0,0.0,0.0,0.0,0.0,0.0,0.0,0.0,0.0,0.0,0.0,0.0,0.0,0.0,0.0,0.0,0.0,0.0,0.0,0.0,0.0,0.0,0.0,-1.3374,-1.5496,-1.7073,-1.7757,-1.7216,-1.7181,-1.6536,-1.5033,0.0,0.0,0.0,0.0,0.0,0.0,0.0,0.0,0.0,0.0,0.0,0.0,0.0,0.0,0.0,0.0,0.0,0.0,0.0,0.0,0.0,0.0,0.0,0.0,0.0,0.0,0.0,0.0,0.0,0.0,0.0,0.0,0.0,0.0,0.0,0.0,0.0,0.0,0.0,0.0,0.0,0.0,0.0,0.0,0.0,0.0,0.0,0.0,0.0,0.0,0.0,0.0,0.0,0.0,0.0,0.0,0.0,0.0,0.0,0.0,0.0,0.0,0.0,0.0,0.0,0.0,0.0,0.0,0.0,0.0,0.0,0.0,0.0,0.0,0.0,0.0,0.0,0.0,0.0,0.0,0.0,0.0,0.0,0.0,0.0,0.0,0.0,0.0,0.0,0.0,0.0,0.0,0.0,0.0,0.0,0.0,0.0,0.0,0.0,0.0,0.0,0.0,0.0,0.0,-1.4879,-1.6522,-1.7715,-1.8162,-1.7492,-1.6946,-1.6187,-1.515,0.0,0.0,0.0,0.0,0.0,0.0,0.0,0.0,0.0,0.0,0.0,0.0,0.0,0.0,0.0,0.0,0.0,0.0,0.0,0.0,0.0,0.0,0.0,0.0,0.0,0.0,0.0,0.0,0.0,0.0,0.0,0.0,0.0,0.0,0.0,0.0,0.0,0.0,0.0,0.0,0.0,0.0,0.0,0.0,0.0,0.0,0.0,0.0,0.0,0.0,0.0,0.0,0.0,0.0,0.0,0.0,0.0,0.0,0.0,0.0,0.0,0.0,0.0,0.0,0.0,0.0,0.0,0.0,0.0,0.0,0.0,0.0,0.0,0.0,0.0,0.0,0.0,0.0,0.0,0.0,0.0,0.0,0.0,0.0,0.0,0.0,0.0,0.0,0.0,0.0,0.0,0.0,0.0,0.0,0.0,0.0,0.0,0.0,0.0,0.0,0.0,0.0,0.0,-1.4344,-1.5207,-1.6249,-1.6908,-1.7141,-1.6875,-1.6237,-1.5669,-1.5243,-1.5914,0.0,0.0,0.0,0.0,0.0,0.0,0.0,0.0,0.0,0.0,0.0,0.0,0.0,0.0,0.0,0.0,0.0,0.0,0.0,0.0,0.0,0.0,0.0,0.0,0.0,0.0,0.0,0.0,0.0,0.0,0.0,0.0,0.0,0.0,0.0,0.0,0.0,0.0,0.0,0.0,0.0,0.0,0.0,0.0,0.0,0.0,0.0,0.0,0.0,0.0,0.0,0.0,0.0,0.0,0.0,0.0,0.0,0.0,0.0,0.0,0.0,0.0,0.0,0.0,0.0,0.0,0.0,0.0,0.0,0.0,0.0,0.0,0.0,0.0,0.0,0.0,0.0,0.0,0.0,0.0,0.0,0.0,0.0,0.0,0.0,0.0,0.0,0.0,0.0,0.0,0.0,0.0,0.0,0.0,0.0,0.0,0.0,0.0,0.0,0.0,0.0,0.0,-1.4228,-1.4902,-1.561,-1.5997,-1.6236,-1.6331,-1.5708,-1.5292,-1.5295,-1.6246,0.0,0.0,0.0,0.0,0.0,0.0,0.0,0.0,0.0,0.0,0.0,0.0,0.0,0.0,0.0,0.0,0.0,0.0,0.0,0.0,0.0,0.0,0.0,0.0,0.0,0.0,0.0,0.0,0.0,0.0,0.0,0.0,0.0,0.0,0.0,0.0,0.0,0.0,0.0,0.0,0.0,0.0,0.0,0.0,0.0,0.0,0.0,0.0,0.0,0.0,0.0,0.0,0.0,0.0,0.0,0.0,0.0,0.0,0.0,0.0,0.0,0.0,0.0,0.0,0.0,0.0,0.0,0.0,0.0,0.0,0.0,0.0,0.0,0.0,0.0,0.0,0.0,0.0,0.0,0.0,0.0,0.0,0.0,0.0,0.0,0.0,0.0,0.0,0.0,0.0,0.0,0.0,0.0,0.0,0.0,0.0,0.0,0.0,0.0,0.0,0.0,0.0,-1.368,-1.3977,-1.495,-1.5757,-1.6284,-1.6464,-1.576,-1.5294,-1.5307,-1.682,0.0,0.0,0.0,0.0,0.0,0.0,0.0,0.0,0.0,0.0,0.0,0.0,0.0,0.0,0.0,0.0,0.0,0.0,0.0,0.0,0.0,0.0,0.0,0.0,0.0,0.0,0.0,0.0,0.0,0.0,0.0,0.0,0.0,0.0,0.0,0.0,0.0,0.0,0.0,0.0,0.0,0.0,0.0,0.0,0.0,0.0,0.0,0.0,0.0,0.0,0.0,0.0,0.0,0.0,0.0,0.0,0.0,0.0,0.0,0.0,0.0,0.0,0.0,0.0,0.0,0.0,0.0,0.0,0.0,0.0,0.0,0.0,0.0,0.0,0.0,0.0,0.0,0.0,0.0,0.0,0.0,0.0,0.0,0.0,0.0,0.0,0.0,0.0,0.0,0.0,0.0,0.0,0.0,0.0,0.0,0.0,0.0,0.0,0.0,0.0,0.0,0.0,-1.4116,-1.409,-1.4973,-1.5405,-1.5664,-1.5747,-1.5503,-1.5362,-1.5352,0.0,0.0,0.0,0.0,0.0,0.0,0.0,0.0,0.0,0.0,0.0,0.0,0.0,0.0,0.0,0.0,0.0,0.0,0.0,0.0,0.0,0.0,0.0,0.0,0.0,0.0,0.0,0.0,0.0,0.0,0.0,0.0,0.0,0.0,0.0,0.0,0.0,0.0,0.0,0.0,0.0,0.0,0.0,0.0,0.0,0.0,0.0,0.0,0.0,0.0,0.0,0.0,0.0,0.0,0.0,0.0,0.0,0.0,0.0,0.0,0.0,0.0,0.0,0.0,0.0,0.0,0.0,0.0,0.0,0.0,0.0,0.0,0.0,0.0,0.0,0.0,0.0,0.0,0.0,0.0,0.0,0.0,0.0,0.0,0.0,0.0,0.0,0.0,0.0,0.0,0.0,0.0,0.0,0.0,0.0,0.0,0.0,0.0,0.0,0.0,0.0,0.0,-1.4673,-1.4247,-1.4118,-1.4698,-1.5082,-1.5289,-1.5299,-1.5358,-1.5399,-1.5407,0.0,0.0,0.0,0.0,0.0,0.0,0.0,0.0,0.0,0.0,0.0,0.0,0.0,0.0,0.0,0.0,0.0,0.0,0.0,0.0,0.0,0.0,0.0,0.0,0.0,0.0,0.0,0.0,0.0,0.0,0.0,0.0,0.0,0.0,0.0,0.0,0.0,0.0,0.0,0.0,0.0,0.0,0.0,0.0,0.0,0.0,0.0,0.0,0.0,0.0,0.0,0.0,0.0,0.0,0.0,0.0,0.0,0.0,0.0,0.0,0.0,0.0,0.0,0.0,0.0,0.0,0.0,0.0,0.0,0.0,0.0,0.0,0.0,0.0,0.0,0.0,0.0,0.0,0.0,0.0,0.0,0.0,0.0,0.0,0.0,0.0,0.0,0.0,0.0,0.0,0.0,0.0,0.0,0.0,0.0,0.0,0.0,0.0,0.0,0.0,0.0,0.0,-1.4014,-1.3957,-1.393,-1.4004,-1.4797,-1.5294,-1.531,-1.5357,-1.5392,0.0,0.0,0.0,0.0,0.0,0.0,0.0,0.0,0.0,0.0,0.0,0.0,0.0,0.0,0.0,0.0,0.0,0.0,0.0,0.0,0.0,0.0,0.0,0.0,0.0,0.0,0.0,0.0,0.0,0.0,0.0,0.0,0.0,0.0,0.0,0.0,0.0,0.0,0.0,0.0,0.0,0.0,0.0,0.0,0.0,0.0,0.0,0.0,0.0,0.0,0.0,0.0,0.0,0.0,0.0,0.0,0.0,0.0,0.0,0.0,0.0,0.0,0.0,0.0,0.0,0.0,0.0,0.0,0.0,0.0,0.0,0.0,0.0,0.0,0.0,0.0,0.0,0.0,0.0,0.0,0.0,0.0,0.0,0.0,0.0,0.0,0.0,0.0,0.0,0.0,0.0,0.0,0.0,0.0,0.0,0.0,0.0,0.0,0.0,0.0,0.0,0.0,0.0,-1.4976,-1.4396,-1.4214,-1.486,-1.5183,-1.5352,-1.531,-1.5358,-1.54,-1.5391,0.0,0.0,0.0,0.0,0.0,0.0,0.0,0.0,0.0,0.0,0.0,0.0,0.0,0.0,0.0,0.0,0.0,0.0,0.0,0.0,0.0,0.0,0.0,0.0,0.0,0.0,0.0,0.0,0.0,0.0,0.0,0.0,0.0,0.0,0.0,0.0,0.0,0.0,0.0,0.0,0.0,0.0,0.0,0.0,0.0,0.0,0.0,0.0,0.0,0.0,0.0,0.0,0.0,0.0,0.0,0.0,0.0,0.0,0.0,0.0,0.0,0.0,0.0,0.0,0.0,0.0,0.0,0.0,0.0,0.0,0.0,0.0,0.0,0.0,0.0,0.0,0.0,0.0,0.0,0.0,0.0,0.0,0.0,0.0,0.0,0.0,0.0,0.0,0.0,0.0,0.0,0.0,0.0,0.0,0.0,0.0,0.0,0.0,0.0,0.0,0.0,0.0,-1.5449,-1.4901,-1.4755,-1.5253,-1.5366,-1.5366,-1.531,-1.536,-1.5391,-1.5391,0.0,0.0,0.0,0.0,0.0,0.0,0.0,0.0,0.0,0.0,0.0,0.0,0.0,0.0,0.0,0.0,0.0,0.0,0.0,0.0,0.0,0.0,0.0,0.0,0.0,0.0,0.0,0.0,0.0,0.0,0.0,0.0,0.0,0.0,0.0,0.0,0.0,0.0,0.0,0.0,0.0,0.0,0.0,0.0,0.0,0.0,0.0,0.0,0.0,0.0,0.0,0.0,0.0,0.0,0.0,0.0,0.0,0.0,0.0,0.0,0.0,0.0,0.0,0.0,0.0,0.0,0.0,0.0,0.0,0.0,0.0,0.0,0.0,0.0,0.0,0.0,0.0,0.0,0.0,0.0,0.0,0.0,0.0,0.0,0.0,0.0,0.0,0.0,0.0,0.0,0.0,0.0,0.0,0.0,0.0,0.0,0.0,0.0,0.0,0.0,0.0,0.0,-1.551,-1.5397,-1.535,-1.5286,-1.5347,-1.5353,-1.5287,-1.5346,-1.539,-1.5391,0.0,0.0,0.0,0.0,0.0,0.0,0.0,0.0,0.0,0.0,0.0,0.0,0.0,0.0,0.0,0.0,0.0,0.0,0.0,0.0,0.0,0.0,0.0,0.0,0.0,0.0,0.0,0.0,0.0,0.0,0.0,0.0,0.0,0.0,0.0,0.0,0.0,0.0,0.0,0.0,0.0,0.0,0.0,0.0,0.0,0.0,0.0,0.0,0.0,0.0,0.0,0.0,0.0,0.0,0.0,0.0,0.0,0.0,0.0,0.0,-2.0712,-2.0554,0.0,0.0,0.0,0.0,0.0,0.0,0.0,0.0,0.0,0.0,0.0,0.0,0.0,0.0,0.0,0.0,0.0,0.0,0.0,0.0,0.0,0.0,0.0,0.0,0.0,0.0,0.0,0.0,0.0,0.0,0.0,0.0,0.0,0.0,0.0,0.0,0.0,0.0,0.0,0.0,-1.5576,-1.5353,-1.5273,-1.5167,-1.5159,-1.5152,-1.5135,-1.5202,-1.5297,-1.539,-1.6211,0.0,0.0,0.0,0.0,0.0,0.0,0.0,0.0,0.0,0.0,0.0,0.0,0.0,0.0,0.0,0.0,0.0,0.0,0.0,0.0,0.0,0.0,0.0,0.0,0.0,0.0,0.0,0.0,0.0,0.0,0.0,0.0,0.0,0.0,0.0,0.0,0.0,0.0,0.0,0.0,0.0,0.0,0.0,0.0,0.0,0.0,0.0,0.0,0.0,0.0,0.0,0.0,0.0,0.0,0.0,0.0,0.0,0.0,0.0,-2.203,-2.1359,0.0,0.0,0.0,0.0,0.0,0.0,0.0,0.0,0.0,0.0,0.0,0.0,0.0,0.0,0.0,0.0,0.0,0.0,0.0,0.0,0.0,0.0,0.0,0.0,0.0,0.0,0.0,0.0,0.0,0.0,0.0,0.0,0.0,0.0,0.0,0.0,0.0,0.0,0.0,0.0,-1.5957,-1.5293,-1.4849,-1.4684,-1.4607,-1.4624,-1.4744,-1.4909,-1.511,-1.5335,-1.6165,0.0,0.0,0.0,0.0,0.0,0.0,0.0,0.0,0.0,0.0,0.0,0.0,0.0,0.0,0.0,0.0,0.0,0.0,0.0,0.0,0.0,0.0,0.0,0.0,0.0,0.0,0.0,0.0,0.0,0.0,0.0,0.0,0.0,0.0,0.0,0.0,0.0,0.0,0.0,0.0,0.0,0.0,0.0,0.0,0.0,0.0,0.0,0.0,0.0,0.0,0.0,0.0,0.0,-2.4119,-2.46,-2.527,-2.5901,-2.5935,-2.5389,-2.419,-2.2863,-2.1502,-2.1603,0.0,0.0,0.0,0.0,0.0,0.0,0.0,0.0,0.0,0.0,0.0,0.0,0.0,0.0,0.0,0.0,0.0,0.0,0.0,0.0,0.0,0.0,-2.0134,-2.0145,-2.0,-1.9498,-1.8259,0.0,0.0,0.0,0.0,0.0,0.0,0.0,0.0,0.0,0.0,0.0,-1.5889,-1.4926,-1.4174,-1.3812,-1.3777,-1.3898,-1.4227,-1.4562,-1.4915,-1.5248,-1.6109,-1.6937,0.0,0.0,0.0,0.0,0.0,0.0,0.0,0.0,0.0,0.0,0.0,0.0,0.0,0.0,0.0,0.0,0.0,0.0,0.0,0.0,0.0,0.0,0.0,0.0,0.0,0.0,0.0,0.0,0.0,0.0,0.0,0.0,-2.1542,-2.1547,0.0,0.0,0.0,0.0,0.0,0.0,0.0,0.0,0.0,0.0,0.0,0.0,0.0,-2.3775,-2.3267,-2.4981,-2.5454,-2.4663,-2.6124,-2.6866,-2.7009,-2.7834,-2.8175,-2.8089,-2.8022,0.0,-2.3398,-2.2008,0.0,0.0,0.0,0.0,0.0,0.0,0.0,0.0,0.0,0.0,0.0,0.0,0.0,0.0,0.0,0.0,0.0,0.0,0.0,0.0,0.0,0.0,-1.9994,-2.0557,-2.0148,-1.9761,-2.0255,-1.9349,-1.8222,-1.7481,-1.8092,-1.8728,0.0,0.0,0.0,0.0,0.0,0.0,-1.411,-1.3635,-1.3184,-1.2217,-1.2571,-1.307,-1.3587,-1.4232,-1.4768,-1.5116,-1.6053,-1.6932,-1.767,-1.7887,0.0,0.0,0.0,0.0,0.0,0.0,0.0,0.0,0.0,0.0,0.0,0.0,0.0,0.0,0.0,0.0,0.0,0.0,0.0,0.0,0.0,0.0,0.0,0.0,0.0,0.0,0.0,0.0,0.0,-2.1188,-2.1715,-2.1757,-2.1778,-2.1809,0.0,0.0,0.0,0.0,0.0,0.0,0.0,0.0,0.0,-2.4764,-2.5639,-2.6205,-2.6417,-2.7676,-2.8293,-2.8282,-2.9042,-2.9612,-3.0065,-3.0444,-3.0435,-3.0095,-2.9694,-2.8505,-2.6657,-2.4524,-2.3353,-2.2869,0.0,0.0,0.0,0.0,-2.2018,-2.1866,-2.1737,-2.1757,-2.1888,-2.2269,0.0,0.0,0.0,0.0,0.0,0.0,0.0,-2.1602,-2.1809,-2.1472,-2.1146,-2.1409,-2.1212,-2.1087,-2.1548,-2.1135,-2.047,-1.9706,-1.9563,-1.9583,-1.9638,-1.923,0.0,0.0,0.0,-1.5726,-1.3854,-1.2806,-1.1806,-1.0791,-1.0957,-1.1581,-1.2718,-1.3678,-1.4456,-1.5056,-1.6011,-1.6833,-1.7498,-1.7806,-1.7892,0.0,0.0,0.0,0.0,0.0,0.0,0.0,0.0,0.0,0.0,0.0,0.0,0.0,0.0,0.0,0.0,0.0,0.0,0.0,0.0,0.0,0.0,0.0,0.0,0.0,0.0,0.0,0.0,-2.1552,-2.2279,-2.2094,-2.2461,-2.2639,0.0,0.0,0.0,0.0,0.0,0.0,-2.5091,-2.534,-2.6044,-2.7311,-2.8192,-2.8836,-2.9207,-3.0136,-3.0874,-3.1419,-3.145,-3.1922,-3.2721,-3.2721,-3.248,-3.201,-3.1174,-3.0299,-2.9236,-2.6736,-2.5111,-2.4167,-2.3918,-2.3744,-2.3583,-2.3328,-2.3006,-2.2645,-2.252,-2.2518,-2.2641,-2.2919,-2.2984,-2.2975,-2.3212,0.0,0.0,0.0,0.0,-2.2571,-2.2607,-2.2348,-2.2106,-2.2286,-2.2204,-2.2192,-2.2603,-2.2507,-2.2208,-2.1665,-2.11,-2.0708,-2.0577,-1.9554,0.0,-1.9007,-1.7148,-1.4914,-1.2621,-1.1326,-0.9998,-0.8289,-0.8912,-1.0142,-1.1855,-1.3168,-1.4246,-1.5023,-1.5978,-1.6766,-1.7379,-1.7547,-1.7362,-1.6812,0.0,0.0,0.0,0.0,0.0,0.0,0.0,0.0,0.0,0.0,0.0,0.0,0.0,0.0,0.0,0.0,0.0,0.0,0.0,0.0,0.0,0.0,0.0,0.0,0.0,0.0,0.0,0.0,0.0,-2.2945,-2.425,0.0,0.0,0.0,0.0,-2.4073,-2.559,-2.687,-2.7675,-2.8444,-2.919,-2.9893,-3.0945,-3.1292,-3.0877,-3.212,-3.2683,-3.2527,-3.2722,-3.325,-3.4109,-3.4109,-3.409,-3.4013,-3.3128,-3.184,-3.0129,-2.7601,-2.6986,-2.7533,-2.6472,-2.6066,-2.5996,-2.5045,-2.4157,-2.3439,-2.3431,-2.3426,-2.3572,-2.4426,-2.4298,-2.386,-2.4002,-2.3544,0.0,0.0,-2.265,-2.2562,-2.3258,-2.2722,-2.2212,-2.3039,-2.2755,-2.2546,-2.353,-2.3118,-2.2524,-2.2293,-2.2376,-2.2217,-2.1395,0.0,-2.0824,-1.908,-1.7734,-1.4824,-0.9034,-0.8606,-0.7478,-0.3914,-0.6392,-0.9067,-1.0992,-1.2841,-1.4213,-1.496,-1.594,-1.6774,-1.738,-1.7049,-1.6849,-1.6796,-1.6038,0.0,0.0,0.0,0.0,0.0,0.0,0.0,0.0,0.0,0.0,0.0,0.0,0.0,0.0,0.0,0.0,0.0,0.0,0.0,0.0,0.0,0.0,0.0,0.0,0.0,0.0,0.0,0.0,-2.6152,-2.7174,0.0,-2.747,-2.7435,-2.7644,-2.8198,-2.9284,-3.0516,-3.1885,-3.2223,-3.2994,-3.4304,-3.423,-3.4587,-3.55,-3.4894,-3.4807,-3.5249,-3.5306,-3.5238,-3.5045,-3.5565,-3.5218,-3.4141,-3.3276,-3.2275,-3.1121,-2.966,-2.8582,-2.7871,-2.7439,-2.7235,-2.7033,-2.611,-2.5503,-2.503,-2.4521,-2.4396,-2.4537,-2.4977,-2.4985,-2.4807,-2.485,-2.4687,-2.4476,-2.4447,-2.4212,-2.4025,-2.4378,-2.403,-2.3752,-2.4266,-2.4201,-2.4155,-2.4664,-2.4533,-2.4312,-2.4241,-2.3419,-2.2478,-2.1634,-2.1133,-2.0377,-1.9069,-1.7207,-1.3761,-0.7632,-0.6573,-0.5157,-0.2001,-0.4348,-0.742,-1.0564,-1.3225,-1.4835,-1.5043,-1.6009,-1.6794,-1.731,-1.646,-1.6128,-1.6475,-1.6071,-1.5721,0.0,0.0,0.0,0.0,0.0,0.0,0.0,0.0,0.0,0.0,0.0,0.0,0.0,0.0,0.0,0.0,0.0,0.0,0.0,0.0,0.0,0.0,0.0,0.0,0.0,-2.5978,-2.7871,-2.8734,-2.9786,-3.0472,-3.0501,-3.0742,-3.1253,-3.2122,-3.2678,-3.3718,-3.5391,-3.5199,-3.568,-3.7084,-3.6622,-3.6738,-3.7546,-3.6757,-3.6469,-3.6699,-3.6699,-3.643,-3.5911,-3.618,-3.5699,-3.4564,-3.341,-3.2602,-3.2025,-3.0871,-2.9756,-2.8736,-2.8641,-2.8401,-2.8039,-2.737,-2.6746,-2.6083,-2.5266,-2.5037,-2.5111,-2.5264,-2.5303,-2.5303,-2.5303,-2.5303,-2.5303,-2.5303,-2.5068,-2.4828,-2.4962,-2.479,-2.4666,-2.4937,-2.5046,-2.5141,-2.5274,-2.5303,-2.5303,-2.5303,-2.4408,-2.3405,-2.2607,-2.1806,-2.0949,-1.9922,-1.7193,-1.2895,-0.6326,-0.4315,-0.2377,0.0483,-0.2031,-0.5736,-1.0216,-1.3435,-1.5383,-1.5845,-1.6589,-1.7176,-1.7602,-1.6788,-1.6482,-1.672,-1.6571,-1.6189,-1.5575,0.0,0.0,0.0,0.0,0.0,0.0,0.0,0.0,0.0,0.0,0.0,0.0,0.0,0.0,0.0,0.0,0.0,0.0,0.0,0.0,0.0,0.0,0.0,-2.6002,-2.7821,-2.9718,-3.0593,-3.2103,-3.3064,-3.3064,-3.3814,-3.468,-3.5603,-3.5661,-3.6392,-3.8065,-3.7334,-3.7257,-3.8084,-3.8065,-3.7642,-3.6834,-3.7603,-3.7584,-3.6738,-3.6738,-3.6719,-3.6642,-3.5892,-3.5526,-3.5372,-3.366,-3.2891,-3.2737,-3.1083,-3.0398,-3.0367,-3.0103,-2.9666,-2.911,-2.888,-2.7867,-2.6486,-2.5591,-2.5303,-2.5303,-2.5303,-2.5303,-2.5303,-2.5303,-2.5303,-2.5303,-2.5303,-2.5068,-2.4828,-2.4974,-2.4904,-2.4842,-2.4974,-2.5163,-2.5303,-2.5303,-2.5303,-2.5303,-2.5303,-2.5303,-2.5082,-2.4322,-2.3547,-2.2687,-2.1656,-1.7818,0.0,-0.5055,-0.1896,0.0715,0.3465,0.0394,-0.4217,-1.0046,-1.3437,-1.5877,-1.7319,-1.7649,-1.7903,-1.8155,-1.7999,-1.7761,-1.7487,-1.7393,-1.6954,-1.6096,0.0,0.0,0.0,0.0,0.0,0.0,0.0,0.0,0.0,0.0,0.0,0.0,0.0,0.0,0.0,0.0,0.0,0.0,0.0,0.0,0.0,-2.8171,-2.9871,-2.9221,-3.1807,-3.4071,-3.4903,-3.5935,-3.6603,-3.6603,-3.6815,-3.7565,-3.9008,-3.9123,-3.9873,-4.1604,-4.0873,-4.0508,-4.0758,-3.9585,-3.9104,-3.945,-3.8488,-3.7873,-3.7642,-3.7642,-3.7007,-3.5853,-3.6199,-3.5718,-3.4507,-3.3372,-3.2564,-3.1948,-3.0852,-3.0398,-3.0398,-3.0311,-3.0189,-2.9956,-2.9267,-2.7992,-2.6486,-2.5591,-2.5303,-2.5303,-2.5303,-2.5303,-2.5303,-2.5303,-2.5303,-2.5303,-2.5303,-2.513,-2.4993,-2.5163,-2.5077,-2.4993,-2.5163,-2.5264,-2.5303,-2.5303,-2.5303,-2.5303,-2.5303,-2.5303,-2.5072,-2.4332,-2.4031,-2.3332,-2.1749,-1.8495,-1.3329,-0.5283,-0.2438,-0.069,0.0573,-0.1496,-0.5851,-1.2972,-1.5248,-1.6681,-1.7549,-1.7789,-1.7731,-1.7431,-1.6285,-1.5442,-1.4916,-1.5688,-1.6166,0.0,0.0,0.0,0.0,0.0,0.0,0.0,0.0,0.0,0.0,0.0,0.0,0.0,0.0,0.0,0.0,0.0,0.0,0.0,0.0,0.0,0.0,-3.1826,-3.3935,-3.4677,-3.5801,-3.7123,-3.8661,-3.9277,-3.9738,-4.0104,-4.0142,-4.0681,-4.1989,-4.1777,-4.2181,-4.3528,-4.2797,-4.2181,-4.1816,-4.0854,-4.0219,-3.9988,-3.9027,-3.8354,-3.8007,-3.7623,-3.6949,-3.6007,-3.6142,-3.5468,-3.4141,-3.3276,-3.2449,-3.1641,-3.0756,-3.0398,-3.0398,0.0,0.0,0.0,0.0,-2.8005,-2.7052,-2.6149,-2.561,-2.5399,-2.5736,-2.5591,-2.5303,-2.5303,-2.5303,-2.5303,-2.5303,-2.542,-2.5512,-2.533,-2.542,-2.5504,-2.533,-2.5303,-2.5303,-2.5303,-2.5303,-2.5303,-2.5303,-2.5303,0.0,-2.4774,-2.4418,-2.3862,-2.286,-1.9547,-1.4548,-0.7294,-0.372,-0.1393,-0.0182,-0.2047,-0.6043,-1.2567,-1.4993,0.0,0.0,0.0,-1.8065,-1.7294,-1.5978,0.0,0.0,0.0,-1.5888,-1.568,-1.6821,0.0,0.0,-1.7247,-1.753,0.0,0.0,0.0,0.0,0.0,0.0,0.0,0.0,0.0,0.0,0.0,0.0,0.0,0.0,0.0,0.0,-3.6406,-3.9096,-4.0881,-3.973,-3.9527,-4.17,-4.195,-4.2258,-4.3028,-4.3104,-4.3431,-4.4239,-4.3643,-4.3585,-4.4393,-4.3682,0.0,0.0,0.0,-4.1046,-3.945,-3.9431,-3.895,-3.7988,-3.7219,-3.6757,-3.6546,-3.5834,-3.5026,-3.4141,-3.3276,-3.2449,-3.1641,-3.0756,-3.0398,-3.0398,-3.0398,-3.0398,-3.0206,-2.8621,-2.8014,-2.7887,-2.7052,0.0,0.0,-2.6486,-2.6236,-2.5572,-2.5476,-2.5437,-2.5418,-2.5322,-2.5738,-2.6051,-2.5446,-2.5738,-2.6032,-2.5437,-2.5303,-2.5303,-2.5303,-2.5303,-2.5303,-2.5303,-2.5303,-2.5322,-2.539,-2.4812,-2.4355,-2.4373,-2.0877,-1.6184,-1.0442,-0.5968,-0.2575,-0.0689,-0.2567,0.0,-1.1122,-1.3921,-1.6284,-1.8348,-1.8523,-1.8071,-1.6964,-1.6053,-1.5251,-1.4523,-1.5704,-1.5783,-1.4698,-1.5932,-1.6522,-1.6502,-1.661,-1.7342,0.0,0.0,0.0,0.0,0.0,0.0,0.0,0.0,0.0,0.0,0.0,0.0,0.0,0.0,0.0,-3.5895,-3.8533,-4.1054,-4.3439,-4.3371,-4.3028,-4.2874,-4.2854,-4.2912,-4.3085,-4.3104,-4.3431,-4.4239,-4.4162,-4.4432,-4.5297,-4.4528,-4.3682,-4.2874,-4.2181,-4.1316,-4.0277,-4.0258,-3.9488,-3.8007,-3.7834,0.0,-3.5738,-3.557,-3.5026,-3.4141,-3.3276,-3.2449,-3.1641,-3.0756,-3.0398,-3.0398,-3.0398,-3.0398,-3.0294,-2.9256,-2.8494,-2.7964,-2.7785,-2.7168,-2.6587,-2.7448,-2.7574,-2.7274,-2.6563,-2.6351,0.0,-2.5495,-2.5379,-2.5465,-2.5341,-2.5398,-2.5465,-2.5341,-2.5303,-2.5303,-2.5303,-2.5303,-2.5303,-2.5303,-2.5303,-2.5322,-2.539,-2.5323,-2.5036,-2.4408,-2.2442,-1.9037,-1.3556,-1.0485,-0.845,-0.7412,-0.7394,-0.981,-1.5689,-1.5698,-1.622,-1.8144,-1.6304,-1.4642,-1.343,-1.3517,-1.3281,-1.2696,-1.4238,-1.4911,-1.4698,-1.5932,-1.6497,-1.6434,-1.6917,-1.7063,0.0,0.0,0.0,0.0,0.0,0.0,0.0,0.0,0.0,0.0,0.0,-3.0643,-3.2425,0.0,-3.6887,-3.9864,-4.1663,-4.3272,-4.4922,-4.5045,-4.4797,-4.4393,-4.4355,-4.4355,-4.4355,-4.4355,-4.4509,-4.4913,-4.4951,-4.5143,-4.5566,-4.5182,-4.4374,-4.3143,-4.2681,-4.1816,-4.0508,-4.0085,-3.9258,-3.7988,-3.7565,-3.6699,-3.5493,-3.5493,-3.5026,-3.418,-3.3737,-3.3083,-3.2275,-3.1891,-3.1698,-3.166,-3.1718,-3.1198,-3.034,-2.9948,-2.9321,-2.8591,-2.8189,-2.7768,-2.7477,-2.7862,-2.7956,-2.7783,-2.7213,-2.6768,-2.6412,-2.6282,-2.6352,-2.6339,-2.5876,-2.6173,-2.639,-2.5514,-2.5303,-2.5303,-2.5303,-2.5303,-2.5303,-2.5303,-2.5303,-2.5303,-2.5341,-2.5412,-2.5324,-2.4953,-2.3656,-2.1276,-1.7353,-1.5764,-1.4222,-1.2213,-1.2296,-1.3315,-1.5273,-1.4537,-1.4615,-1.6196,-1.462,-1.3493,-1.3107,-1.2981,-1.2822,-1.2559,-1.3663,-1.4236,-1.4236,-1.5152,-1.5588,-1.5564,-1.5872,-1.599,0.0,0.0,0.0,0.0,0.0,0.0,0.0,-3.02,-3.0443,-3.2211,-3.3266,-3.4722,-3.7539,-3.8904,-4.0527,-4.3419,-4.4471,-4.513,-4.575,-4.5699,-4.5586,-4.5586,-4.5586,-4.5586,-4.5586,-4.5586,-4.5586,-4.5586,-4.5586,-4.5586,-4.5586,-4.5432,-4.4662,-4.3143,-4.3104,-4.2258,-4.0508,-4.0027,-3.9277,-3.8238,-3.7373,-3.6526,-3.5738,-3.5738,-3.5257,-3.443,-3.4257,-3.3699,-3.291,-3.3038,-3.3019,-3.2929,-3.3231,-3.2333,-3.0871,-3.0794,-3.024,-2.9457,-2.8817,-2.8481,-2.8359,-2.8442,-2.8411,-2.8245,-2.7866,-2.7246,-2.6787,-2.7153,-2.7399,-2.7374,-2.6708,-2.7056,-2.73,-2.6091,-2.5553,-2.5341,-2.5514,-2.5418,-2.5303,-2.5303,-2.5303,-2.5303,-2.5303,-2.5341,-2.5397,-2.5466,-2.4609,-2.3134,-2.0864,-2.027,-1.8787,-1.5506,-1.5807,-1.5315,-1.3025,-1.2518,-1.2681,-1.3591,-1.3051,-1.2962,-1.3406,-1.3094,-1.2881,-1.2881,-1.3505,-1.3815,-1.3815,-1.4422,-1.4652,-1.4525,-1.4525,-1.4767,-2.65,-2.5739,-2.7123,-3.079,-3.0599,-3.1097,0.0,-3.7351,-3.6696,-3.8511,-3.9589,-4.0292,-4.0683,-4.2069,-4.3516,-4.4661,-4.5366,-4.5789,-4.5873,-4.5719,-4.5586,-4.5586,-4.5586,-4.5586,-4.5586,-4.5586,-4.5586,-4.5586,-4.5586,-4.5586,-4.5586,-4.4874,-4.4028,-4.3124,-4.3104,-4.2258,-4.0508,-4.1181,-4.0719,-3.9142,-3.8277,-3.7411,-3.6584,-3.6584,-3.6122,-3.5315,-3.4545,-3.3699,-3.291,-3.2994,-3.2974,-3.2987,-3.3826,-3.3519,-3.2545,-3.1898,-3.1158,-3.0438,-3.0346,-2.9812,-2.9279,-2.9987,-3.0011,-2.9627,-2.8888,-2.8434,-2.8064,-2.759,-2.7365,-2.732,-2.7635,-2.7094,-2.6657,-2.7435,-2.6428,-2.5514,-2.6294,-2.5851,-2.5303,-2.5303,-2.5303,-2.5303,-2.5303,-2.5303,-2.5332,-2.5408,-2.5298,-2.4588,-2.2882,-2.2074,-2.0298,-1.6768,-1.5508,-1.3797,-1.1058,-1.1308,-1.1404,-1.0943,-1.1223,-1.1619,-1.1994,-1.2608,-1.2881,-1.2881,-1.3505,-1.3815,-1.3815,-1.4422,-1.4422,-1.3909,-1.3909,-1.3956,-3.1753,-3.0704,-3.078,-3.4181,-3.5289,-3.6326,-3.9238,-3.9719,-4.002,-4.1757,-4.2793,-4.3574,-4.4062,-4.4746,-4.5312,-4.5586,-4.5839,-4.5998,-4.5902,-4.5413,-4.4895,-4.4378,-4.4241,-4.4566,-4.5509,-4.5586,-4.5586,-4.5586,-4.5586,-4.5586,-4.5586,-4.524,-4.4662,-4.3835,-4.3797,-4.297,-4.1277,-4.1623,-4.0969,-3.9296,-3.8931,-3.8296,-3.745,-3.693,-3.6257,-3.5488,-3.5122,-3.4757,-3.443,-3.4493,-3.4474,-3.4468,-3.4897,-3.4782,-3.4334,-3.3538,-3.2413,-3.1234,-3.0754,-3.0664,-3.0636,-2.996,-3.0196,-3.0651,-3.0184,-2.917,-2.8371,-2.91,-2.8538,-2.7805,-2.8112,-2.797,-2.7744,-2.7669,-2.7228,-2.6774,-2.664,-2.6313,-2.5909,-2.5399,-2.5303,-2.5303,-2.5303,-2.5303,-2.5303,-2.5341,-2.5382,-2.5098,-2.4271,-2.3559,-2.1572,-1.7498,-1.5261,-1.3094,-1.0695,-1.0007,-0.9978,-1.062,-1.0844,-1.1407,-1.2393,-1.2725,-1.2881,-1.2881,-1.3152,-1.3286,-1.3286,-1.3515,-1.3515,-1.3286,-1.3286,-1.3286,-3.4289,-3.4083,-3.4195,-3.6859,-3.8918,-4.0371,-4.084,-4.1621,-4.2656,-4.4121,-4.4922,-4.5547,-4.6172,-4.6308,-4.6269,-4.6172,-4.6113,-4.6075,-4.5972,-4.5225,-4.4461,-4.3779,-4.3412,-4.3647,-4.4814,-4.5105,-4.5336,-4.5566,-4.5586,-4.5586,-4.5586,-4.5355,-4.4855,-4.3989,-4.397,-4.3162,-4.147,-4.1681,-4.1066,-3.9623,-3.9411,-3.8969,-3.8315,-3.7219,-3.6507,-3.6161,-3.5699,-3.5493,-3.5493,-3.5565,-3.5545,-3.5493,-3.5565,-3.5545,-3.5416,-3.4845,-3.3716,-3.2377,-3.1549,-3.1642,-3.1924,-3.0554,-3.0763,-3.1507,-3.1224,-3.0166,-2.9293,-3.0648,-3.0107,-2.9157,-2.9285,-2.9216,-2.8984,-2.8427,-2.8099,-2.7794,-2.7371,-2.7121,-2.6774,-2.614,-2.5832,-2.5649,-2.5649,-2.5457,-2.5303,-2.5303,-2.5302,-2.5187,-2.4908,-2.3597,-2.1149,-1.7061,-1.4328,-1.1983,-0.9906,-0.8955,-0.9054,-1.0426,-1.0855,-1.1633,-1.2832,-1.2881,-1.2881,-1.2881,-1.2881,-1.2881,-1.2881,-1.2881,-1.2881,-1.2881,-1.2881,-1.2881,-3.1345,-3.3114,-3.5097,-3.7707,-3.9764,-4.1582,-4.3203,-4.4258,-4.5137,-4.6035,-4.623,-4.6269,-4.6308,-4.6308,-4.6308,-4.6289,-4.6172,-4.6094,-4.6093,-4.5284,-4.4647,-4.4497,-4.3718,-4.3189,-4.3195,-4.3874,-4.4682,-4.5528,-4.5586,-4.5586,-4.5586,-4.4797,-4.397,-4.3162,-4.3143,-4.2297,-4.0546,-4.1373,-4.1354,-4.045,-3.9662,-3.9277,-3.92,-3.7488,-3.7161,-3.7834,-3.6219,-3.5493,-3.5493,-3.5493,-3.5493,-3.5493,-3.5493,-3.5493,-3.5493,-3.5455,-3.4936,-3.4095,-3.3231,-3.2942,-3.2897,-3.252,-3.2307,-3.2109,-3.1846,-3.1557,-3.142,-3.1973,-3.1934,-3.167,-3.1632,-3.0789,-3.0018,-3.0266,-2.9083,-2.8102,-2.8852,-2.8409,-2.7852,-2.7832,-2.714,-2.6563,-2.6563,-2.587,-2.5303,-2.5303,-2.5141,-2.4924,-2.4643,-2.1593,-1.8199,-1.5041,-1.2371,-0.9949,-0.796,-0.837,-0.8971,-0.968,-1.1032,-1.2129,-1.2881,-1.2881,-1.2881,-1.2881,-1.2881,-1.2881,-1.2881,-1.2881,-1.2881,-1.2881,-1.2881,-1.2881,-3.4487,-3.6886,-3.919,-4.1318,-4.2786,-4.4023,-4.5156,-4.5644,-4.5957,-4.623,-4.4914,-4.3707,-4.3714,-4.3232,-4.3047,-4.3613,-4.4648,-4.5371,-4.5371,-4.5091,-4.422,-4.2383,-4.2348,-4.2227,-4.1569,-4.3184,-4.4412,-4.472,-4.5259,-4.5586,-4.5586,-4.5316,-4.4759,-4.3912,-4.3893,-4.3085,-4.1373,-4.1662,-4.1354,-4.0489,-4.0331,-3.9927,-3.935,-3.8854,-3.8142,-3.7305,-3.6689,-3.6098,-3.5565,-3.5526,-3.5493,-3.5493,-3.5493,-3.5493,-3.5493,-3.5493,-3.532,-3.4974,-3.409,-3.3681,-3.3429,-3.2721,-3.2599,-3.2711,-3.2616,-3.2051,-3.1623,-3.2705,-3.2422,-3.1894,-3.2225,-3.2,-3.1607,-3.1111,-3.0689,-3.0179,-2.9294,-2.889,-2.8544,-2.8005,-2.7198,-2.6774,-2.7351,-2.6255,-2.5163,-2.4709,-2.4304,-2.3676,-2.2616,-1.9874,-1.7142,-1.4766,-1.2673,-1.0973,-0.9835,-1.0308,-1.0998,-1.1702,-1.222,-1.2783,-1.3457,-1.3104,-1.2881,-1.2881,-1.2881,-1.2881,-1.2881,-1.2881,-1.2881,-1.2929,-1.3334,-1.3515,-3.8007,-4.0277,-4.2247,-4.4111,-4.5016,-4.5605,-4.6172,-4.6308,-4.6211,-4.5898,-4.4002,-4.2304,-4.1999,-4.0964,-4.0342,-4.0918,-4.1973,-4.3027,-4.3945,-4.3778,-4.3269,-4.2421,-4.2406,-4.2255,-4.1627,-4.3203,-4.4182,-4.3893,-4.4932,-4.5451,-4.5143,-4.5432,-4.5066,-4.3912,-4.3874,-4.3047,-4.1354,-4.1373,-4.1143,-4.062,-4.0696,-4.0444,-3.9869,-3.9361,-3.8511,-3.7433,-3.674,-3.6119,-3.5603,-3.5545,-3.5493,-3.5493,-3.5493,-3.5493,-3.5493,-3.5493,-3.5493,-3.543,-3.4853,-3.4496,-3.4154,-3.3517,-3.3352,-3.3413,-3.3308,-3.2859,-3.2599,-3.359,-3.3427,-3.3015,-3.315,-3.2938,-3.2479,-3.1637,-3.1354,-3.0968,-2.9833,-2.9621,-2.9486,-2.8929,-2.8129,-2.7706,-2.8236,-2.6909,-2.5432,-2.4441,-2.3676,-2.2625,-2.1064,-1.8743,-1.6447,-1.4406,-1.2773,-1.1607,-1.1149,-1.172,-1.2308,-1.2764,-1.3014,-1.3236,-1.3457,-1.3104,-1.2881,-1.2881,-1.2881,-1.2881,-1.2881,-1.2881,-1.3017,-1.3238,-1.3637,-1.3909,-4.1426,-4.3018,-4.4153,-4.5866,-4.6308,-4.6308,-4.6308,-4.6269,-4.5996,-4.5117,-4.3436,-4.1857,-4.0991,-3.9473,-3.8394,-3.8493,-3.8691,-3.9726,-4.2187,-4.1801,-4.211,-4.4365,-4.3813,-4.3203,-4.3104,-4.3835,-4.397,-4.3162,-4.4643,-4.524,-4.4412,-4.5143,-4.4816,-4.3143,-4.3104,-4.2277,-4.0527,-4.0635,-4.0746,-4.0804,-4.0808,-4.0804,-4.0766,-3.912,-3.8354,-3.8213,-3.6442,-3.5637,-3.5603,-3.5545,-3.5493,-3.5493,-3.5493,-3.5493,-3.5493,-3.5493,-3.5493,-3.5493,-3.5493,-3.5304,-3.5034,-3.4754,-3.4464,-3.4123,-3.3876,-3.3986,-3.4269,-3.4555,-3.4832,-3.4907,-3.4351,-3.3583,-3.2776,-3.2006,-3.1218,-3.0621,-3.0583,-3.0575,-3.0587,-3.0529,-2.984,-2.9221,-2.9063,-2.7745,-2.6178,-2.4575,-2.3329,-2.191,-2.0128,-1.8172,-1.6103,-1.4,-1.2667,-1.1895,-1.176,-1.2512,-1.2918,-1.287,-1.3474,-1.36,-1.2968,-1.2929,-1.2881,-1.2881,-1.2881,-1.2881,-1.2881,-1.2929,-1.3238,-1.3815,-1.3862,-1.419,-4.2815,-4.4345,-4.5601,-4.6153,-4.6308,-4.6308,-4.6308,-4.5801,-4.5078,-4.4219,-4.1069,-3.8228,-3.7439,-3.6895,-3.6993,-3.8297,-4.0689,-4.2851,-4.4141,-4.4608,-4.4526,-4.3833,0.0,-4.3891,-4.3162,-4.3835,-4.397,-4.3162,-4.4643,-4.549,-4.5278,-4.547,-4.4816,-4.3143,-4.3162,-4.2354,-4.0677,-4.0723,-4.0791,-4.0811,-4.0905,-4.0949,-4.0913,-3.9939,-3.9071,-3.831,-3.7141,-3.6251,-3.5603,-3.5545,-3.5493,-3.5493,-3.5493,-3.5493,-3.5493,-3.5493,-3.5493,-3.546,-3.5273,-3.5035,-3.4754,-3.4423,-3.4141,-3.3876,-3.3815,-3.3986,-3.4116,-3.3819,-3.3922,-3.4143,-3.4197,-3.4026,-3.3814,-3.3603,-3.2955,-3.2193,-3.1609,-3.1014,-3.0591,-3.0571,-3.0395,-2.984,-2.8503,-2.8307,-2.7532,-2.5245,-2.3898,-2.2375,-2.0174,-1.8248,-1.6448,-1.4619,-1.4168,-1.3616,-1.2686,-1.4007,-1.4516,-1.3616,-1.4143,-1.419,-1.36,-1.3152,-1.2881,-1.2881,-1.2881,-1.2881,-1.2881,-1.3324,-1.3637,-1.3815,-1.4721,-1.5443,-4.4981,-4.6035,-4.6683,-4.6381,-4.6308,-4.5897,-4.4374,-4.3931,-4.3189,-4.0767,-3.7971,-3.5728,-3.495,-3.4466,-3.4646,-3.6034,-3.8548,-4.1035,-4.3047,-4.3966,-4.4463,0.0,-4.4893,-4.491,-4.4374,-4.4739,-4.4797,-4.4355,-4.5105,-4.5432,-4.5047,-4.5393,-4.4989,-4.3662,-4.372,-4.3006,-4.1424,-4.0681,-4.0537,-4.0964,-4.0271,-4.0157,-4.0468,-3.9266,-3.8421,-3.7828,-3.6828,-3.6099,-3.5603,-3.5545,-3.5493,-3.5493,-3.5493,-3.5493,-3.5493,-3.5493,-3.5493,-3.546,-3.519,-3.4999,-3.4813,-3.451,-3.4237,-3.4012,-3.416,-3.4307,-3.4373,-3.4207,-3.4061,-3.4112,-3.4634,-3.4199,-3.3718,-3.4141,-3.366,-3.2968,-3.255,-3.212,-3.1702,-3.1292,-3.0873,-3.0172,-2.8763,-2.8728,-2.8048,-2.5485,-2.4129,-2.2491,-2.0002,-1.7998,-1.6261,-1.4869,-1.4468,-1.4154,-1.3752,-1.4869,-1.5309,-1.463,-1.4915,-1.4824,-1.4236,-1.3884,-1.3563,-1.3286,-1.3563,-1.3563,-1.3286,-1.392,-1.4318,-1.463,-1.552,-1.6262,-4.7187,-4.7598,-4.7383,-4.6523,-4.6211,-4.5268,-4.2013,-4.1585,-4.0738,-3.6721,-3.4975,-3.3944,-3.3264,-3.2603,-3.2557,-3.3737,0.0,-3.7734,-4.1211,-4.2246,-4.3482,-4.5833,-4.597,-4.5899,-4.5899,-4.5899,-4.5899,-4.5899,-4.5745,-4.5307,-4.4528,-4.522,-4.5182,-4.4239,-4.4218,-4.3551,-4.2163,-4.0648,-4.0343,-4.1172,-3.9527,-3.9131,-3.9813,-3.7996,-3.7166,-3.7107,-3.6059,-3.5603,-3.5584,-3.5526,-3.5493,-3.5493,-3.5493,-3.5493,-3.5493,-3.5493,-3.5493,-3.546,-3.519,-3.5122,-3.5105,-3.4793,-3.4508,-3.4334,-3.4593,-3.4714,-3.4774,-3.4901,-3.4576,-3.4372,-3.5141,-3.4218,-3.3314,-3.4237,-3.391,-3.3388,-3.3453,-3.3354,-3.3008,-3.2187,-3.1266,-3.0348,-2.9528,-2.9173,-2.8171,-2.5633,-2.4266,-2.2558,-1.9852,-1.7701,-1.5991,-1.4824,-1.4236,-1.4097,-1.456,-1.5231,-1.5588,-1.5499,-1.5499,-1.5231,-1.4698,-1.4606,-1.4376,-1.3909,-1.4422,-1.4422,-1.3909,-1.4514,-1.5152,-1.572,-1.6262,-1.6899,-4.7519,-4.7598,-4.7383,-4.6523,-4.5762,-4.4681,-4.2646,-4.0632,0.0,-3.6354,-3.402,-3.2328,-3.2309,-3.2726,-3.384,-3.6243,-3.8085,-4.043,-4.3867,-4.4355,-4.4803,0.0,-4.5974,-4.589,-4.589,-4.589,-4.589,-4.589,-4.5871,-4.5769,-4.5563,-4.568,-4.5143,-4.3745,-4.3044,-4.2269,-4.1406,-4.1094,-4.1027,-4.1191,-4.0062,-3.958,-3.9669,-3.7859,-3.6997,-3.6901,-3.6001,-3.5584,-3.5526,-3.5493,-3.5493,-3.5493,-3.5493,-3.5493,-3.5493,-3.5493,-3.5493,-3.546,-3.519,-3.5258,-3.5354,-3.487,-3.4653,-3.4614,-3.4674,-3.4851,-3.4901,-3.4211,-3.4117,-3.4218,-3.4391,-3.4199,-3.4199,-3.5141,-3.4814,-3.4292,-3.4366,-3.333,-3.2363,-3.2207,-3.1351,-3.0608,-3.0386,-2.9947,-2.8839,-2.6466,-2.5017,-2.3231,-2.04,-1.8313,-1.6456,-1.4869,-1.4606,-1.4376,-1.4003,-1.4949,-1.5365,-1.488,-1.488,-1.4789,-1.4698,-1.4236,-1.4143,-1.4514,-1.4663,-1.4652,-1.456,-1.5141,-1.5708,-1.6262,-1.687,-1.7866,-4.8144,-4.8281,-4.8066,-4.7187,-4.5976,-4.3941,-3.9928,0.0,0.0,-3.1854,-3.081,-3.0424,-2.9989,-3.1352,0.0,-3.4179,-3.5947,-3.832,-4.1719,-4.2617,-4.3574,-4.5312,-4.5866,-4.6113,-4.6113,-4.6098,-4.6113,-4.6113,-4.605,-4.5965,-4.5871,-4.5467,-4.4733,-4.363,-4.2744,-4.2144,-4.1836,-4.0957,-4.0723,-4.1066,-3.9255,-3.883,-3.9576,-3.7298,-3.6501,-3.6848,-3.5949,-3.5565,-3.5565,-3.5526,-3.5526,-3.5565,-3.5526,-3.5493,-3.5493,-3.5493,-3.5493,-3.5493,-3.5354,-3.5383,-3.5446,-3.5207,-3.5016,-3.4944,-3.507,-3.5105,-3.5045,-3.4757,-3.4457,-3.4295,-3.4757,-3.4564,-3.4487,-3.543,-3.546,-3.5287,-3.532,-3.4014,-3.2812,-3.2812,-3.1728,-3.0763,-3.0623,-3.0171,-2.9045,-2.6651,-2.5222,-2.329,-2.0181,-1.8289,-1.6667,-1.5274,-1.4858,-1.4468,-1.3862,-1.4903,-1.5499,-1.5186,-1.5466,-1.5656,-1.5656,-1.5377,-1.5186,-1.5186,-1.5466,-1.5644,-1.5608,-1.6188,-1.6773,-1.73,-1.8129,-1.8896,-4.8281,-4.8594,-4.8418,-4.7539,-4.5879,-4.2987,-3.7405,-3.5038,-3.2667,-2.7923,-2.7885,-2.8521,-2.7978,-2.9709,-3.1322,0.0,-3.3153,-3.5511,-3.9101,-4.0508,-4.2109,-4.4687,-4.5762,-4.6308,-4.6308,-4.6308,-4.63,-4.63,-4.6022,-4.5815,-4.5661,-4.4892,-4.4114,-4.3374,-4.2684,-4.2267,-4.2148,-4.084,-4.0457,-4.0966,-3.8575,-3.8089,-3.9225,-3.6733,-3.5935,-3.657,-3.6026,-3.5718,-3.5603,-3.5734,-3.572,-3.5603,-3.5545,-3.5493,-3.5493,-3.5493,-3.5493,-3.5493,-3.5493,-3.5493,-3.5493,-3.5493,-3.5354,-3.5223,-3.5432,-3.5354,-3.5223,-3.5446,-3.5026,-3.4661,-3.5353,-3.5064,-3.4776,-3.5565,-3.5866,-3.5957,-3.5762,-3.4492,-3.3359,-3.3184,-3.1914,-3.0804,-3.0626,-3.007,-2.8871,-2.6634,-2.5063,-2.3029,-1.9963,-1.8173,-1.6738,-1.5624,-1.488,-1.4329,-1.3815,-1.4767,-1.5454,-1.5588,-1.592,-1.6238,-1.6479,-1.625,-1.6008,-1.582,-1.6355,-1.6655,-1.6604,-1.7162,-1.7814,-1.843,-1.9273,-1.9843,-4.707,-4.7637,-4.7519,-4.6641,-4.4512,-4.1637,-3.7784,0.0,-3.1303,-2.8318,-2.7201,-2.6963,-2.7668,-2.866,-2.9864,-3.1436,-3.2563,-3.4739,-3.9,-4.043,-4.2012,-4.4687,0.0,-4.6308,-4.6308,-4.6308,-4.6307,-4.6307,-4.5562,-4.5046,-4.4908,-4.4143,-4.3342,-4.255,-4.2435,-4.2048,-4.1328,-4.1152,-4.1042,-4.0966,-3.9099,-3.8234,-3.8267,-3.6372,-3.5551,-3.568,-3.6425,-3.6329,-3.5655,-3.6452,-3.6311,-3.5603,-3.5545,-3.5493,-3.5493,-3.5493,-3.5493,-3.5493,-3.5493,-3.5493,-3.5493,-3.5493,-3.5493,-3.5479,-3.5493,-3.5493,-3.5479,-3.5493,-3.5488,-3.5488,-3.5565,-3.5584,-3.5622,-3.5834,-3.5944,-3.5781,-3.498,-3.4062,-3.3184,-3.2441,-3.1445,-3.0697,-3.0611,-2.9539,-2.8171,-2.6523,-2.4541,-2.2478,-2.0387,-1.8403,-1.6738,-1.5624,-1.4516,-1.3862,-1.3815,-1.4422,-1.5017,-1.5588,-1.5152,-1.5344,-1.6466,-1.5433,-1.5332,-1.638,-1.6951,-1.7229,-1.7216,-1.7773,-1.8507,-1.9462,-1.9806,-2.0639,-4.5831,-4.7031,-4.7422,-4.7148,-4.4355,-4.0719,-3.7058,0.0,-2.9545,-2.6749,-2.6359,-2.6435,-2.6228,-2.7325,-2.8452,-2.9079,-2.9594,0.0,-3.5096,-3.6508,-3.8535,-4.2266,-4.3906,-4.5156,-4.6191,-4.6308,-4.6074,-4.5566,-4.42,-4.3372,-4.3357,-4.3045,-4.25,-4.1699,-4.168,-4.1523,-4.1191,-4.1191,-4.1121,-4.0974,-3.9178,-3.8522,-3.884,-3.6559,-3.5801,-3.632,-3.618,-3.6001,-3.5803,-3.6017,-3.5936,-3.5661,-3.5545,-3.5493,-3.5493,-3.5493,-3.5493,-3.5493,-3.5493,-3.5161,-3.4795,-3.5334,-3.5161,-3.4814,-3.5353,-3.5493,-3.5526,-3.5565,-3.5584,-3.5605,-3.5649,-3.5736,-3.5707,-3.5275,-3.5603,-3.5625,-3.4219,-3.3633,-3.3164,-3.2363,-3.1445,-3.062,-2.9985,-2.907,-2.768,-2.5489,-2.4191,-2.2475,-1.9707,-1.8458,-1.6926,-1.4665,-1.4064,-1.3637,-1.3286,-1.3826,-1.4283,-1.4492,-1.496,-1.5454,-1.5964,-1.5832,-1.602,-1.6479,-1.671,-1.7146,-1.7787,-1.8299,-1.9148,-2.0358,-2.0988,-2.1742,-4.3661,-4.5609,-4.6719,-4.6816,-4.3583,-3.9555,0.0,0.0,-2.8172,-2.5895,-2.5767,-2.5862,-2.5184,-2.6269,-2.7317,-2.7471,-2.7871,-2.9279,-3.2516,-3.391,-3.594,-3.9567,-4.1483,-4.3193,-4.4926,-4.5544,-4.5508,-4.4648,-4.317,-4.2221,-4.2047,-4.2005,-4.1738,-4.1211,-4.1191,-4.1191,-4.1191,-4.1191,-4.0996,-4.0605,-3.903,-3.844,-3.8614,-3.6488,-3.5897,-3.6531,-3.6199,-3.6021,-3.5919,-3.5979,-3.5891,-3.5699,-3.5565,-3.5493,-3.5468,-3.5218,-3.5276,-3.5468,-3.5199,-3.4718,-3.4334,-3.5218,-3.4911,-3.4314,-3.493,-3.5315,-3.5474,-3.5262,-3.5262,-3.5386,-3.5704,-3.5864,-3.5729,-3.4896,-3.5371,-3.5469,-3.3476,-3.3223,-3.3086,-3.2012,-3.1296,-3.0555,-2.9648,-2.851,-2.6985,-2.4833,-2.3431,-2.1682,-1.9027,-1.7756,-1.6199,-1.3857,-1.3382,-1.3054,-1.2608,-1.3494,-1.405,-1.405,-1.505,-1.5588,-1.5588,-1.5832,-1.6151,-1.6454,-1.6655,-1.7258,-1.8341,-1.897,-1.9832,-2.102,-2.1859,-2.2698,-4.0206,-4.2955,-4.5039,-4.5039,-4.1701,-3.7938,-3.6017,-3.1502,-2.7418,-2.6389,-2.556,-2.501,-2.501,-2.5674,-2.6508,-2.7361,-2.8356,-2.9898,-3.2538,-3.3881,-3.5224,-3.695,-3.8673,-4.0395,-4.2088,-4.3801,-4.4473,-4.3672,-4.2801,-4.1979,-4.1247,-4.1089,-4.1074,-4.1191,-4.1191,-4.1191,-4.1191,-4.1191,-4.0703,-3.9707,-3.8751,-3.7851,-3.6998,-3.6031,-3.5641,-3.5776,-3.6766,-3.6708,-3.5971,-3.6695,-3.6474,-3.5699,-3.5565,-3.5493,-3.5411,-3.4526,-3.4757,-3.5391,-3.4507,-3.4199,-3.4334,-3.5218,-3.4911,-3.4199,-3.4199,-3.4853,-3.5416,-3.4562,-3.4466,-3.4824,-3.5764,-3.5996,-3.5781,-3.4902,-3.5371,-3.5293,-3.2754,-3.2832,-3.291,-3.123,-3.0801,-3.0478,-2.9807,-2.7826,-2.5971,-2.4953,-2.2075,-1.9662,-1.8658,-1.6175,-1.4247,-1.3481,-1.2432,-1.1814,-1.1814,-1.3595,-1.4709,-1.4709,-1.5276,-1.5588,-1.5588,-1.5005,-1.5264,-1.6391,-1.6944,-1.7759,-1.8893,-1.9814,-2.0701,-2.1497,-2.2258,-2.3394,-3.5573,-3.7385,-3.8526,-3.8566,-3.6216,-3.3548,-3.2281,-2.9289,-2.6553,-2.5593,-2.5181,-2.501,-2.501,-2.5219,-2.5882,-2.739,-2.7946,-2.8925,-3.102,-3.3219,-3.5434,-3.7729,-4.1516,-4.415,-4.4679,-4.4189,-4.3744,-4.3479,-4.2063,-4.1116,-4.0927,-4.0887,-4.0961,-4.1191,-4.1191,-4.1191,-4.1191,-4.0605,-4.0449,-4.0703,-3.8568,-3.7683,-3.791,-3.6366,-3.5734,-3.5853,-3.6175,-3.6155,-3.59,-3.6054,-3.5931,-3.5622,-3.5545,-3.5493,-3.5468,-3.5199,-3.4891,-3.4661,-3.4988,-3.4314,-3.3449,-3.4334,-3.4026,-3.3314,-3.3378,-3.3999,-3.4691,-3.4543,-3.5,-3.5486,-3.5193,-3.5117,-3.4746,-3.332,-3.3598,-3.3634,-3.1714,-3.1914,-3.2148,-3.1094,-3.0462,-2.9699,-2.8555,-2.7063,-2.549,-2.3873,-2.2501,-2.0929,-1.8957,-1.7098,-1.5246,-1.3231,-1.2742,-1.2366,-1.1859,-1.3547,-1.4628,-1.4628,-1.5516,-1.6408,-1.7368,-1.6371,-1.6396,-1.7665,-1.74,-1.7653,-1.838,-1.9836,-2.1475,-2.3218,-2.382,-2.4407,0.0,-3.387,-3.5052,-3.5088,-3.3161,0.0,0.0,-2.7998,-2.5777,-2.5503,-2.5219,-2.501,-2.501,-2.501,-2.5587,-2.738,-2.7769,-2.8593,-3.076,-3.3075,-3.5591,-3.841,-4.2067,-4.451,-4.4795,-4.3912,-4.3351,-4.3397,-4.1749,-4.0793,-4.0927,-4.0887,-4.0972,-4.1191,-4.1191,-4.1191,-4.1191,-4.0664,-4.0332,-4.0195,-3.8476,-3.7591,-3.745,-3.6299,-3.5833,-3.5937,-3.5937,-3.5929,0.0,-3.5764,-3.5654,-3.5603,-3.5545,-3.5493,-3.543,-3.4757,-3.4372,-3.4218,-3.4449,-3.3622,-3.2641,-3.3814,-3.341,-3.2499,-3.2555,-3.2967,-3.3532,-3.4013,-3.4569,-3.4883,-3.4355,-3.4453,-3.4256,-3.2533,-3.2992,-3.333,-3.1643,-3.1916,-3.2245,-3.1433,-3.0459,-2.934,-2.7989,-2.6722,-2.5313,-2.3487,-2.2401,-2.1026,-1.8982,-1.6904,-1.4889,-1.2908,-1.259,-1.2329,-1.1887,-1.3627,-1.4784,-1.4784,-1.5607,-1.6505,-1.74,-1.6908,-1.7085,-1.816,-1.818,-1.8402,-1.8948,-2.0591,-2.2306,-2.4007,-2.4551,-2.4864,0.0,-3.1802,-3.3626,-3.3626,-3.1769,-2.9912,0.0,0.0,0.0,0.0,-2.5522,-2.5029,-2.5067,-2.5086,-2.5652,-2.7415,-2.7923,-2.8954,-3.1455,-3.3568,-3.5956,-3.8946,-4.0939,-4.2299,-4.2871,-4.3047,-4.3126,-4.3201,-4.1655,-4.0819,-4.1069,-4.0962,-4.0962,-4.1089,-4.1093,-4.1133,-4.1191,-4.1133,-4.0332,-3.8789,-3.8476,-3.7578,-3.6171,-3.5978,-3.5943,-3.5996,-3.5995,-3.5942,-3.5874,-3.5751,-3.5661,-3.5584,-3.5468,-3.5411,-3.5199,-3.3526,-3.341,-3.3987,-3.3199,-3.2429,-3.2045,-3.3545,-3.2987,-3.1734,-3.179,-3.1912,-3.217,-3.3066,-3.3398,-3.3476,-3.3359,-3.3965,-3.4168,-3.2406,-3.3237,-3.3947,-3.227,-3.2578,-3.2929,-3.2002,-3.0606,-2.9231,-2.8134,-2.6796,-2.5343,-2.3727,-2.1959,-2.0287,-1.8814,-1.595,-1.3685,-1.2813,-1.2297,-1.2081,-1.2081,-1.399,-1.5185,-1.5185,-1.5756,-1.6216,-1.6519,-1.6987,-1.7545,-1.8256,-1.919,-1.9953,-2.0485,-2.1933,-2.3122,-2.4063,-2.4582,-2.4877,-2.604,0.0,-2.7189,-2.7189,-2.6705,-2.6241,0.0,0.0,0.0,0.0,0.0,0.0,0.0,0.0,-2.6574,-2.8377,-2.9404,-3.0416,-3.1709,-3.5509,-3.848,-3.9289,-4.1967,-4.3073,-4.1428,-4.1873,-4.203,-4.1459,-4.0455,-3.9908,-3.9966,-3.9978,-4.0024,-4.006,-4.0149,-4.0527,-4.1191,-4.0547,-4.0332,-4.0566,-3.8535,-3.7715,-3.7949,-3.6587,-3.5984,-3.5996,-3.5954,-3.5854,-3.5735,-3.5649,-3.5584,-3.5468,-3.4776,-3.4507,-3.4372,-3.3295,-3.3026,-3.3179,-3.3032,-3.2846,-3.2673,-3.25,-3.1763,-3.096,-3.0989,-3.1468,-3.2066,-3.2385,-3.3418,-3.4101,-3.2812,-3.3086,-3.3422,-3.2273,-3.2282,-3.2423,-3.2,-3.2023,-3.1914,-3.1133,-2.9569,-2.8404,-2.8425,-2.7017,-2.5524,-2.4468,-2.2956,-2.1223,-1.9316,-1.6792,-1.4824,-1.3897,-1.3744,-1.3691,-1.3691,-1.4923,-1.5732,-1.5732,-1.6656,-1.7921,-1.9482,-1.8869,-1.9261,-2.0954,-2.0786,-2.1128,-2.2061,-2.277,-2.3631,-2.4632,-2.4845,-2.5072,-2.5037,-2.5023,-2.501,-2.501,-2.501,-2.501,0.0,0.0,0.0,0.0,0.0,0.0,0.0,0.0,0.0,-2.8721,-2.9939,-3.136,-3.3363,-3.5962,-3.8363,-4.0265,-4.1774,-4.2585,-4.247,-4.2198,-4.1716,-4.0946,-4.0494,-3.9908,-3.9184,-3.9929,-4.0027,-3.9227,-3.9004,-3.9434,-4.0586,-3.9746,-3.9531,-3.998,-3.8164,-3.7344,-3.7383,-3.6426,-3.5996,-3.5995,-3.5931,-3.5823,-3.5659,-3.52,-3.4968,-3.4814,-3.393,-3.3622,-3.3551,-3.2705,-3.2679,-3.3045,-3.3071,-3.3342,-3.3412,-3.1816,-3.1311,-3.121,-3.0814,-3.1081,-3.1504,-3.1577,-3.2812,-3.3711,-3.2031,-3.2478,-3.3116,-3.2174,-3.19,-3.1943,-3.2301,-3.2071,-3.1669,-3.1231,-2.9858,-2.8737,-2.8697,-2.7835,-2.6613,-2.5041,-2.388,-2.2345,-2.0007,-1.7795,-1.603,-1.4819,-1.47,-1.4591,-1.4204,-1.5385,-1.605,-1.5716,-1.684,-1.8182,-1.9648,-1.9992,-2.1074,-2.3086,-2.2499,-2.2671,-2.3789,-2.3771,-2.4146,-2.4891,-2.4994,-2.5154,-2.5038,-2.5145,-2.5181,-2.5029,-2.5105,-2.52,0.0,0.0,0.0,0.0,0.0,0.0,0.0,-2.6507,0.0,0.0,-3.0386,-3.2472,-3.585,-3.6414,-3.7666,-4.0881,-4.1066,-4.1566,-4.322,-4.2511,-4.1524,-4.0506,-4.0563,-3.9985,-3.8476,-3.9796,-3.9914,-3.846,-3.7912,-3.8242,-3.9492,-3.8906,-3.8594,-3.8594,-3.7715,-3.6914,-3.6191,-3.6055,-3.5995,-3.5977,-3.5902,-3.5714,-3.5411,-3.4622,-3.416,-3.391,-3.3064,-3.2763,-3.2731,-3.2062,-3.2405,-3.3215,-3.3359,-3.3829,-3.3963,-3.1748,-3.1487,-3.1883,-3.1149,-3.0924,-3.0918,-3.1044,-3.2106,-3.2851,-3.1282,-3.1981,-3.2894,-3.2081,-3.1835,-3.1975,-3.2583,-3.2193,-3.1665,-3.1502,-3.0325,-2.9289,-2.9002,-2.8616,-2.7643,-2.5555,-2.4512,-2.3055,-2.057,-1.8659,-1.7094,-1.5808,-1.5656,-1.538,-1.4777,-1.5948,-1.6425,-1.5806,-1.6959,-1.8147,-1.9175,-2.1021,-2.2882,-2.4728,-2.4218,-2.4353,-2.524,-2.4832,-2.476,-2.5018,-2.512,-2.5216,-2.4801,-2.5601,-2.5994,-2.5202,-2.5563,-2.6113,0.0,0.0,0.0,0.0,0.0,0.0,0.0,-2.7328,-2.7263,0.0,-3.2326,-3.5133,-3.8604,-3.9619,-3.9714,-3.8926,-4.0646,-4.0954,-3.855,-4.0048,-4.0242,-3.8037,-3.8556,-3.8547,-3.7559,-3.7748,-3.7778,-3.7504,-3.74,-3.7461,-3.7695,-3.8301,-3.8594,-3.8594,-3.7715,-3.7226,-3.707,-3.6348,-3.5962,-3.5902,-3.5784,-3.5282,-3.4501,-3.4295,-3.3776,-3.3026,-3.2263,-3.1975,-3.198,-3.1906,-3.2441,-3.3313,-3.4113,-3.4035,-3.3493,-3.3103,-3.2612,-3.2137,-3.201,-3.1469,-3.1026,-3.1661,-3.211,-3.2121,-3.1017,-3.1463,-3.2131,-3.1881,-3.1807,-3.1821,-3.1872,-3.1621,-3.1197,-3.0548,-2.9291,-2.8611,-2.95,-2.8251,-2.6875,-2.5986,-2.4145,-2.2159,-2.022,-1.8738,-1.769,-1.7318,-1.7265,-1.7224,-1.7069,-1.7291,-1.7357,-1.7246,-1.8047,-1.9533,-2.1811,-2.3243,-2.4487,-2.5605,-2.5747,-2.5685,-2.5446,-2.5869,-2.5739,-2.5101,-2.5343,-2.5453,-2.4227,-2.498,-2.5671,-2.5793,-2.6492,-2.7045,0.0,0.0,0.0,0.0,0.0,0.0,0.0,0.0,-2.9796,-3.3555,-3.4789,-3.5972,-3.8053,-3.824,-3.8361,-3.8937,-3.9676,-4.0102,-3.9976,-4.0655,-4.0437,-3.8828,-3.9512,-3.9219,-3.7402,-3.7441,-3.7226,-3.6621,-3.6601,-3.6601,-3.6601,-3.6992,-3.7422,-3.7891,-3.7012,-3.6601,-3.6582,-3.6153,-3.5931,-3.5867,-3.5218,-3.4693,-3.4231,-3.3237,-3.2602,-3.2179,-3.1398,-3.1405,-3.1975,-3.3028,-3.3375,-3.3448,-3.4344,-3.4729,-3.4648,-3.3711,-3.3476,-3.3379,-3.2381,-3.2136,-3.2163,-3.199,-3.2023,-3.1981,-3.1471,-3.1612,-3.1877,-3.1802,-3.1417,-3.1123,-3.1429,-3.1006,-3.0464,-3.0018,-2.941,-2.9193,-2.988,-2.9214,-2.8053,-2.6508,-2.495,-2.3113,-2.0783,-1.9539,-1.8829,-1.8719,-1.8709,-1.8724,-1.8601,-1.8684,-1.8855,-1.9224,-1.9838,-2.1159,-2.343,-2.4948,-2.6084,-2.6756,-2.7151,-2.7348,-2.7394,-2.735,-2.7094,-2.6654,-2.635,-2.6158,-2.3955,-2.4695,-2.55,-2.6066,-2.7039,0.0,0.0,0.0,0.0,0.0,0.0,0.0,0.0,-3.053,-3.2069,-3.6009,-3.6576,-3.6918,-3.7988,-3.7551,-3.7849,-3.9743,-3.9473,-3.9742,-4.1287,-4.11,-4.0351,-3.9082,-3.9785,-3.9316,-3.7109,-3.7187,-3.6894,-3.6035,-3.5996,-3.5996,-3.5996,-3.5996,-3.6348,-3.6992,-3.6328,-3.5996,-3.5996,-3.5727,-3.5592,-3.5501,-3.4462,-3.3885,-3.3583,-3.2256,-3.1583,-3.1371,-3.0756,-3.1224,-3.2424,-3.3863,-3.4101,-3.3809,-3.4473,-3.5137,-3.5488,-3.4141,-3.416,-3.4407,-3.2783,-3.2622,-3.2833,-3.2095,-3.1768,-3.1684,-3.1829,-3.169,-3.1492,-3.1475,-3.0917,-3.0515,-3.0916,-3.0426,-2.982,-2.9396,-2.9493,-2.9678,-2.9794,-2.9773,-2.8982,-2.6814,-2.5615,-2.3981,-2.1361,-2.0423,-2.0012,-2.0102,-2.0119,-2.0086,-2.0025,-1.98,-2.0129,-2.1227,-2.1815,-2.2848,-2.454,-2.608,-2.7293,-2.8057,-2.8433,-2.8749,-2.9052,-2.8579,-2.8238,-2.7987,-2.7173,-2.6736,-2.4479,-2.5646,-2.6231,-2.5544,-2.6572,0.0,-2.9838,-3.0846,0.0,-3.2441,0.0,0.0,0.0,-3.1202,-3.2494,-3.4382,-3.6784,-3.8984,-4.0684,-4.0859,-4.0879,-4.1054,-4.1034,-4.0447,-3.9019,-3.955,-3.8965,-3.6465,-3.709,-3.7148,-3.6152,-3.6113,-3.6074,-3.5996,-3.5996,-3.5996,-3.5996,-3.5996,-3.6035,-3.6094,-3.6035,-3.5996,-3.5976,-3.5091,-3.4673,-3.4546,-3.359,-3.2692,-3.1872,-3.1756,-3.1256,-3.0602,-3.0583,-3.1708,-3.33,-3.3437,-3.3965,-3.4629,-3.4687,-3.4746,-3.4766,-3.4648,-3.4648,-3.4505,-3.3509,-3.2702,-3.2062,-3.1857,-3.1229,-3.0794,-3.1595,-3.121,-3.0583,-3.0513,-3.0436,-3.0343,-3.0138,-2.9899,-2.9416,-2.8409,-2.8874,-2.9268,-2.88,-2.8801,-2.834,-2.6732,-2.5321,-2.3607,-2.1309,-2.0961,-2.1038,-2.1337,-2.1325,-2.1327,-2.1533,-2.0406,-2.0748,-2.3157,-2.3872,-2.4477,-2.5108,-2.6333,-2.7782,-2.9412,-2.9493,-2.9407,-2.9194,-2.9138,-2.873,-2.7986,-2.7174,-2.6756,-2.3259,-2.4924,-2.6376,-2.6218,-2.7069,0.0,0.0,-3.1426,-3.2104,-3.2277,-3.2919,0.0,0.0,-3.4145,-3.5651,-3.6758,-3.787,-3.9023,-4.0215,-3.9922,-3.957,-3.957,-3.957,-3.9316,-3.8652,-3.8906,-3.8672,-3.7695,-3.793,-3.7734,-3.6855,-3.6816,-3.6562,-3.6016,-3.5996,-3.5974,-3.5946,-3.5444,-3.5176,-3.5137,-3.5176,-3.5176,-3.5092,-3.4167,-3.3694,-3.357,-3.2634,-3.2025,-3.166,-3.116,-3.0775,-3.0621,-3.1811,-3.211,-3.2031,-3.3613,-3.3769,-3.3223,-3.3711,-3.4258,-3.4707,-3.4707,-3.5078,-3.5212,-3.3699,-3.3432,-3.335,-3.2095,-3.1532,-3.1359,-3.1648,-3.109,-3.0417,-3.0398,-3.0398,-3.0343,-3.0061,-2.9939,-2.9734,-2.9192,-2.897,-2.8819,-2.8733,-2.8256,-2.7358,-2.5857,-2.482,-2.3538,-2.1615,-2.115,-2.1387,-2.2373,-2.3258,-2.3387,-2.2409,-2.2534,-2.2849,-2.3432,-2.3197,-2.3989,-2.6165,-2.7438,-2.8558,-2.9642,-3.0036,-3.0194,-3.0125,-3.0086,-2.962,-2.8733,-2.7923,-2.7217,-2.3151,-2.462,-2.6092,0.0,0.0,0.0,-3.1122,-3.2148,-3.2773,-3.3457,-3.3854,-3.421,-3.4638,-3.5637,-3.6675,-3.7459,-3.8624,-3.9434,-3.9473,-3.9219,-3.8906,-3.8633,-3.8594,-3.8496,-3.8223,-3.8184,-3.8086,-3.7793,-3.7773,-3.7519,-3.6914,-3.6894,-3.6615,-3.5981,-3.5962,-3.5795,-3.5469,-3.4925,-3.4505,-3.4199,-3.3964,-3.3972,-3.4156,-3.3218,-3.2745,-3.2646,-3.1698,-3.1295,-3.1275,-3.0737,-3.0525,-3.0683,-3.2018,-3.2036,-3.1523,-3.3262,-3.3184,-3.2285,-3.2832,-3.3574,-3.4297,-3.4297,-3.5078,-3.5644,-3.3796,-3.3682,-3.379,-3.1881,-3.1364,-3.1379,-3.1333,-3.0871,-3.0398,-3.0398,-3.0398,-3.0343,-3.0061,-3.0022,-2.9931,-2.9414,-2.9102,-2.8823,-2.8512,-2.8014,-2.7137,-2.5532,-2.4835,-2.3856,-2.2136,-2.1711,-2.1984,-2.3169,-2.4572,-2.4839,-2.3376,-2.3716,-2.423,-2.4744,-2.3932,-2.4595,-2.7091,-2.8578,-2.9516,-2.9975,-3.0384,-3.0614,-3.0641,-3.0564,-3.0063,-2.9151,-2.8343,-2.7437,-2.4544,-2.5044,-2.5367,0.0,0.0,0.0,-3.2555,-3.3398,-3.4121,-3.6758,-3.5117,-3.375,-3.5488,-3.5092,-3.4801,-3.5666,-3.8805,-4.0547,-3.8828,-3.9316,-3.9531,-3.8672,-3.8574,-3.8242,-3.7363,-3.7285,-3.6934,-3.6055,-3.5996,-3.5996,-3.5996,-3.5996,-3.5962,-3.588,-3.5905,-3.545,-3.4503,-3.4549,-3.4138,-3.3281,-3.2388,-3.2451,-3.3265,-3.2305,-3.185,-3.1734,-3.0794,-3.0448,-3.0506,-3.0506,-3.0583,-3.0709,-3.0866,-3.1426,-3.2187,-3.2207,-3.2187,-3.2187,-3.2187,-3.2715,-3.3398,-3.3398,-3.457,-3.5644,-3.3848,-3.3307,-3.2905,-3.1105,-3.0557,-3.0506,-3.0506,-3.0448,-3.0398,-3.0398,-3.0398,-3.0323,-3.0061,-3.0102,-2.9861,-2.8736,-2.9207,-2.9347,-2.7933,-2.8126,-2.7835,-2.5968,-2.5446,-2.4644,-2.2813,-2.266,-2.2986,-2.3621,-2.5088,-2.5577,-2.4511,-2.3618,-2.4368,-2.7316,-2.67,-2.6727,-2.7882,-2.9653,-3.0605,-3.0605,-3.0591,-3.0568,-3.0506,-3.0429,-2.9948,-2.9063,-2.8255,-2.7313,-2.3032,-2.4638,0.0,-2.655,0.0,0.0,0.0,-3.2559,0.0,0.0,-3.5684,-3.4766,-3.6406,-3.6079,-3.5613,-3.5758,-3.678,-3.7578,-3.7676,-3.7383,-3.7051,-3.6797,-3.6777,-3.668,-3.6406,-3.6387,-3.6016,-3.5156,-3.5618,-3.566,-3.5049,-3.5516,-3.5527,-3.4936,-3.4925,-3.4448,-3.3527,-3.3022,-3.2619,-3.2313,-3.1482,-3.1525,-3.2287,-3.133,-3.0902,-3.0883,-3.0583,-3.0506,-3.0564,-3.0621,-3.0709,-3.0902,-3.156,-3.1601,-3.1367,-3.1973,-3.1816,-3.1289,-3.1289,-3.1836,-3.2656,-3.3223,-3.375,-3.4062,-3.3476,-3.2941,-3.2257,-3.0953,-3.0615,-3.0621,-3.0525,-3.0487,-3.0467,-3.0398,-3.0398,-3.0386,-3.0356,-3.0192,-2.9994,-2.974,-2.8906,-2.8092,-2.7632,-2.6641,-2.5623,-2.4828,-2.4217,-2.3484,-2.2517,-2.3312,-2.3904,-2.3737,-2.5088,-2.5726,-2.5012,-2.5178,-2.607,-2.7947,-2.8467,-2.9155,-3.0041,-3.0635,-3.0872,-3.0671,-3.0615,-3.0595,-3.0564,-2.9833,-2.9063,-2.8236,-2.7232,-2.6281,-2.3327,-2.4748,0.0,-2.6996,-2.8605,-3.0472,-3.2265,0.0,0.0,0.0,-3.6426,-3.5625,-3.6934,-3.6523,-3.5962,-3.589,-3.6487,-3.6908,-3.6752,-3.627,-3.5792,-3.5488,-3.5137,-3.4941,-3.4961,-3.4961,-3.4741,-3.4198,-3.4594,-3.4629,-3.407,-3.4466,-3.4466,-3.396,-3.3939,-3.3513,-3.2596,-3.2172,-3.1772,-3.1416,-3.0586,-3.043,-3.0905,-3.0614,-3.0506,-3.0506,-3.0564,-3.0602,-3.0645,-3.0737,-3.0622,-3.0469,-3.1348,-3.1152,-3.0488,-3.1367,-3.1348,-3.0898,-3.0898,-3.1465,-3.2285,-3.2773,-3.3144,-3.332,-3.2969,-3.2559,-3.1991,-3.1006,-3.0706,-3.0688,-3.0558,-3.0518,-3.0487,-3.0417,-3.0398,-3.0417,-3.0487,-3.0341,-3.0214,-3.0306,-2.9426,-2.8461,-2.7767,-2.6619,-2.5533,-2.4708,-2.3971,-2.3338,-2.283,-2.3722,-2.4221,-2.3753,-2.4895,-2.5465,-2.4934,-2.5579,-2.6679,-2.8264,-2.9267,-3.0244,-3.1235,-3.126,-3.1013,-3.0502,-3.0533,-3.0544,-3.0525,-2.9478,-2.856,-2.7754,-2.6683,-2.5687,-2.4514,0.0,0.0,-2.7602,-2.9401,0.0,-3.2962,-3.5214,-3.7187,-3.8066,-3.7109,-3.6367,-3.7145,-3.6581,-3.5996,-3.5976,-3.7203,-3.7602,-3.6001,-3.5708,-3.5368,-3.4564,-3.3788,-3.332,-3.3379,-3.3398,-3.3344,-3.3183,-3.3253,-3.3241,-3.3077,-3.3154,-3.3115,-3.2993,-3.2974,-3.2557,-3.1686,-3.166,-3.1311,-3.0565,-2.9707,-2.9285,-2.93,-2.9979,-3.0321,-3.0429,-3.0543,-3.0604,-3.0607,-3.0732,-3.0273,-2.957,-3.0449,-3.0293,-2.9707,-3.0586,-3.0898,-3.0898,-3.0898,-3.1426,-3.209,-3.2168,-3.2637,-3.3047,-3.2402,-3.2148,-3.1914,-3.1113,-3.08,-3.0673,-3.0614,-3.0557,-3.0487,-3.0417,-3.0367,-3.0355,-3.0355,-3.038,-3.0408,-3.0436,-3.0283,-2.9669,-2.8137,-2.7491,-2.6686,-2.5095,-2.4307,-2.3757,-2.3368,-2.3791,-2.3979,-2.3687,-2.4397,-2.4697,-2.3984,-2.4559,-2.5759,-2.7669,-2.8607,-2.9771,-3.1297,-3.1412,-3.105,-3.0232,-3.0407,-3.0444,-3.033,-2.9232,-2.8292,-2.7489,-2.6416,-2.5405,-2.2985,-2.4164,0.0,0.0,-2.9788,-3.1902,-3.2991,-3.3682,-3.4351,-3.5331,-3.6328,-3.7055,-3.7211,-3.6553,-3.5953,-3.5792,-3.6134,-3.6054,-3.4969,-3.4793,-3.4455,-3.3596,-3.3372,-3.3301,-3.332,-3.3379,-3.309,-3.2331,-3.2856,-3.2883,-3.2128,-3.266,-3.266,-3.2025,-3.1987,-3.1602,-3.0782,-3.018,-2.9796,-2.9673,-2.885,-2.8436,-2.8392,-2.8494,-2.8964,-2.9717,-2.9805,-2.984,-2.9843,-2.9861,-2.9375,-2.8672,-2.9531,-2.9766,-2.9707,-3.0586,-3.0898,-3.0898,-3.0898,-3.1016,-3.1289,-3.1973,-3.1855,-3.1523,-3.2051,-3.1719,-3.1133,-3.0957,-3.0793,-3.0681,-3.062,-3.0557,-3.0487,-3.0417,-3.0241,-2.9928,-2.936,-2.9445,-2.9705,-2.9906,-2.9425,-2.8663,-2.7741,-2.7027,-2.5958,-2.41,-2.3425,-2.2864,-2.2101,-2.2783,-2.3331,-2.3243,-2.3105,-2.2309,-2.0552,-1.9708,-2.0128,-2.2178,-2.3218,-2.5243,-2.8587,-3.0263,-3.0847,-3.0299,-3.0424,-3.0265,-2.977,-2.8479,-2.7542,-2.6873,-2.5801,-2.4855,-2.305,0.0,0.0,-2.7511,0.0,-3.1543,-3.2393,-3.2906,-3.3347,-3.3868,-3.4694,-3.5338,-3.5281,-3.4933,-3.4633,-3.4529,-3.4536,-3.4385,-3.391,-3.3436,-3.2993,-3.2582,-3.2197,-3.1973,-3.2001,-3.1697,-3.1266,-3.0698,-3.0687,-3.0483,-2.9967,-3.0294,-3.0314,-2.989,-2.9898,-2.9733,-2.9356,-2.8942,-2.8767,-2.8821,-2.7938,-2.7318,-2.6928,-2.7723,-2.8372,-2.8868,-2.8941,-2.8984,-2.8984,-2.8984,-2.8457,-2.7754,-2.8633,-2.8711,-2.8516,-2.9805,-3.0273,-3.0332,-3.0762,-3.0625,-3.0351,-3.0801,-3.0371,-2.9824,-3.0684,-3.0621,-3.032,-3.0689,-3.0741,-3.0645,-3.0576,-3.0519,-3.0348,-2.9775,-2.9817,-2.9782,-2.9024,-2.9068,-2.9236,-2.9193,-2.9129,-2.8747,-2.7682,-2.6508,-2.5469,-2.467,-2.3155,-2.1884,-2.1292,-2.0864,-2.0563,-2.0436,-1.9485,-1.849,-1.763,-1.5848,-1.6102,-1.9259,-2.0432,-2.3115,-2.7811,-2.8137,-2.8547,-2.927,-2.949,-2.9438,-2.9105,-2.7903,-2.7136,-2.683,-2.5787,-2.4962,-2.346,0.0,-2.5819,-2.7371,-2.8997,0.0,-3.1049,-3.1765,-3.2278,-3.2278,-3.2763,-3.3206,-3.3186,-3.3199,-3.3191,-3.3157,-3.3112,-3.3051,-3.2877,-3.2192,-3.166,-3.1571,-3.0802,-3.0297,-3.0353,-2.9648,-2.9128,-2.9,-2.8392,-2.7969,-2.789,-2.789,-2.7909,-2.7928,-2.7964,-2.8038,-2.8119,-2.795,-2.7903,-2.7962,-2.7026,-2.6256,-2.5659,-2.7116,-2.7841,-2.7991,-2.8056,-2.8086,-2.8086,-2.8086,-2.7559,-2.6855,-2.7734,-2.7637,-2.7187,-2.8789,-2.9375,-2.9473,-3.0195,-2.998,-2.9375,-2.9375,-2.8887,-2.8437,-2.9134,-2.9311,-2.9437,-3.0244,-3.0424,-3.0389,-3.0466,-3.0487,-3.0227,-2.9235,-2.9489,-2.9672,-2.8652,-2.8732,-2.8865,-2.8484,-2.8942,-2.9033,-2.794,-2.6437,-2.5465,-2.5693,-2.3252,-2.1204,-2.0623,-1.8912,-1.7478,-1.6815,-1.5362,-1.4333,-1.4016,-1.194,-1.2401,-1.6515,-1.6918,-1.9917,-2.6506,-2.5171,-2.5192,-2.7139,-2.8019,-2.8299,-2.8008,-2.7227,-2.6752,-2.6552,-2.5717,-2.4959,0.0,0.0,-2.6476,0.0,-2.7544,-2.8294,0.0,0.0,-2.8613,-2.8613,-3.1067,-3.3183,-3.3122,-3.3157,-3.3126,-3.2964,-3.3037,-3.2807,-3.1987,-3.1775,-3.1429,-3.0667,-2.9871,-2.9374,-2.9398,-2.8714,-2.8241,-2.8161,-2.8065,-2.7969,-2.789,-2.789,-2.7928,-2.7984,-2.8003,-2.8057,-2.8195,-2.7381,-2.7003,-2.7046,-2.6179,-2.5726,-2.5678,-2.5928,-2.6449,-2.7159,-2.7167,-2.7168,-2.7168,-2.7168,-2.666,-2.5957,-2.6836,-2.7109,-2.7129,-2.8105,-2.8476,-2.8496,-2.8613,-2.8574,-2.8476,-2.8476,-2.8398,-2.8316,-2.8365,-2.8376,-2.8539,-2.936,-2.9478,-2.9561,-3.0306,-3.0467,-3.0323,-2.9942,-2.9785,-2.9214,-2.7393,-2.7773,-2.8409,-2.8124,-2.8334,-2.8613,-2.8779,-2.7748,-2.665,-2.5907,-2.3757,-2.1601,-1.9839,-1.8084,-1.6173,-1.3828,-1.289,-1.1007,-0.7485,-0.6448,-0.7436,-1.0802,-0.765,-1.0426,-2.1064,-2.095,-2.1348,-2.2963,-2.6234,-2.7154,-2.5648,-2.6069,-2.5791,-2.483,-2.4713,-2.3963,-2.3771,-2.4866,-2.585,0.0,-2.6433,-2.7178,-2.7178,-2.7544,-2.789,-2.789,-2.9143,-3.0232,-3.019,-3.0202,-3.0337,-3.071,-3.0441,-3.021,-3.0237,-2.9852,-2.9429,-2.9044,-2.8679,-2.8478,-2.8478,-2.7736,-2.7236,-2.7227,-2.6765,-2.6467,-2.6447,-2.6447,-2.6456,-2.6553,-2.6588,-2.6646,-2.6743,-2.6328,-2.6146,-2.6179,-2.5784,-2.5646,-2.5706,-2.5706,-2.5908,-2.6269,-2.6269,-2.6269,-2.6269,-2.6269,-2.6055,-2.5742,-2.6113,-2.6269,-2.6387,-2.7246,-2.7578,-2.7637,-2.8125,-2.7988,-2.7578,-2.7578,-2.7223,-2.687,-2.7333,-2.7412,-2.7545,-2.8371,-2.8544,-2.8659,-2.9506,-2.9698,-2.9728,-2.9961,-2.9939,-2.9319,-2.7354,-2.77,-2.8439,-2.859,-2.8558,-2.8594,-2.8848,-2.7858,-2.6896,-2.6477,-2.412,-2.1954,-2.0754,-1.8209,-1.5991,-1.4707,-1.136,-0.9038,-0.8438,-0.6886,-0.6715,-0.855,-1.007,-1.3011,-1.7686,-1.8291,-1.8707,-1.9166,-2.2798,-2.4473,-2.4131,-2.4409,-2.4308,-2.3834,-2.3834,-2.3127,0.0,0.0,-2.4913,-2.4953,-2.5401,-2.5872,0.0,-2.6657,-2.7117,-2.7117,-2.7117,-2.7117,-2.7117,-2.7539,-2.8102,-2.8698,-2.8294,-2.8102,-2.8698,-2.8275,-2.789,-2.789,-2.7698,-2.7563,-2.7563,-2.6774,-2.6274,-2.6274,-2.5668,-2.5303,-2.5303,-2.5322,-2.537,-2.5428,-2.5503,-2.5551,-2.5619,-2.562,-2.563,-2.5601,-2.563,-2.5649,-2.5703,-2.5703,-2.5703,-2.5703,-2.5703,-2.5703,-2.5703,-2.5703,-2.5703,-2.5703,-2.5703,-2.5703,-2.5781,-2.6426,-2.668,-2.6758,-2.7402,-2.7203,-2.6635,-2.6635,-2.6159,-2.5685,-2.6333,-2.6458,-2.6553,-2.74,-2.7612,-2.7755,-2.8582,-2.8948,-2.9202,-2.9598,-2.9717,-2.9276,-2.766,-2.7451,-2.7768,-2.8528,-2.8371,-2.8293,-2.8744,-2.79,-2.7211,-2.7357,-2.4842,-2.2702,-2.2034,-1.8959,-1.6516,-1.5635,-1.1028,-0.8875,-1.096,-0.8516,-0.7662,-0.9511,-1.31,-1.5086,-1.5042,-1.5249,-1.5381,-1.5434,-1.8097,-2.0348,-2.2095,-2.2571,-2.2659,-2.2334,-2.2717,-2.1988,0.0,-2.4454,0.0,-2.4721,-2.4276,-2.3882,-2.47,-2.4927,-2.4965,-2.4965,-2.4965,-2.4965,-2.4965,-2.6574,-2.7909,-2.7948,-2.7928,-2.7909,-2.7948,-2.7928,-2.789,-2.789,-2.7178,-2.6678,-2.6678,-2.589,-2.536,-2.536,-2.5322,-2.5303,-2.5303,-2.537,-2.5428,-2.5486,-2.5553,-2.5622,-2.5682,-2.5683,-2.5668,-2.5611,-2.5652,-2.5703,-2.5703,-2.5703,-2.5703,-2.5703,-2.5703,-2.5703,-2.5703,-2.5703,-2.5703,-2.5703,-2.5703,-2.5703,-2.5703,-2.5742,-2.5762,-2.5762,-2.582,-2.5753,-2.5668,-2.5668,-2.5599,-2.5496,-2.5483,-2.5466,-2.564,-2.6447,-2.6678,-2.6871,-2.7736,-2.8525,-2.9068,-2.8891,-2.8912,-2.8761,-2.8025,-2.6507,-2.5714,-2.7206,-2.7176,-2.7317,-2.867,-2.8318,-2.804,-2.8625,-2.6241,-2.4064,-2.3208,-2.0439,-1.7627,-1.5115,-1.2319,-1.1354,-1.3282,-0.9882,-0.9739,-1.459,-1.2329,-1.1461,-1.2905,-1.0801,-1.0299,-1.173,-1.1947,-1.4268,-1.8863,-2.066,-2.0887,-1.9724,-2.1124,-2.0263,0.0,0.0,0.0,-2.3931,-2.3779,-2.3687,-2.3912,-2.4408,-2.4804,-2.4804,-2.4804,-2.4804,-2.4804,-2.5482,-2.6221,-2.6776,-2.6499,-2.6428,-2.6986,-2.6582,-2.6236,-2.6236,-2.5967,-2.5774,-2.5774,-2.5476,-2.5303,-2.5303,-2.5303,-2.5322,-2.537,-2.539,-2.5447,-2.5563,-2.5582,-2.5641,-2.5703,-2.5703,-2.5697,-2.5652,-2.5698,-2.5703,-2.5703,-2.5703,-2.5703,-2.5703,-2.5703,-2.5703,-2.5703,-2.5703,-2.5703,-2.5703,-2.5703,-2.5703,-2.5703,-2.5703,-2.5703,-2.5682,-2.5644,-2.5627,-2.5582,-2.5543,-2.5484,-2.5421,-2.5418,-2.537,-2.5399,-2.5668,-2.5774,-2.5967,-2.6832,-2.7274,-2.7633,-2.8115,-2.7585,-2.6733,-2.5839,-2.5395,-2.5498,-2.6605,-2.7084,-2.7647,-2.8664,-2.8639,-2.8555,-2.8769,-2.7629,-2.6631,-2.6251,-2.4065,-2.2094,-2.0972,-1.7687,-1.5148,-1.4016,-1.3169,-1.3529,-1.55,-1.3321,-1.1276,-0.975,-0.9258,-0.927,-0.9686,-1.1038,-1.3234,-1.6345,-1.6537,-1.6906,-1.7508,-1.6961,-1.6182,-2.4632,0.0,0.0,0.0,-2.3493,-2.3488,-2.3393,-2.402,-2.4607,-2.4591,-2.4591,-2.4591,-2.4591,-2.4723,-2.5061,-2.5749,-2.5493,-2.5435,-2.6072,-2.5668,-2.5303,-2.5303,-2.5303,-2.5303,-2.5303,-2.5303,-2.5303,-2.5303,-2.5303,-2.5322,-2.5409,-2.5425,-2.5499,-2.5628,-2.5628,-2.5643,-2.5703,-2.5703,-2.5703,-2.5703,-2.5703,-2.5703,-2.5703,-2.5703,-2.5703,-2.5703,-2.5703,-2.5703,-2.5703,-2.5703,-2.5703,-2.5703,-2.5679,-2.5678,-2.5665,-2.5661,-2.5642,-2.562,-2.5608,-2.5563,-2.5524,-2.5486,-2.5428,-2.537,-2.537,-2.5341,-2.5293,-2.5214,-2.5253,-2.5408,-2.5934,-2.6359,-2.6776,-2.7362,-2.6633,-2.5423,-2.4092,-2.3889,-2.4304,-2.5393,-2.572,-2.6337,-2.7881,-2.7955,-2.8033,-2.8732,-2.8181,-2.7791,-2.8125,-2.6483,-2.502,-2.4271,-2.1691,-1.9257,-1.7417,-1.647,-1.6008,-1.6095,-1.3544,-1.0629,-0.7555,-0.7679,-0.7451,-0.67,-0.7527,-0.9213,-1.1866,-1.2814,-1.3676,-1.4366,-1.3722,-1.268,0.0,0.0,0.0,-2.3267,-2.3322,-2.3163,-2.3115,-2.3675,-2.421,-2.4209,-2.419,-2.419,-2.419,-2.4357,-2.4604,-2.4937,-2.4979,-2.5077,-2.5264,-2.5303,-2.5303,-2.5284,-2.5284,-2.5284,-2.5284,-2.5284,-2.5284,-2.5303,-2.5303,-2.5322,-2.5409,-2.5467,-2.5564,-2.5703,-2.5703,-2.5703,-2.5703,-2.5703,-2.5703,-2.5703,-2.5703,-2.5703,-2.5703,-2.5703,-2.5703,-2.5703,-2.5703,-2.5703,-2.5703,-2.5703,-2.5703,-2.5682,-2.5626,-2.5601,-2.56,-2.5595,-2.5566,-2.5512,-2.5569,-2.5505,-2.5409,-2.5409,-2.5341,-2.5303,-2.5284,-2.5284,-2.5253,-2.5046,-2.5141,-2.5243,-2.5046,-2.5822,-2.6648,-2.6642,-2.6096,-2.5012,-2.3007,-2.2076,-2.2024,-2.351,-2.3059,-2.3414,-2.6389,-2.6295,-2.6527,-2.8604,-2.7825,-2.7448,-2.8573,-2.7437,-2.5935,-2.44,-2.3768,-2.3453,-2.3494,-1.9489,-1.6922,-1.6658,-1.2707,-0.917,-0.6513,-0.5706,-0.4424,-0.2625,-0.1036,-0.1837,-0.5225,-0.9707,-1.137,-1.0408,-1.1827,-1.0075,-2.2795,0.0,0.0,0.0,0.0,0.0,-2.3075,-2.373,-2.4266,-2.4209,-2.419,-2.419,-2.419,-2.4247,-2.4357,-2.4604,-2.4845,-2.5022,-2.5077,-2.5214,-2.5253,-2.5099,-2.5088,-2.5088,-2.5088,-2.5088,-2.5152,-2.5303,-2.5303,-2.5341,-2.5466,-2.5585,-2.566,-2.5703,-2.5703,-2.5703,-2.5703,-2.5703,-2.5703,-2.5703,-2.5703,-2.5703,-2.5703,-2.5703,-2.5703,-2.5703,-2.5703,-2.5703,-2.5703,-2.5703,-2.5703,-2.5682,-2.5626,-2.5601,-2.5582,-2.555,-2.5531,-2.5493,-2.5473,-2.5428,-2.539,-2.5341,-2.5322,-2.5274,-2.5141,-2.5088,-2.5053,-2.4891,-2.4896,-2.4949,-2.4986,-2.5305,-2.5592,-2.5488,-2.4936,-2.4044,-2.2562,-2.1893,-2.1917,-2.2948,-2.3583,-2.4538,-2.6441,-2.6673,-2.7115,-2.8671,-2.8184,-2.8067,-2.9207,-2.772,-2.6299,-2.5575,-2.4616,-2.3865,-2.3407,-2.0516,-1.7905,-1.6029,-1.2372,-0.9095,-0.6509,-0.4412,-0.2222,0.0,0.1364,0.1247,-0.0244,-0.4362,-0.7486,-0.9548,-0.9761,-0.7014,0.0,0.0,0.0,-2.1489,0.0,0.0,-2.2809,-2.3659,-2.4426,-2.4444,-2.4393,-2.4339,-2.4339,-2.4266,-2.4247,-2.4357,-2.462,-2.4818,-2.4898,-2.5024,-2.5049,-2.493,-2.4917,-2.4917,-2.4917,-2.4962,-2.5046,-2.5163,-2.5253,-2.5351,-2.5492,-2.5632,-2.5703,-2.5703,-2.5703,-2.5703,-2.5703,-2.5703,-2.5703,-2.5703,-2.5703,-2.5703,-2.5703,-2.5703,-2.5703,-2.5703,-2.5703,-2.5703,-2.5703,-2.5668,-2.5656,-2.5648,-2.5576,-2.5539,-2.5505,-2.5466,-2.5443,-2.5413,-2.5398,-2.539,-2.5341,-2.5303,-2.5234,-2.5152,-2.5034,-2.4962,-2.4891,-2.4712,-2.467,-2.4727,-2.4949,-2.5094,-2.5163,-2.5038,-2.4484,-2.3771,-2.291,-2.2451,-2.2367,-2.2772,-2.3391,-2.4375,-2.6024,-2.6251,-2.6527,-2.7537,-2.7326,-2.7199,-2.7596,-2.6606,-2.5435,-2.428,-2.3555,-2.2815,-2.1945,-1.9598,-1.73,-1.5249,-1.1978,-0.9125,-0.7005,-0.3901,-0.0927,0.1803,0.338,0.3689,0.2724,-0.0247,-0.3303,-0.6197,-0.5553,-0.2901,0.0,0.0,0.0,-2.0858,-2.2017,0.0,-2.2412,-2.3401,-2.4492,-2.4599,-2.4535,-2.4459,-2.4366,-2.4192,-2.4044,-2.3933,-2.4154,-2.4433,-2.4727,-2.479,-2.479,-2.4775,-2.4775,-2.4775,-2.4775,-2.4904,-2.4986,-2.501,-2.5192,-2.5374,-2.5484,-2.5613,-2.5684,-2.5703,-2.5703,-2.5703,-2.5703,-2.5703,-2.5703,-2.5703,-2.5703,-2.5703,-2.5698,-2.5698,-2.5681,-2.5683,-2.5683,-2.5683,-2.568,-2.5608,-2.5592,-2.5592,-2.5531,-2.5452,-2.5409,-2.539,-2.5341,-2.5303,-2.537,-2.5341,-2.5264,-2.5264,-2.5141,-2.4974,-2.4962,-2.4864,-2.4731,-2.4528,-2.4461,-2.4543,-2.4885,-2.5075,-2.5127,-2.4957,-2.4479,-2.3961,-2.3666,-2.3394,-2.3165,-2.2976,-2.2998,-2.3619,-2.5431,-2.5414,-2.5332,-2.587,-2.58,-2.5484,-2.4968,-2.4637,-2.3692,-2.1699,-2.1349,-2.0811,-1.967,-1.7564,-1.5842,-1.4611,-1.17,-0.9376,-0.7858,-0.3903,-0.0282,0.2857,0.5202,0.5852,0.4723,0.2703,0.0633,-0.1456,-0.0443,0.1364,-2.0088,-1.9808,-1.9863,-2.0639,-2.111,0.0,-2.2017,-2.2831,-2.3475,-2.3444,-2.393,-2.4136,-2.3488,-2.3306,-2.2996,-2.2299,-2.2812,-2.36,-2.4452,-2.47,-2.4746,-2.4594,-2.4561,-2.4561,-2.4561,-2.4727,-2.4877,-2.4998,-2.5231,-2.5421,-2.5503,-2.5574,-2.5644,-2.5703,-2.5703,-2.5703,-2.5703,-2.5703,-2.5703,-2.5703,-2.5703,-2.5671,-2.5627,-2.5627,-2.559,-2.5543,-2.5543,-2.5543,-2.5539,-2.5512,-2.5561,-2.5592,-2.5465,-2.5408,-2.539,-2.5341,-2.5303,-2.5303,-2.5303,-2.5203,-2.5065,-2.5065,-2.4956,-2.4814,-2.4651,-2.4575,-2.4528,-2.4321,-2.4266,-2.4339,-2.4741,-2.4847,-2.4803,-2.4503,-2.4384,-2.419,-2.3702,-2.384,-2.4022,-2.379,-2.3946,-2.4358,-2.5116,-2.5033,-2.5052,-2.56,-2.4938,-2.4494,-2.4758,-2.3283,-2.1829,-2.0823,-1.9839,-1.8931,-1.8112,-1.6754,-1.5605,-1.4694,-1.1906,-0.9916,-0.9019,-0.3968,0.0055,0.2832,0.7138,0.8906,0.7902,0.4005,0.2227,0.2421,0.2178,0.3409,-1.9627,-1.9353,-1.9479,-1.9989,-2.0484,0.0,0.0,-2.2524,-2.3356,-2.339,-2.3966,-2.4331,-2.3921,-2.3728,-2.3381,-2.2535,-2.307,-2.3492,-2.3208,-2.3923,-2.4461,-2.4357,-2.4339,-2.4339,-2.4339,-2.4545,-2.4756,-2.4986,-2.5154,-2.5302,-2.5437,-2.5556,-2.5625,-2.5644,-2.5684,-2.5703,-2.5703,-2.5703,-2.5703,-2.5703,-2.5678,-2.5622,-2.5601,-2.5563,-2.5532,-2.5503,-2.5503,-2.5503,-2.5503,-2.5464,-2.5479,-2.5486,-2.5428,-2.539,-2.5341,-2.5303,-2.5303,-2.5293,-2.5192,-2.5088,-2.4998,-2.493,-2.4799,-2.4623,-2.4528,-2.4426,-2.4339,-2.4228,-2.419,-2.4284,-2.47,-2.48,-2.4778,-2.467,-2.4624,-2.4543,-2.4325,-2.423,-2.4175,-2.4287,-2.413,-2.4118,-2.4435,-2.4677,-2.4689,-2.4356,-2.3675,-2.3033,-2.2565,-2.1231,-1.9994,-1.9014,-1.8349,-1.7749,-1.7074,-1.5754,-1.4707,-1.4212,-1.1428,-0.9883,-1.0057,-0.43,0.0762,0.4653,0.766,0.9157,0.8978,0.6953,0.5795,0.5432,0.4944,0.517,-1.9623,-1.9292,-1.9308,-1.939,-1.9989,-2.0611,0.0,0.0,0.0,-2.3113,-2.3662,-2.4108,-2.4108,-2.3832,-2.3379,-2.2734,-2.3141,-2.3069,-2.1743,-2.2977,-2.397,-2.3969,-2.4002,-2.4074,-2.419,-2.4375,-2.4651,-2.4967,-2.5056,-2.5168,-2.538,-2.5493,-2.5579,-2.5605,-2.5644,-2.5684,-2.5703,-2.5703,-2.5703,-2.5703,-2.5641,-2.5582,-2.5582,-2.5505,-2.5466,-2.5466,-2.5466,-2.5466,-2.5466,-2.5409,-2.539,-2.539,-2.539,-2.5341,-2.5303,-2.5264,-2.5253,-2.5233,-2.503,-2.4937,-2.4885,-2.4771,-2.4607,-2.4426,-2.4426,-2.4339,-2.419,-2.419,-2.419,-2.4284,-2.47,-2.4798,-2.4821,-2.4918,-2.4908,-2.4875,-2.4907,-2.4466,-2.4124,-2.4372,-2.3895,-2.3554,-2.3782,-2.4188,-2.4079,-2.2852,-2.2315,-2.1488,-1.995,-1.9162,-1.8278,-1.701,-1.6924,-1.6627,-1.5985,-1.4562,-1.3623,-1.3387,-1.0706,-0.9472,-1.0341,-0.3713,0.2027,0.6425,0.7555,0.8392,0.8925,0.9186,0.882,0.7823,0.7343,0.6641,-1.9727,-1.9266,-1.9314,-1.9375,-1.9567,-1.9773,-1.9849,0.0,-2.1176,-2.1129,0.0,-2.2371,-2.2306,0.0,0.0,-2.0994,-2.1034,-2.1018,-2.0768,-2.2165,-2.3197,-2.3144,-2.3238,-2.3544,-2.4151,-2.4375,-2.4651,-2.4967,-2.5003,-2.513,-2.5399,-2.5398,-2.5473,-2.5605,-2.5605,-2.5644,-2.5703,-2.5703,-2.5703,-2.5703,-2.5641,-2.5563,-2.5505,-2.5447,-2.539,-2.5322,-2.5322,-2.5322,-2.5322,-2.5303,-2.5303,-2.5303,-2.5303,-2.5303,-2.5274,-2.5099,-2.5022,-2.5018,-2.4869,-2.4716,-2.4559,-2.4545,-2.441,-2.4228,-2.4228,-2.4209,-2.419,-2.419,-2.419,-2.4284,-2.47,-2.4801,-2.4779,-2.4743,-2.4896,-2.4973,-2.4632,-2.4409,-2.4159,-2.3792,-2.3324,-2.3099,-2.3487,-2.345,-2.2957,-2.1692,-2.1151,-2.0234,-1.8398,-1.7768,-1.695,-1.5585,-1.5431,-1.5143,-1.444,-1.3342,-1.2647,-1.2654,-1.0188,-0.8824,-0.8918,-0.0707,0.4546,0.601,0.7111,0.781,0.8017,0.7894,0.8386,0.9395,0.8506,0.7638,-1.9525,-1.9565,-1.9884,-1.9457,-2.0136,-2.0685,-1.9736,-2.053,-2.1328,-2.0751,0.0,0.0,0.0,0.0,0.0,0.0,-2.1102,-2.1068,-2.0107,-2.1164,-2.2118,-2.2352,-2.283,-2.3247,-2.3492,-2.4008,-2.4239,-2.403,-2.4007,-2.4109,-2.4288,-2.4443,-2.4789,-2.5349,-2.5512,-2.5625,-2.5703,-2.5664,-2.5646,-2.5646,-2.5528,-2.5466,-2.5447,-2.537,-2.5322,-2.5303,-2.5303,-2.5224,-2.5141,-2.5141,-2.5084,-2.5019,-2.5019,-2.5061,-2.5118,-2.4943,-2.4877,-2.4869,-2.47,-2.4559,-2.4478,-2.4357,-2.4266,-2.419,-2.419,-2.419,-2.419,-2.419,-2.419,-2.4284,-2.4543,-2.4715,-2.4816,-2.4853,-2.4988,-2.4996,-2.4645,-2.4219,-2.3693,-2.3021,-2.2487,-2.2133,-2.2044,-2.2261,-2.2109,-2.1154,-2.0356,-1.9266,-1.7651,-1.6779,-1.5823,-1.4541,-1.4395,-1.4109,-1.3449,-1.26,-1.1933,-1.1524,-0.8969,-0.6323,-0.3784,0.1598,0.4945,0.5901,0.6597,0.7007,0.7131,0.657,0.7018,0.8431,0.7628,0.6884,-2.0074,-2.0149,-2.036,-1.9774,-2.0602,-2.125,-2.0033,-2.0714,-2.1398,-2.0643,-2.0843,0.0,0.0,0.0,-2.1068,-2.0699,0.0,-2.0828,-1.9656,-2.0433,-2.1333,-2.185,-2.2604,-2.2957,-2.2611,-2.318,-2.3399,-2.3002,-2.2896,-2.2955,-2.3162,-2.3498,-2.4066,-2.4832,-2.5245,-2.5517,-2.5637,-2.5595,-2.5571,-2.5563,-2.5466,-2.5409,-2.5409,-2.5322,-2.5303,-2.5303,-2.5234,-2.5122,-2.4998,-2.4962,-2.4891,-2.479,-2.4746,-2.4785,-2.4845,-2.4756,-2.4716,-2.4685,-2.4495,-2.4428,-2.4393,-2.4247,-2.419,-2.419,-2.419,-2.4151,-2.4074,-2.4074,-2.4074,-2.4095,-2.4192,-2.4479,-2.4767,-2.4812,-2.4931,-2.4923,-2.4548,-2.3895,-2.3175,-2.2479,-2.1624,-2.0975,-2.083,-2.1128,-2.1105,-2.0102,-1.9215,-1.7977,-1.6153,-1.528,-1.4367,-1.312,-1.313,-1.3006,-1.2353,-1.1832,-1.0998,-0.9717,-0.7706,-0.4638,-0.0166,0.2896,0.4823,0.5525,0.5828,0.5954,0.601,0.494,0.5474,0.7462,0.6764,0.61,-2.1859,-2.1022,-2.0505,-2.0466,-2.0602,-2.0717,-2.0659,-2.076,-2.0763,-2.0551,-1.9947,-1.9672,-2.024,-1.9813,-1.9635,-2.037,-1.9973,0.0,0.0,-2.0196,-2.1007,-2.1808,-2.2619,-2.2663,-2.1571,-2.1767,-2.2023,-2.2133,-2.189,-2.1916,-2.2325,-2.29,-2.3439,-2.3928,-2.4718,-2.5232,-2.5498,-2.5508,-2.5506,-2.5505,-2.5428,-2.5409,-2.5409,-2.5322,-2.5303,-2.5303,-2.5099,-2.501,-2.4998,-2.4869,-2.4804,-2.4775,-2.4594,-2.4512,-2.4528,-2.4512,-2.4512,-2.4478,-2.4266,-2.4209,-2.4209,-2.419,-2.419,-2.419,-2.419,-2.3976,-2.3714,-2.3714,-2.3714,-2.3696,-2.3572,-2.4052,-2.4578,-2.4444,-2.4615,-2.4679,-2.4221,-2.3486,-2.2768,-2.2211,-2.0783,-1.9768,-2.0172,-2.0224,-1.9737,-1.811,-1.7476,-1.6166,-1.3297,-1.2908,-1.2376,-1.1057,-1.1466,-1.1616,-1.0914,-1.0864,-0.9666,-0.6902,-0.6657,-0.4638,-0.0166,0.2896,0.449,0.4536,0.4539,0.4553,0.4573,0.3023,0.4104,0.7466,0.6413,0.5909,-2.1716,-2.2228,-2.2484,-2.0841,-2.1697,-2.2502,-2.0819,-2.0486,-2.0651,-2.1096,-2.0497,-1.9988,-2.0209,-2.008,-1.9895,-1.9623,-1.9415,-1.9314,0.0,-2.0136,-2.0618,-2.0407,-2.1093,-2.143,-2.105,-2.15,-2.1662,-2.122,-2.0869,-2.0818,-2.109,-2.1798,-2.2666,-2.3667,-2.4607,-2.4968,-2.4706,-2.5194,-2.5164,-2.4649,-2.4436,-2.4613,-2.5118,-2.4415,-2.4423,-2.4981,-2.4896,-2.478,-2.4682,-2.4623,-2.4528,-2.4393,-2.4339,-2.4303,-2.4303,-2.4303,-2.4303,-2.4284,-2.4228,-2.419,-2.419,-2.419,-2.419,-2.417,-2.3937,-2.3795,-2.3649,-2.3414,-2.3369,-2.3351,-2.3298,-2.3595,-2.3866,-2.3823,-2.3859,-2.3751,-2.3112,-2.2659,-2.1989,-2.0703,-1.9997,-1.9324,-1.8379,-1.7569,-1.6915,-1.6647,-1.5922,-1.4597,-1.2377,-1.2055,-1.1778,-1.0906,-1.1015,-1.1065,-1.0813,-1.0415,-0.9332,-0.745,-0.6874,-0.5194,-0.2035,0.2223,0.4507,0.4501,0.4501,0.3538,0.1514,0.1008,0.1344,0.2527,0.3183,0.4012,-2.2539,-2.3087,-2.3362,-2.2082,-2.2941,-2.3691,-2.2045,-2.1716,-2.1789,-2.1934,-2.1043,-2.0318,-2.0572,-2.0391,-2.0138,-1.9939,-1.9685,-1.9571,0.0,-2.0531,-2.0939,-2.0463,-2.0919,-2.1135,-2.0829,-2.1216,-2.1248,-2.0704,-2.0078,-1.9776,-1.9966,-2.0642,-2.1621,-2.2887,-2.3689,-2.4107,-2.412,-2.4668,-2.4505,-2.3631,-2.376,-2.3873,-2.4043,-2.3663,-2.3817,-2.4351,-2.4599,-2.4623,-2.4495,-2.4409,-2.4321,-2.419,-2.419,-2.419,-2.419,-2.419,-2.419,-2.419,-2.419,-2.4113,-2.4016,-2.4016,-2.3937,-2.3795,-2.3588,-2.3437,-2.33,-2.3093,-2.293,-2.2788,-2.266,-2.2783,-2.2912,-2.281,-2.2858,-2.2775,-2.2192,-2.1702,-2.1019,-1.9823,-1.8979,-1.8113,-1.7096,-1.5564,-1.4654,-1.5057,-1.4192,-1.2895,-1.1265,-1.1023,-1.0679,-0.9784,-1.0151,-1.0517,-1.0762,-0.9969,-0.9033,-0.8131,-0.7609,-0.605,-0.3025,0.0832,0.3391,0.4478,0.4485,0.2995,0.0,0.0,0.0,0.0056,0.2071,0.3527]}]]